<?xml version="1.0" encoding="UTF-8" standalone="no" ?>
<gpx xmlns="http://www.topografix.com/GPX/1/1" xmlns:xsi="http://www.w3.org/2001/XMLSchema-instance" xsi:schemaLocation="http://www.topografix.com/GPX/1/1 http://www.topografix.com/GPX/1/1/gpx.xsd" version="1.1" creator="VisuGPX - https://www.visugpx.com">
  <metadata>
    <name>Le Causse de Sabadel</name>
    <desc><![CDATA[Circuit agréable partagé entre la vallée de la Sagne et le plateau ménageant de belles perspectives.]]></desc>
  </metadata>
  <trk>
    <name><![CDATA[Le Causse de Sabadel_1]]></name>
    <trkseg>
      <trkpt lat="44.56609" lon="1.60655">
        <ele>286.7</ele>
        <time>2019-03-17T13:10:16Z</time>
      </trkpt>
      <trkpt lat="44.56611" lon="1.6066">
        <ele>278.1</ele>
        <time>2019-03-17T13:10:28Z</time>
      </trkpt>
      <trkpt lat="44.56611" lon="1.60668">
        <ele>273.4</ele>
        <time>2019-03-17T13:10:57Z</time>
      </trkpt>
      <trkpt lat="44.56611" lon="1.60674">
        <ele>271.5</ele>
        <time>2019-03-17T13:11:00Z</time>
      </trkpt>
      <trkpt lat="44.56612" lon="1.60682">
        <ele>268.6</ele>
        <time>2019-03-17T13:11:06Z</time>
      </trkpt>
      <trkpt lat="44.5661" lon="1.60689">
        <ele>267</ele>
        <time>2019-03-17T13:11:10Z</time>
      </trkpt>
      <trkpt lat="44.56608" lon="1.60695">
        <ele>265.8</ele>
        <time>2019-03-17T13:11:13Z</time>
      </trkpt>
      <trkpt lat="44.56605" lon="1.60702">
        <ele>265.4</ele>
        <time>2019-03-17T13:11:17Z</time>
      </trkpt>
      <trkpt lat="44.56603" lon="1.60708">
        <ele>265.3</ele>
        <time>2019-03-17T13:11:20Z</time>
      </trkpt>
      <trkpt lat="44.56602" lon="1.60714">
        <ele>264.8</ele>
        <time>2019-03-17T13:11:24Z</time>
      </trkpt>
      <trkpt lat="44.56599" lon="1.60721">
        <ele>265</ele>
        <time>2019-03-17T13:11:28Z</time>
      </trkpt>
      <trkpt lat="44.56597" lon="1.60726">
        <ele>265.4</ele>
        <time>2019-03-17T13:11:32Z</time>
      </trkpt>
      <trkpt lat="44.56597" lon="1.60719">
        <ele>264</ele>
        <time>2019-03-17T13:11:41Z</time>
      </trkpt>
      <trkpt lat="44.56598" lon="1.60713">
        <ele>263.7</ele>
        <time>2019-03-17T13:11:45Z</time>
      </trkpt>
      <trkpt lat="44.56598" lon="1.60707">
        <ele>264</ele>
        <time>2019-03-17T13:11:48Z</time>
      </trkpt>
      <trkpt lat="44.56598" lon="1.60699">
        <ele>264</ele>
        <time>2019-03-17T13:11:52Z</time>
      </trkpt>
      <trkpt lat="44.56599" lon="1.60691">
        <ele>265</ele>
        <time>2019-03-17T13:11:55Z</time>
      </trkpt>
      <trkpt lat="44.56599" lon="1.60682">
        <ele>266.2</ele>
        <time>2019-03-17T13:11:59Z</time>
      </trkpt>
      <trkpt lat="44.56598" lon="1.60675">
        <ele>267.2</ele>
        <time>2019-03-17T13:12:03Z</time>
      </trkpt>
      <trkpt lat="44.56597" lon="1.60669">
        <ele>267.5</ele>
        <time>2019-03-17T13:12:08Z</time>
      </trkpt>
      <trkpt lat="44.56594" lon="1.60662">
        <ele>267.7</ele>
        <time>2019-03-17T13:12:13Z</time>
      </trkpt>
      <trkpt lat="44.56591" lon="1.60655">
        <ele>267.7</ele>
        <time>2019-03-17T13:12:18Z</time>
      </trkpt>
      <trkpt lat="44.5659" lon="1.60649">
        <ele>267.8</ele>
        <time>2019-03-17T13:12:23Z</time>
      </trkpt>
      <trkpt lat="44.56586" lon="1.6065">
        <ele>266.4</ele>
        <time>2019-03-17T13:12:28Z</time>
      </trkpt>
      <trkpt lat="44.56581" lon="1.60653">
        <ele>265</ele>
        <time>2019-03-17T13:12:37Z</time>
      </trkpt>
      <trkpt lat="44.56577" lon="1.60657">
        <ele>264.9</ele>
        <time>2019-03-17T13:12:41Z</time>
      </trkpt>
      <trkpt lat="44.56572" lon="1.60656">
        <ele>260.8</ele>
        <time>2019-03-17T13:12:51Z</time>
      </trkpt>
      <trkpt lat="44.56566" lon="1.60653">
        <ele>260.3</ele>
        <time>2019-03-17T13:13:04Z</time>
      </trkpt>
      <trkpt lat="44.56562" lon="1.60649">
        <ele>260.3</ele>
        <time>2019-03-17T13:13:06Z</time>
      </trkpt>
      <trkpt lat="44.56557" lon="1.60646">
        <ele>258.1</ele>
        <time>2019-03-17T13:13:11Z</time>
      </trkpt>
      <trkpt lat="44.56552" lon="1.60643">
        <ele>256.7</ele>
        <time>2019-03-17T13:13:17Z</time>
      </trkpt>
      <trkpt lat="44.56548" lon="1.60642">
        <ele>256.6</ele>
        <time>2019-03-17T13:13:20Z</time>
      </trkpt>
      <trkpt lat="44.56543" lon="1.60644">
        <ele>255.8</ele>
        <time>2019-03-17T13:13:25Z</time>
      </trkpt>
      <trkpt lat="44.5654" lon="1.60649">
        <ele>255</ele>
        <time>2019-03-17T13:13:31Z</time>
      </trkpt>
      <trkpt lat="44.56536" lon="1.60653">
        <ele>255.8</ele>
        <time>2019-03-17T13:13:40Z</time>
      </trkpt>
      <trkpt lat="44.56531" lon="1.60651">
        <ele>257.7</ele>
        <time>2019-03-17T13:13:47Z</time>
      </trkpt>
      <trkpt lat="44.56526" lon="1.60649">
        <ele>260.1</ele>
        <time>2019-03-17T13:13:57Z</time>
      </trkpt>
      <trkpt lat="44.56521" lon="1.60649">
        <ele>265.4</ele>
        <time>2019-03-17T13:14:33Z</time>
      </trkpt>
      <trkpt lat="44.56516" lon="1.6065">
        <ele>264.7</ele>
        <time>2019-03-17T13:14:37Z</time>
      </trkpt>
      <trkpt lat="44.56511" lon="1.60655">
        <ele>265.1</ele>
        <time>2019-03-17T13:14:42Z</time>
      </trkpt>
      <trkpt lat="44.56507" lon="1.60658">
        <ele>265.5</ele>
        <time>2019-03-17T13:14:44Z</time>
      </trkpt>
      <trkpt lat="44.56503" lon="1.60663">
        <ele>266.2</ele>
        <time>2019-03-17T13:14:47Z</time>
      </trkpt>
      <trkpt lat="44.56498" lon="1.60668">
        <ele>267.8</ele>
        <time>2019-03-17T13:14:50Z</time>
      </trkpt>
      <trkpt lat="44.56493" lon="1.60672">
        <ele>268.4</ele>
        <time>2019-03-17T13:14:54Z</time>
      </trkpt>
      <trkpt lat="44.56483" lon="1.60675">
        <ele>269.2</ele>
        <time>2019-03-17T13:15:08Z</time>
      </trkpt>
      <trkpt lat="44.56479" lon="1.60679">
        <ele>269</ele>
        <time>2019-03-17T13:15:12Z</time>
      </trkpt>
      <trkpt lat="44.56474" lon="1.60682">
        <ele>269.5</ele>
        <time>2019-03-17T13:15:14Z</time>
      </trkpt>
      <trkpt lat="44.56469" lon="1.60682">
        <ele>269.7</ele>
        <time>2019-03-17T13:15:17Z</time>
      </trkpt>
      <trkpt lat="44.56463" lon="1.60682">
        <ele>271.2</ele>
        <time>2019-03-17T13:15:20Z</time>
      </trkpt>
      <trkpt lat="44.56458" lon="1.60682">
        <ele>272.2</ele>
        <time>2019-03-17T13:15:23Z</time>
      </trkpt>
      <trkpt lat="44.56452" lon="1.6068">
        <ele>271.6</ele>
        <time>2019-03-17T13:15:29Z</time>
      </trkpt>
      <trkpt lat="44.56447" lon="1.60681">
        <ele>271.8</ele>
        <time>2019-03-17T13:15:34Z</time>
      </trkpt>
      <trkpt lat="44.56443" lon="1.60684">
        <ele>271.5</ele>
        <time>2019-03-17T13:15:37Z</time>
      </trkpt>
      <trkpt lat="44.56439" lon="1.60688">
        <ele>271</ele>
        <time>2019-03-17T13:15:40Z</time>
      </trkpt>
      <trkpt lat="44.56433" lon="1.60688">
        <ele>270.4</ele>
        <time>2019-03-17T13:15:45Z</time>
      </trkpt>
      <trkpt lat="44.56428" lon="1.60685">
        <ele>270.3</ele>
        <time>2019-03-17T13:15:49Z</time>
      </trkpt>
      <trkpt lat="44.56425" lon="1.6069">
        <ele>268</ele>
        <time>2019-03-17T13:15:54Z</time>
      </trkpt>
      <trkpt lat="44.56421" lon="1.60693">
        <ele>266.6</ele>
        <time>2019-03-17T13:15:58Z</time>
      </trkpt>
      <trkpt lat="44.56416" lon="1.60693">
        <ele>265.6</ele>
        <time>2019-03-17T13:16:03Z</time>
      </trkpt>
      <trkpt lat="44.56411" lon="1.60694">
        <ele>264.6</ele>
        <time>2019-03-17T13:16:10Z</time>
      </trkpt>
      <trkpt lat="44.56407" lon="1.60696">
        <ele>264.8</ele>
        <time>2019-03-17T13:16:14Z</time>
      </trkpt>
      <trkpt lat="44.56402" lon="1.607">
        <ele>264.8</ele>
        <time>2019-03-17T13:16:18Z</time>
      </trkpt>
      <trkpt lat="44.56397" lon="1.607">
        <ele>263.9</ele>
        <time>2019-03-17T13:16:24Z</time>
      </trkpt>
      <trkpt lat="44.56392" lon="1.60704">
        <ele>264.3</ele>
        <time>2019-03-17T13:16:27Z</time>
      </trkpt>
      <trkpt lat="44.56388" lon="1.60707">
        <ele>264.6</ele>
        <time>2019-03-17T13:16:30Z</time>
      </trkpt>
      <trkpt lat="44.56383" lon="1.6071">
        <ele>265.4</ele>
        <time>2019-03-17T13:16:33Z</time>
      </trkpt>
      <trkpt lat="44.56378" lon="1.60707">
        <ele>265.7</ele>
        <time>2019-03-17T13:16:37Z</time>
      </trkpt>
      <trkpt lat="44.56373" lon="1.60706">
        <ele>265.8</ele>
        <time>2019-03-17T13:16:42Z</time>
      </trkpt>
      <trkpt lat="44.56369" lon="1.60706">
        <ele>266.4</ele>
        <time>2019-03-17T13:16:45Z</time>
      </trkpt>
      <trkpt lat="44.56364" lon="1.60705">
        <ele>266.9</ele>
        <time>2019-03-17T13:16:49Z</time>
      </trkpt>
      <trkpt lat="44.56359" lon="1.60706">
        <ele>267.5</ele>
        <time>2019-03-17T13:16:54Z</time>
      </trkpt>
      <trkpt lat="44.56355" lon="1.60708">
        <ele>268.1</ele>
        <time>2019-03-17T13:16:57Z</time>
      </trkpt>
      <trkpt lat="44.56349" lon="1.60708">
        <ele>270.2</ele>
        <time>2019-03-17T13:17:06Z</time>
      </trkpt>
      <trkpt lat="44.56344" lon="1.60706">
        <ele>270.1</ele>
        <time>2019-03-17T13:17:11Z</time>
      </trkpt>
      <trkpt lat="44.56339" lon="1.60706">
        <ele>269.7</ele>
        <time>2019-03-17T13:17:14Z</time>
      </trkpt>
      <trkpt lat="44.56334" lon="1.60704">
        <ele>269.1</ele>
        <time>2019-03-17T13:17:18Z</time>
      </trkpt>
      <trkpt lat="44.5633" lon="1.60701">
        <ele>269.2</ele>
        <time>2019-03-17T13:17:22Z</time>
      </trkpt>
      <trkpt lat="44.56323" lon="1.60697">
        <ele>271</ele>
        <time>2019-03-17T13:17:25Z</time>
      </trkpt>
      <trkpt lat="44.56318" lon="1.60692">
        <ele>272.2</ele>
        <time>2019-03-17T13:17:28Z</time>
      </trkpt>
      <trkpt lat="44.56314" lon="1.60688">
        <ele>273</ele>
        <time>2019-03-17T13:17:32Z</time>
      </trkpt>
      <trkpt lat="44.56317" lon="1.60693">
        <ele>266</ele>
        <time>2019-03-17T13:17:43Z</time>
      </trkpt>
      <trkpt lat="44.56319" lon="1.60701">
        <ele>263.8</ele>
        <time>2019-03-17T13:17:47Z</time>
      </trkpt>
      <trkpt lat="44.56322" lon="1.60706">
        <ele>263.3</ele>
        <time>2019-03-17T13:17:51Z</time>
      </trkpt>
      <trkpt lat="44.56324" lon="1.60713">
        <ele>263.5</ele>
        <time>2019-03-17T13:17:55Z</time>
      </trkpt>
      <trkpt lat="44.56326" lon="1.60719">
        <ele>264.6</ele>
        <time>2019-03-17T13:17:59Z</time>
      </trkpt>
      <trkpt lat="44.56329" lon="1.60724">
        <ele>264</ele>
        <time>2019-03-17T13:18:05Z</time>
      </trkpt>
      <trkpt lat="44.56329" lon="1.60731">
        <ele>262.6</ele>
        <time>2019-03-17T13:18:11Z</time>
      </trkpt>
      <trkpt lat="44.5633" lon="1.60739">
        <ele>262.1</ele>
        <time>2019-03-17T13:18:15Z</time>
      </trkpt>
      <trkpt lat="44.56328" lon="1.60745">
        <ele>262</ele>
        <time>2019-03-17T13:18:18Z</time>
      </trkpt>
      <trkpt lat="44.56327" lon="1.60752">
        <ele>262.2</ele>
        <time>2019-03-17T13:18:22Z</time>
      </trkpt>
      <trkpt lat="44.56325" lon="1.60759">
        <ele>263.1</ele>
        <time>2019-03-17T13:18:25Z</time>
      </trkpt>
      <trkpt lat="44.56324" lon="1.60765">
        <ele>263.4</ele>
        <time>2019-03-17T13:18:28Z</time>
      </trkpt>
      <trkpt lat="44.56322" lon="1.60771">
        <ele>263.4</ele>
        <time>2019-03-17T13:18:33Z</time>
      </trkpt>
      <trkpt lat="44.5632" lon="1.60778">
        <ele>260.7</ele>
        <time>2019-03-17T13:18:41Z</time>
      </trkpt>
      <trkpt lat="44.56319" lon="1.60785">
        <ele>259.6</ele>
        <time>2019-03-17T13:18:46Z</time>
      </trkpt>
      <trkpt lat="44.56323" lon="1.6079">
        <ele>258.8</ele>
        <time>2019-03-17T13:18:51Z</time>
      </trkpt>
      <trkpt lat="44.56328" lon="1.60791">
        <ele>258.9</ele>
        <time>2019-03-17T13:18:55Z</time>
      </trkpt>
      <trkpt lat="44.56333" lon="1.60787">
        <ele>259.3</ele>
        <time>2019-03-17T13:18:59Z</time>
      </trkpt>
      <trkpt lat="44.56337" lon="1.60784">
        <ele>260.1</ele>
        <time>2019-03-17T13:19:04Z</time>
      </trkpt>
      <trkpt lat="44.56332" lon="1.60785">
        <ele>260</ele>
        <time>2019-03-17T13:21:04Z</time>
      </trkpt>
      <trkpt lat="44.56327" lon="1.60788">
        <ele>259.2</ele>
        <time>2019-03-17T13:21:07Z</time>
      </trkpt>
      <trkpt lat="44.56322" lon="1.60792">
        <ele>257.3</ele>
        <time>2019-03-17T13:21:12Z</time>
      </trkpt>
      <trkpt lat="44.5631" lon="1.60799">
        <ele>255</ele>
        <time>2019-03-17T13:21:24Z</time>
      </trkpt>
      <trkpt lat="44.56305" lon="1.60801">
        <ele>254.8</ele>
        <time>2019-03-17T13:21:28Z</time>
      </trkpt>
      <trkpt lat="44.56283" lon="1.60844">
        <ele>254</ele>
        <time>2019-03-17T13:21:53Z</time>
      </trkpt>
      <trkpt lat="44.56282" lon="1.60851">
        <ele>255.4</ele>
        <time>2019-03-17T13:21:57Z</time>
      </trkpt>
      <trkpt lat="44.56281" lon="1.60859">
        <ele>257.1</ele>
        <time>2019-03-17T13:22:01Z</time>
      </trkpt>
      <trkpt lat="44.56278" lon="1.60864">
        <ele>258.9</ele>
        <time>2019-03-17T13:22:08Z</time>
      </trkpt>
      <trkpt lat="44.56275" lon="1.60869">
        <ele>258.8</ele>
        <time>2019-03-17T13:22:13Z</time>
      </trkpt>
      <trkpt lat="44.56271" lon="1.60872">
        <ele>257.3</ele>
        <time>2019-03-17T13:22:18Z</time>
      </trkpt>
      <trkpt lat="44.56269" lon="1.60878">
        <ele>255.9</ele>
        <time>2019-03-17T13:22:24Z</time>
      </trkpt>
      <trkpt lat="44.56265" lon="1.60883">
        <ele>255.2</ele>
        <time>2019-03-17T13:22:28Z</time>
      </trkpt>
      <trkpt lat="44.56262" lon="1.60891">
        <ele>255.4</ele>
        <time>2019-03-17T13:22:31Z</time>
      </trkpt>
      <trkpt lat="44.56261" lon="1.60898">
        <ele>256.1</ele>
        <time>2019-03-17T13:22:34Z</time>
      </trkpt>
      <trkpt lat="44.56258" lon="1.60904">
        <ele>256.5</ele>
        <time>2019-03-17T13:22:36Z</time>
      </trkpt>
      <trkpt lat="44.56255" lon="1.6091">
        <ele>256.5</ele>
        <time>2019-03-17T13:22:42Z</time>
      </trkpt>
      <trkpt lat="44.56251" lon="1.60912">
        <ele>255.7</ele>
        <time>2019-03-17T13:22:47Z</time>
      </trkpt>
      <trkpt lat="44.56247" lon="1.60917">
        <ele>254.9</ele>
        <time>2019-03-17T13:22:53Z</time>
      </trkpt>
      <trkpt lat="44.56241" lon="1.6092">
        <ele>254.8</ele>
        <time>2019-03-17T13:22:58Z</time>
      </trkpt>
      <trkpt lat="44.5624" lon="1.60928">
        <ele>255.6</ele>
        <time>2019-03-17T13:23:01Z</time>
      </trkpt>
      <trkpt lat="44.56237" lon="1.60934">
        <ele>255.8</ele>
        <time>2019-03-17T13:23:05Z</time>
      </trkpt>
      <trkpt lat="44.56234" lon="1.60941">
        <ele>257.1</ele>
        <time>2019-03-17T13:23:08Z</time>
      </trkpt>
      <trkpt lat="44.5623" lon="1.60946">
        <ele>256.6</ele>
        <time>2019-03-17T13:23:13Z</time>
      </trkpt>
      <trkpt lat="44.56225" lon="1.60949">
        <ele>256.2</ele>
        <time>2019-03-17T13:23:17Z</time>
      </trkpt>
      <trkpt lat="44.56221" lon="1.60953">
        <ele>255.5</ele>
        <time>2019-03-17T13:23:21Z</time>
      </trkpt>
      <trkpt lat="44.56217" lon="1.60957">
        <ele>254.5</ele>
        <time>2019-03-17T13:23:26Z</time>
      </trkpt>
      <trkpt lat="44.56216" lon="1.60963">
        <ele>254.3</ele>
        <time>2019-03-17T13:23:30Z</time>
      </trkpt>
      <trkpt lat="44.56214" lon="1.60969">
        <ele>255</ele>
        <time>2019-03-17T13:23:34Z</time>
      </trkpt>
      <trkpt lat="44.56211" lon="1.60974">
        <ele>255.3</ele>
        <time>2019-03-17T13:23:39Z</time>
      </trkpt>
      <trkpt lat="44.56206" lon="1.60978">
        <ele>255.6</ele>
        <time>2019-03-17T13:23:44Z</time>
      </trkpt>
      <trkpt lat="44.56201" lon="1.60982">
        <ele>255</ele>
        <time>2019-03-17T13:23:50Z</time>
      </trkpt>
      <trkpt lat="44.56197" lon="1.60986">
        <ele>255</ele>
        <time>2019-03-17T13:23:54Z</time>
      </trkpt>
      <trkpt lat="44.56193" lon="1.60991">
        <ele>254.7</ele>
        <time>2019-03-17T13:23:59Z</time>
      </trkpt>
      <trkpt lat="44.56189" lon="1.60996">
        <ele>254.9</ele>
        <time>2019-03-17T13:24:02Z</time>
      </trkpt>
      <trkpt lat="44.56186" lon="1.61002">
        <ele>254.7</ele>
        <time>2019-03-17T13:24:06Z</time>
      </trkpt>
      <trkpt lat="44.56183" lon="1.61007">
        <ele>254.6</ele>
        <time>2019-03-17T13:24:10Z</time>
      </trkpt>
      <trkpt lat="44.5618" lon="1.61012">
        <ele>254.3</ele>
        <time>2019-03-17T13:24:14Z</time>
      </trkpt>
      <trkpt lat="44.56177" lon="1.61017">
        <ele>253.9</ele>
        <time>2019-03-17T13:24:17Z</time>
      </trkpt>
      <trkpt lat="44.56175" lon="1.61023">
        <ele>255</ele>
        <time>2019-03-17T13:24:22Z</time>
      </trkpt>
      <trkpt lat="44.56175" lon="1.61029">
        <ele>256.2</ele>
        <time>2019-03-17T13:24:33Z</time>
      </trkpt>
      <trkpt lat="44.56175" lon="1.61037">
        <ele>254.3</ele>
        <time>2019-03-17T13:24:38Z</time>
      </trkpt>
      <trkpt lat="44.56175" lon="1.61046">
        <ele>253.7</ele>
        <time>2019-03-17T13:24:42Z</time>
      </trkpt>
      <trkpt lat="44.56175" lon="1.61054">
        <ele>254.1</ele>
        <time>2019-03-17T13:24:44Z</time>
      </trkpt>
      <trkpt lat="44.56175" lon="1.6106">
        <ele>254</ele>
        <time>2019-03-17T13:24:47Z</time>
      </trkpt>
      <trkpt lat="44.56175" lon="1.61068">
        <ele>254</ele>
        <time>2019-03-17T13:24:52Z</time>
      </trkpt>
      <trkpt lat="44.56175" lon="1.61076">
        <ele>253</ele>
        <time>2019-03-17T13:24:58Z</time>
      </trkpt>
      <trkpt lat="44.56176" lon="1.61083">
        <ele>253.2</ele>
        <time>2019-03-17T13:25:01Z</time>
      </trkpt>
      <trkpt lat="44.56176" lon="1.61091">
        <ele>253.6</ele>
        <time>2019-03-17T13:25:05Z</time>
      </trkpt>
      <trkpt lat="44.56176" lon="1.61098">
        <ele>254.6</ele>
        <time>2019-03-17T13:25:07Z</time>
      </trkpt>
      <trkpt lat="44.56174" lon="1.61105">
        <ele>256</ele>
        <time>2019-03-17T13:25:11Z</time>
      </trkpt>
      <trkpt lat="44.5617" lon="1.61107">
        <ele>255.4</ele>
        <time>2019-03-17T13:25:17Z</time>
      </trkpt>
      <trkpt lat="44.56167" lon="1.61112">
        <ele>255.7</ele>
        <time>2019-03-17T13:25:21Z</time>
      </trkpt>
      <trkpt lat="44.56163" lon="1.61117">
        <ele>254.8</ele>
        <time>2019-03-17T13:25:26Z</time>
      </trkpt>
      <trkpt lat="44.56158" lon="1.61119">
        <ele>253.9</ele>
        <time>2019-03-17T13:25:30Z</time>
      </trkpt>
      <trkpt lat="44.56153" lon="1.6112">
        <ele>253.1</ele>
        <time>2019-03-17T13:25:35Z</time>
      </trkpt>
      <trkpt lat="44.56149" lon="1.61123">
        <ele>253</ele>
        <time>2019-03-17T13:25:38Z</time>
      </trkpt>
      <trkpt lat="44.56144" lon="1.61123">
        <ele>253.2</ele>
        <time>2019-03-17T13:25:40Z</time>
      </trkpt>
      <trkpt lat="44.56142" lon="1.6113">
        <ele>254</ele>
        <time>2019-03-17T13:25:44Z</time>
      </trkpt>
      <trkpt lat="44.56136" lon="1.61129">
        <ele>254.1</ele>
        <time>2019-03-17T13:25:47Z</time>
      </trkpt>
      <trkpt lat="44.56131" lon="1.61131">
        <ele>254</ele>
        <time>2019-03-17T13:25:50Z</time>
      </trkpt>
      <trkpt lat="44.56127" lon="1.61135">
        <ele>253.1</ele>
        <time>2019-03-17T13:25:54Z</time>
      </trkpt>
      <trkpt lat="44.56123" lon="1.61138">
        <ele>251.2</ele>
        <time>2019-03-17T13:26:00Z</time>
      </trkpt>
      <trkpt lat="44.56118" lon="1.61138">
        <ele>250.2</ele>
        <time>2019-03-17T13:26:04Z</time>
      </trkpt>
      <trkpt lat="44.56114" lon="1.61141">
        <ele>249.7</ele>
        <time>2019-03-17T13:26:08Z</time>
      </trkpt>
      <trkpt lat="44.56111" lon="1.61147">
        <ele>248.9</ele>
        <time>2019-03-17T13:26:13Z</time>
      </trkpt>
      <trkpt lat="44.56109" lon="1.61154">
        <ele>248.9</ele>
        <time>2019-03-17T13:26:17Z</time>
      </trkpt>
      <trkpt lat="44.56108" lon="1.61162">
        <ele>249.8</ele>
        <time>2019-03-17T13:26:21Z</time>
      </trkpt>
      <trkpt lat="44.56107" lon="1.61168">
        <ele>249.7</ele>
        <time>2019-03-17T13:26:25Z</time>
      </trkpt>
      <trkpt lat="44.56105" lon="1.61174">
        <ele>249.3</ele>
        <time>2019-03-17T13:26:29Z</time>
      </trkpt>
      <trkpt lat="44.56101" lon="1.61179">
        <ele>248.9</ele>
        <time>2019-03-17T13:26:32Z</time>
      </trkpt>
      <trkpt lat="44.56098" lon="1.61184">
        <ele>248.3</ele>
        <time>2019-03-17T13:26:36Z</time>
      </trkpt>
      <trkpt lat="44.56097" lon="1.61191">
        <ele>248.9</ele>
        <time>2019-03-17T13:26:40Z</time>
      </trkpt>
      <trkpt lat="44.56094" lon="1.61196">
        <ele>247.8</ele>
        <time>2019-03-17T13:26:44Z</time>
      </trkpt>
      <trkpt lat="44.56094" lon="1.61203">
        <ele>247.6</ele>
        <time>2019-03-17T13:26:48Z</time>
      </trkpt>
      <trkpt lat="44.56092" lon="1.61211">
        <ele>247.1</ele>
        <time>2019-03-17T13:26:53Z</time>
      </trkpt>
      <trkpt lat="44.56091" lon="1.61217">
        <ele>247.3</ele>
        <time>2019-03-17T13:26:57Z</time>
      </trkpt>
      <trkpt lat="44.56088" lon="1.61222">
        <ele>246.1</ele>
        <time>2019-03-17T13:27:02Z</time>
      </trkpt>
      <trkpt lat="44.56086" lon="1.61227">
        <ele>245.9</ele>
        <time>2019-03-17T13:27:05Z</time>
      </trkpt>
      <trkpt lat="44.56085" lon="1.61234">
        <ele>246</ele>
        <time>2019-03-17T13:27:08Z</time>
      </trkpt>
      <trkpt lat="44.56084" lon="1.61241">
        <ele>246.8</ele>
        <time>2019-03-17T13:27:12Z</time>
      </trkpt>
      <trkpt lat="44.56084" lon="1.61248">
        <ele>249.1</ele>
        <time>2019-03-17T13:27:16Z</time>
      </trkpt>
      <trkpt lat="44.56081" lon="1.61255">
        <ele>249.9</ele>
        <time>2019-03-17T13:27:21Z</time>
      </trkpt>
      <trkpt lat="44.56078" lon="1.6126">
        <ele>250.1</ele>
        <time>2019-03-17T13:27:25Z</time>
      </trkpt>
      <trkpt lat="44.56074" lon="1.61266">
        <ele>249.7</ele>
        <time>2019-03-17T13:27:29Z</time>
      </trkpt>
      <trkpt lat="44.56072" lon="1.61271">
        <ele>249.2</ele>
        <time>2019-03-17T13:27:33Z</time>
      </trkpt>
      <trkpt lat="44.56069" lon="1.61278">
        <ele>248.7</ele>
        <time>2019-03-17T13:27:37Z</time>
      </trkpt>
      <trkpt lat="44.56067" lon="1.61284">
        <ele>247.7</ele>
        <time>2019-03-17T13:27:43Z</time>
      </trkpt>
      <trkpt lat="44.56066" lon="1.61291">
        <ele>247.7</ele>
        <time>2019-03-17T13:27:47Z</time>
      </trkpt>
      <trkpt lat="44.56063" lon="1.61297">
        <ele>246.8</ele>
        <time>2019-03-17T13:27:52Z</time>
      </trkpt>
      <trkpt lat="44.56063" lon="1.61304">
        <ele>246.2</ele>
        <time>2019-03-17T13:27:57Z</time>
      </trkpt>
      <trkpt lat="44.56062" lon="1.61311">
        <ele>247.1</ele>
        <time>2019-03-17T13:28:01Z</time>
      </trkpt>
      <trkpt lat="44.56062" lon="1.61318">
        <ele>247.7</ele>
        <time>2019-03-17T13:28:05Z</time>
      </trkpt>
      <trkpt lat="44.56061" lon="1.61325">
        <ele>247.6</ele>
        <time>2019-03-17T13:28:10Z</time>
      </trkpt>
      <trkpt lat="44.5606" lon="1.61333">
        <ele>247.8</ele>
        <time>2019-03-17T13:28:15Z</time>
      </trkpt>
      <trkpt lat="44.5606" lon="1.6134">
        <ele>248.9</ele>
        <time>2019-03-17T13:28:18Z</time>
      </trkpt>
      <trkpt lat="44.5606" lon="1.61348">
        <ele>249.6</ele>
        <time>2019-03-17T13:28:22Z</time>
      </trkpt>
      <trkpt lat="44.56059" lon="1.61354">
        <ele>249.5</ele>
        <time>2019-03-17T13:28:27Z</time>
      </trkpt>
      <trkpt lat="44.56058" lon="1.6136">
        <ele>249.3</ele>
        <time>2019-03-17T13:28:32Z</time>
      </trkpt>
      <trkpt lat="44.56056" lon="1.61367">
        <ele>249.6</ele>
        <time>2019-03-17T13:28:37Z</time>
      </trkpt>
      <trkpt lat="44.56054" lon="1.61373">
        <ele>250.4</ele>
        <time>2019-03-17T13:28:41Z</time>
      </trkpt>
      <trkpt lat="44.56056" lon="1.6138">
        <ele>250.4</ele>
        <time>2019-03-17T13:28:48Z</time>
      </trkpt>
      <trkpt lat="44.56055" lon="1.61386">
        <ele>249.9</ele>
        <time>2019-03-17T13:28:53Z</time>
      </trkpt>
      <trkpt lat="44.56052" lon="1.61392">
        <ele>248.6</ele>
        <time>2019-03-17T13:28:59Z</time>
      </trkpt>
      <trkpt lat="44.56049" lon="1.61397">
        <ele>249.3</ele>
        <time>2019-03-17T13:29:06Z</time>
      </trkpt>
      <trkpt lat="44.56045" lon="1.61402">
        <ele>249.2</ele>
        <time>2019-03-17T13:29:10Z</time>
      </trkpt>
      <trkpt lat="44.56042" lon="1.61408">
        <ele>248.9</ele>
        <time>2019-03-17T13:29:15Z</time>
      </trkpt>
      <trkpt lat="44.5604" lon="1.61413">
        <ele>249.1</ele>
        <time>2019-03-17T13:29:18Z</time>
      </trkpt>
      <trkpt lat="44.56037" lon="1.61418">
        <ele>248.6</ele>
        <time>2019-03-17T13:29:21Z</time>
      </trkpt>
      <trkpt lat="44.56033" lon="1.61422">
        <ele>248.6</ele>
        <time>2019-03-17T13:29:26Z</time>
      </trkpt>
      <trkpt lat="44.56028" lon="1.61425">
        <ele>247.9</ele>
        <time>2019-03-17T13:29:32Z</time>
      </trkpt>
      <trkpt lat="44.56024" lon="1.61426">
        <ele>247.7</ele>
        <time>2019-03-17T13:29:36Z</time>
      </trkpt>
      <trkpt lat="44.56018" lon="1.61426">
        <ele>247.8</ele>
        <time>2019-03-17T13:29:41Z</time>
      </trkpt>
      <trkpt lat="44.56014" lon="1.61423">
        <ele>248.1</ele>
        <time>2019-03-17T13:29:45Z</time>
      </trkpt>
      <trkpt lat="44.56009" lon="1.61421">
        <ele>248.8</ele>
        <time>2019-03-17T13:29:49Z</time>
      </trkpt>
      <trkpt lat="44.56004" lon="1.61419">
        <ele>249.7</ele>
        <time>2019-03-17T13:29:55Z</time>
      </trkpt>
      <trkpt lat="44.55999" lon="1.61417">
        <ele>250.8</ele>
        <time>2019-03-17T13:29:58Z</time>
      </trkpt>
      <trkpt lat="44.55994" lon="1.61417">
        <ele>251.4</ele>
        <time>2019-03-17T13:30:01Z</time>
      </trkpt>
      <trkpt lat="44.55989" lon="1.61417">
        <ele>252.3</ele>
        <time>2019-03-17T13:30:04Z</time>
      </trkpt>
      <trkpt lat="44.55984" lon="1.6142">
        <ele>252.5</ele>
        <time>2019-03-17T13:30:07Z</time>
      </trkpt>
      <trkpt lat="44.55981" lon="1.61426">
        <ele>252</ele>
        <time>2019-03-17T13:30:11Z</time>
      </trkpt>
      <trkpt lat="44.55975" lon="1.61427">
        <ele>251.6</ele>
        <time>2019-03-17T13:30:17Z</time>
      </trkpt>
      <trkpt lat="44.5597" lon="1.61428">
        <ele>251.3</ele>
        <time>2019-03-17T13:30:22Z</time>
      </trkpt>
      <trkpt lat="44.55965" lon="1.61428">
        <ele>251.2</ele>
        <time>2019-03-17T13:30:27Z</time>
      </trkpt>
      <trkpt lat="44.5596" lon="1.6143">
        <ele>252.1</ele>
        <time>2019-03-17T13:30:32Z</time>
      </trkpt>
      <trkpt lat="44.55953" lon="1.6143">
        <ele>251.8</ele>
        <time>2019-03-17T13:30:36Z</time>
      </trkpt>
      <trkpt lat="44.55947" lon="1.6143">
        <ele>252.2</ele>
        <time>2019-03-17T13:30:40Z</time>
      </trkpt>
      <trkpt lat="44.55943" lon="1.61431">
        <ele>251.6</ele>
        <time>2019-03-17T13:30:43Z</time>
      </trkpt>
      <trkpt lat="44.55938" lon="1.61433">
        <ele>250.2</ele>
        <time>2019-03-17T13:30:51Z</time>
      </trkpt>
      <trkpt lat="44.55933" lon="1.61432">
        <ele>250.1</ele>
        <time>2019-03-17T13:30:56Z</time>
      </trkpt>
      <trkpt lat="44.55929" lon="1.61435">
        <ele>250.1</ele>
        <time>2019-03-17T13:30:59Z</time>
      </trkpt>
      <trkpt lat="44.55927" lon="1.61442">
        <ele>251</ele>
        <time>2019-03-17T13:31:03Z</time>
      </trkpt>
      <trkpt lat="44.55923" lon="1.61446">
        <ele>251.6</ele>
        <time>2019-03-17T13:31:06Z</time>
      </trkpt>
      <trkpt lat="44.55917" lon="1.61448">
        <ele>252.2</ele>
        <time>2019-03-17T13:31:10Z</time>
      </trkpt>
      <trkpt lat="44.55911" lon="1.61452">
        <ele>252.9</ele>
        <time>2019-03-17T13:31:15Z</time>
      </trkpt>
      <trkpt lat="44.55907" lon="1.61453">
        <ele>252.6</ele>
        <time>2019-03-17T13:31:19Z</time>
      </trkpt>
      <trkpt lat="44.55902" lon="1.61455">
        <ele>252.2</ele>
        <time>2019-03-17T13:31:25Z</time>
      </trkpt>
      <trkpt lat="44.55897" lon="1.61455">
        <ele>248.8</ele>
        <time>2019-03-17T13:31:32Z</time>
      </trkpt>
      <trkpt lat="44.55891" lon="1.61457">
        <ele>247.4</ele>
        <time>2019-03-17T13:31:36Z</time>
      </trkpt>
      <trkpt lat="44.55888" lon="1.61462">
        <ele>247.3</ele>
        <time>2019-03-17T13:31:42Z</time>
      </trkpt>
      <trkpt lat="44.55882" lon="1.61464">
        <ele>246.8</ele>
        <time>2019-03-17T13:31:46Z</time>
      </trkpt>
      <trkpt lat="44.55877" lon="1.61465">
        <ele>246.6</ele>
        <time>2019-03-17T13:31:50Z</time>
      </trkpt>
      <trkpt lat="44.55873" lon="1.6147">
        <ele>247.5</ele>
        <time>2019-03-17T13:31:55Z</time>
      </trkpt>
      <trkpt lat="44.55868" lon="1.61472">
        <ele>246.6</ele>
        <time>2019-03-17T13:32:00Z</time>
      </trkpt>
      <trkpt lat="44.55864" lon="1.61477">
        <ele>245.8</ele>
        <time>2019-03-17T13:32:06Z</time>
      </trkpt>
      <trkpt lat="44.55863" lon="1.61484">
        <ele>246.2</ele>
        <time>2019-03-17T13:32:12Z</time>
      </trkpt>
      <trkpt lat="44.55858" lon="1.6149">
        <ele>246.6</ele>
        <time>2019-03-17T13:32:17Z</time>
      </trkpt>
      <trkpt lat="44.55854" lon="1.61494">
        <ele>246.4</ele>
        <time>2019-03-17T13:32:21Z</time>
      </trkpt>
      <trkpt lat="44.5585" lon="1.61497">
        <ele>245.8</ele>
        <time>2019-03-17T13:32:25Z</time>
      </trkpt>
      <trkpt lat="44.55846" lon="1.61501">
        <ele>245.8</ele>
        <time>2019-03-17T13:32:29Z</time>
      </trkpt>
      <trkpt lat="44.55841" lon="1.61503">
        <ele>243.2</ele>
        <time>2019-03-17T13:32:36Z</time>
      </trkpt>
      <trkpt lat="44.55838" lon="1.6151">
        <ele>244.1</ele>
        <time>2019-03-17T13:32:40Z</time>
      </trkpt>
      <trkpt lat="44.55837" lon="1.61517">
        <ele>245.7</ele>
        <time>2019-03-17T13:32:43Z</time>
      </trkpt>
      <trkpt lat="44.55833" lon="1.61521">
        <ele>246.1</ele>
        <time>2019-03-17T13:32:48Z</time>
      </trkpt>
      <trkpt lat="44.55828" lon="1.61524">
        <ele>246</ele>
        <time>2019-03-17T13:32:52Z</time>
      </trkpt>
      <trkpt lat="44.55824" lon="1.6153">
        <ele>245.8</ele>
        <time>2019-03-17T13:32:55Z</time>
      </trkpt>
      <trkpt lat="44.55822" lon="1.61535">
        <ele>246</ele>
        <time>2019-03-17T13:32:58Z</time>
      </trkpt>
      <trkpt lat="44.55818" lon="1.6154">
        <ele>246.4</ele>
        <time>2019-03-17T13:33:03Z</time>
      </trkpt>
      <trkpt lat="44.55814" lon="1.61543">
        <ele>245.6</ele>
        <time>2019-03-17T13:33:08Z</time>
      </trkpt>
      <trkpt lat="44.55811" lon="1.61548">
        <ele>245</ele>
        <time>2019-03-17T13:33:15Z</time>
      </trkpt>
      <trkpt lat="44.5581" lon="1.61554">
        <ele>244.5</ele>
        <time>2019-03-17T13:33:20Z</time>
      </trkpt>
      <trkpt lat="44.55809" lon="1.61562">
        <ele>244.4</ele>
        <time>2019-03-17T13:33:26Z</time>
      </trkpt>
      <trkpt lat="44.55807" lon="1.61568">
        <ele>244.7</ele>
        <time>2019-03-17T13:33:30Z</time>
      </trkpt>
      <trkpt lat="44.55804" lon="1.61574">
        <ele>245.1</ele>
        <time>2019-03-17T13:33:33Z</time>
      </trkpt>
      <trkpt lat="44.55801" lon="1.6158">
        <ele>244.9</ele>
        <time>2019-03-17T13:33:37Z</time>
      </trkpt>
      <trkpt lat="44.55798" lon="1.61585">
        <ele>245.5</ele>
        <time>2019-03-17T13:33:41Z</time>
      </trkpt>
      <trkpt lat="44.55794" lon="1.61589">
        <ele>245.5</ele>
        <time>2019-03-17T13:33:47Z</time>
      </trkpt>
      <trkpt lat="44.5579" lon="1.61593">
        <ele>243.6</ele>
        <time>2019-03-17T13:33:54Z</time>
      </trkpt>
      <trkpt lat="44.55787" lon="1.61599">
        <ele>242.9</ele>
        <time>2019-03-17T13:33:58Z</time>
      </trkpt>
      <trkpt lat="44.55783" lon="1.61604">
        <ele>243.2</ele>
        <time>2019-03-17T13:34:03Z</time>
      </trkpt>
      <trkpt lat="44.55781" lon="1.6161">
        <ele>243.4</ele>
        <time>2019-03-17T13:34:09Z</time>
      </trkpt>
      <trkpt lat="44.55778" lon="1.61616">
        <ele>243.2</ele>
        <time>2019-03-17T13:34:14Z</time>
      </trkpt>
      <trkpt lat="44.55774" lon="1.61619">
        <ele>242.5</ele>
        <time>2019-03-17T13:34:19Z</time>
      </trkpt>
      <trkpt lat="44.55769" lon="1.61621">
        <ele>242.4</ele>
        <time>2019-03-17T13:34:23Z</time>
      </trkpt>
      <trkpt lat="44.55764" lon="1.61622">
        <ele>242.7</ele>
        <time>2019-03-17T13:34:26Z</time>
      </trkpt>
      <trkpt lat="44.55759" lon="1.61622">
        <ele>243.7</ele>
        <time>2019-03-17T13:34:29Z</time>
      </trkpt>
      <trkpt lat="44.55754" lon="1.61623">
        <ele>244.6</ele>
        <time>2019-03-17T13:34:32Z</time>
      </trkpt>
      <trkpt lat="44.55749" lon="1.61625">
        <ele>244.7</ele>
        <time>2019-03-17T13:34:36Z</time>
      </trkpt>
      <trkpt lat="44.55743" lon="1.61627">
        <ele>246.1</ele>
        <time>2019-03-17T13:34:40Z</time>
      </trkpt>
      <trkpt lat="44.55739" lon="1.61629">
        <ele>247.1</ele>
        <time>2019-03-17T13:34:43Z</time>
      </trkpt>
      <trkpt lat="44.55735" lon="1.61633">
        <ele>246</ele>
        <time>2019-03-17T13:34:49Z</time>
      </trkpt>
      <trkpt lat="44.55732" lon="1.61637">
        <ele>245.6</ele>
        <time>2019-03-17T13:34:53Z</time>
      </trkpt>
      <trkpt lat="44.55729" lon="1.61643">
        <ele>244.8</ele>
        <time>2019-03-17T13:34:58Z</time>
      </trkpt>
      <trkpt lat="44.55726" lon="1.61649">
        <ele>243.6</ele>
        <time>2019-03-17T13:35:06Z</time>
      </trkpt>
      <trkpt lat="44.55724" lon="1.61655">
        <ele>243.7</ele>
        <time>2019-03-17T13:35:12Z</time>
      </trkpt>
      <trkpt lat="44.55724" lon="1.61662">
        <ele>244.3</ele>
        <time>2019-03-17T13:35:19Z</time>
      </trkpt>
      <trkpt lat="44.55724" lon="1.61668">
        <ele>245.7</ele>
        <time>2019-03-17T13:35:22Z</time>
      </trkpt>
      <trkpt lat="44.55722" lon="1.61675">
        <ele>246.4</ele>
        <time>2019-03-17T13:35:27Z</time>
      </trkpt>
      <trkpt lat="44.55722" lon="1.61681">
        <ele>247.2</ele>
        <time>2019-03-17T13:35:32Z</time>
      </trkpt>
      <trkpt lat="44.55723" lon="1.61688">
        <ele>248.2</ele>
        <time>2019-03-17T13:35:36Z</time>
      </trkpt>
      <trkpt lat="44.5572" lon="1.61693">
        <ele>246.9</ele>
        <time>2019-03-17T13:35:41Z</time>
      </trkpt>
      <trkpt lat="44.55717" lon="1.61698">
        <ele>245.8</ele>
        <time>2019-03-17T13:35:49Z</time>
      </trkpt>
      <trkpt lat="44.55712" lon="1.61702">
        <ele>245</ele>
        <time>2019-03-17T13:35:55Z</time>
      </trkpt>
      <trkpt lat="44.55709" lon="1.61707">
        <ele>244.3</ele>
        <time>2019-03-17T13:35:59Z</time>
      </trkpt>
      <trkpt lat="44.55706" lon="1.61712">
        <ele>244.3</ele>
        <time>2019-03-17T13:36:03Z</time>
      </trkpt>
      <trkpt lat="44.55704" lon="1.61718">
        <ele>243.8</ele>
        <time>2019-03-17T13:36:09Z</time>
      </trkpt>
      <trkpt lat="44.55701" lon="1.61725">
        <ele>244.7</ele>
        <time>2019-03-17T13:36:13Z</time>
      </trkpt>
      <trkpt lat="44.55699" lon="1.61732">
        <ele>246.5</ele>
        <time>2019-03-17T13:36:18Z</time>
      </trkpt>
      <trkpt lat="44.55696" lon="1.61738">
        <ele>246.6</ele>
        <time>2019-03-17T13:36:22Z</time>
      </trkpt>
      <trkpt lat="44.55694" lon="1.61745">
        <ele>246.4</ele>
        <time>2019-03-17T13:36:26Z</time>
      </trkpt>
      <trkpt lat="44.55692" lon="1.6175">
        <ele>244.8</ele>
        <time>2019-03-17T13:36:31Z</time>
      </trkpt>
      <trkpt lat="44.5569" lon="1.61757">
        <ele>243.5</ele>
        <time>2019-03-17T13:36:36Z</time>
      </trkpt>
      <trkpt lat="44.55688" lon="1.61763">
        <ele>243</ele>
        <time>2019-03-17T13:36:40Z</time>
      </trkpt>
      <trkpt lat="44.55685" lon="1.61772">
        <ele>242</ele>
        <time>2019-03-17T13:36:44Z</time>
      </trkpt>
      <trkpt lat="44.55685" lon="1.61779">
        <ele>241.6</ele>
        <time>2019-03-17T13:36:48Z</time>
      </trkpt>
      <trkpt lat="44.55684" lon="1.61787">
        <ele>242.4</ele>
        <time>2019-03-17T13:36:53Z</time>
      </trkpt>
      <trkpt lat="44.55683" lon="1.61793">
        <ele>244.2</ele>
        <time>2019-03-17T13:37:02Z</time>
      </trkpt>
      <trkpt lat="44.55681" lon="1.618">
        <ele>244.5</ele>
        <time>2019-03-17T13:37:11Z</time>
      </trkpt>
      <trkpt lat="44.55678" lon="1.61804">
        <ele>242.7</ele>
        <time>2019-03-17T13:37:16Z</time>
      </trkpt>
      <trkpt lat="44.55673" lon="1.61811">
        <ele>242</ele>
        <time>2019-03-17T13:37:20Z</time>
      </trkpt>
      <trkpt lat="44.5567" lon="1.61817">
        <ele>241.9</ele>
        <time>2019-03-17T13:37:23Z</time>
      </trkpt>
      <trkpt lat="44.55666" lon="1.61822">
        <ele>241.8</ele>
        <time>2019-03-17T13:37:26Z</time>
      </trkpt>
      <trkpt lat="44.55662" lon="1.61826">
        <ele>242.1</ele>
        <time>2019-03-17T13:37:31Z</time>
      </trkpt>
      <trkpt lat="44.5566" lon="1.61832">
        <ele>242.2</ele>
        <time>2019-03-17T13:37:34Z</time>
      </trkpt>
      <trkpt lat="44.55658" lon="1.61838">
        <ele>242.6</ele>
        <time>2019-03-17T13:37:37Z</time>
      </trkpt>
      <trkpt lat="44.55658" lon="1.61845">
        <ele>243.4</ele>
        <time>2019-03-17T13:37:42Z</time>
      </trkpt>
      <trkpt lat="44.55655" lon="1.61852">
        <ele>243.5</ele>
        <time>2019-03-17T13:37:47Z</time>
      </trkpt>
      <trkpt lat="44.55652" lon="1.61858">
        <ele>243.7</ele>
        <time>2019-03-17T13:37:50Z</time>
      </trkpt>
      <trkpt lat="44.5565" lon="1.61864">
        <ele>244</ele>
        <time>2019-03-17T13:37:53Z</time>
      </trkpt>
      <trkpt lat="44.55648" lon="1.6187">
        <ele>243.6</ele>
        <time>2019-03-17T13:37:58Z</time>
      </trkpt>
      <trkpt lat="44.55646" lon="1.61877">
        <ele>244.2</ele>
        <time>2019-03-17T13:38:03Z</time>
      </trkpt>
      <trkpt lat="44.55643" lon="1.61882">
        <ele>245.4</ele>
        <time>2019-03-17T13:38:07Z</time>
      </trkpt>
      <trkpt lat="44.55641" lon="1.61888">
        <ele>245.9</ele>
        <time>2019-03-17T13:38:11Z</time>
      </trkpt>
      <trkpt lat="44.55638" lon="1.61894">
        <ele>246.3</ele>
        <time>2019-03-17T13:38:14Z</time>
      </trkpt>
      <trkpt lat="44.55635" lon="1.61901">
        <ele>246.9</ele>
        <time>2019-03-17T13:38:18Z</time>
      </trkpt>
      <trkpt lat="44.55632" lon="1.61906">
        <ele>247</ele>
        <time>2019-03-17T13:38:23Z</time>
      </trkpt>
      <trkpt lat="44.55629" lon="1.61913">
        <ele>246.1</ele>
        <time>2019-03-17T13:38:28Z</time>
      </trkpt>
      <trkpt lat="44.55626" lon="1.61918">
        <ele>245.9</ele>
        <time>2019-03-17T13:38:33Z</time>
      </trkpt>
      <trkpt lat="44.55622" lon="1.61924">
        <ele>246.3</ele>
        <time>2019-03-17T13:38:37Z</time>
      </trkpt>
      <trkpt lat="44.5562" lon="1.6193">
        <ele>246.2</ele>
        <time>2019-03-17T13:38:42Z</time>
      </trkpt>
      <trkpt lat="44.55617" lon="1.61936">
        <ele>246.1</ele>
        <time>2019-03-17T13:38:46Z</time>
      </trkpt>
      <trkpt lat="44.55618" lon="1.61943">
        <ele>245.8</ele>
        <time>2019-03-17T13:38:50Z</time>
      </trkpt>
      <trkpt lat="44.55617" lon="1.61951">
        <ele>245.4</ele>
        <time>2019-03-17T13:38:55Z</time>
      </trkpt>
      <trkpt lat="44.55615" lon="1.61957">
        <ele>245.5</ele>
        <time>2019-03-17T13:39:01Z</time>
      </trkpt>
      <trkpt lat="44.55614" lon="1.61964">
        <ele>246.1</ele>
        <time>2019-03-17T13:39:04Z</time>
      </trkpt>
      <trkpt lat="44.55612" lon="1.6197">
        <ele>246</ele>
        <time>2019-03-17T13:39:08Z</time>
      </trkpt>
      <trkpt lat="44.5561" lon="1.61977">
        <ele>245.8</ele>
        <time>2019-03-17T13:39:13Z</time>
      </trkpt>
      <trkpt lat="44.55606" lon="1.61982">
        <ele>246.4</ele>
        <time>2019-03-17T13:39:18Z</time>
      </trkpt>
      <trkpt lat="44.55603" lon="1.61986">
        <ele>245.5</ele>
        <time>2019-03-17T13:39:23Z</time>
      </trkpt>
      <trkpt lat="44.55599" lon="1.61991">
        <ele>244.7</ele>
        <time>2019-03-17T13:39:29Z</time>
      </trkpt>
      <trkpt lat="44.55596" lon="1.61996">
        <ele>244.5</ele>
        <time>2019-03-17T13:39:33Z</time>
      </trkpt>
      <trkpt lat="44.55591" lon="1.61999">
        <ele>244.5</ele>
        <time>2019-03-17T13:39:37Z</time>
      </trkpt>
      <trkpt lat="44.55586" lon="1.62002">
        <ele>244.3</ele>
        <time>2019-03-17T13:39:41Z</time>
      </trkpt>
      <trkpt lat="44.55582" lon="1.62004">
        <ele>244.6</ele>
        <time>2019-03-17T13:39:47Z</time>
      </trkpt>
      <trkpt lat="44.55578" lon="1.62009">
        <ele>245.5</ele>
        <time>2019-03-17T13:39:51Z</time>
      </trkpt>
      <trkpt lat="44.55574" lon="1.62014">
        <ele>246.8</ele>
        <time>2019-03-17T13:39:54Z</time>
      </trkpt>
      <trkpt lat="44.55569" lon="1.62017">
        <ele>247.5</ele>
        <time>2019-03-17T13:39:58Z</time>
      </trkpt>
      <trkpt lat="44.55565" lon="1.62021">
        <ele>248.3</ele>
        <time>2019-03-17T13:40:01Z</time>
      </trkpt>
      <trkpt lat="44.5556" lon="1.62025">
        <ele>248.7</ele>
        <time>2019-03-17T13:40:05Z</time>
      </trkpt>
      <trkpt lat="44.55554" lon="1.62028">
        <ele>248.8</ele>
        <time>2019-03-17T13:40:10Z</time>
      </trkpt>
      <trkpt lat="44.5555" lon="1.62031">
        <ele>249.2</ele>
        <time>2019-03-17T13:40:14Z</time>
      </trkpt>
      <trkpt lat="44.55545" lon="1.62034">
        <ele>249.2</ele>
        <time>2019-03-17T13:40:18Z</time>
      </trkpt>
      <trkpt lat="44.5554" lon="1.62036">
        <ele>248.2</ele>
        <time>2019-03-17T13:40:23Z</time>
      </trkpt>
      <trkpt lat="44.55536" lon="1.62038">
        <ele>247.9</ele>
        <time>2019-03-17T13:40:27Z</time>
      </trkpt>
      <trkpt lat="44.55531" lon="1.62041">
        <ele>248.1</ele>
        <time>2019-03-17T13:40:31Z</time>
      </trkpt>
      <trkpt lat="44.55527" lon="1.62044">
        <ele>247.5</ele>
        <time>2019-03-17T13:40:36Z</time>
      </trkpt>
      <trkpt lat="44.55522" lon="1.62048">
        <ele>246.7</ele>
        <time>2019-03-17T13:40:41Z</time>
      </trkpt>
      <trkpt lat="44.55518" lon="1.62051">
        <ele>246.3</ele>
        <time>2019-03-17T13:40:45Z</time>
      </trkpt>
      <trkpt lat="44.55514" lon="1.62053">
        <ele>246.8</ele>
        <time>2019-03-17T13:41:00Z</time>
      </trkpt>
      <trkpt lat="44.55509" lon="1.62055">
        <ele>245.8</ele>
        <time>2019-03-17T13:41:26Z</time>
      </trkpt>
      <trkpt lat="44.55505" lon="1.62059">
        <ele>244.9</ele>
        <time>2019-03-17T13:41:31Z</time>
      </trkpt>
      <trkpt lat="44.55499" lon="1.62062">
        <ele>245.2</ele>
        <time>2019-03-17T13:41:38Z</time>
      </trkpt>
      <trkpt lat="44.55493" lon="1.62066">
        <ele>245.7</ele>
        <time>2019-03-17T13:41:41Z</time>
      </trkpt>
      <trkpt lat="44.55489" lon="1.6207">
        <ele>245.7</ele>
        <time>2019-03-17T13:41:45Z</time>
      </trkpt>
      <trkpt lat="44.55485" lon="1.62071">
        <ele>245.1</ele>
        <time>2019-03-17T13:41:51Z</time>
      </trkpt>
      <trkpt lat="44.55482" lon="1.62076">
        <ele>243.7</ele>
        <time>2019-03-17T13:42:03Z</time>
      </trkpt>
      <trkpt lat="44.55484" lon="1.6207">
        <ele>241.8</ele>
        <time>2019-03-17T13:43:31Z</time>
      </trkpt>
      <trkpt lat="44.5548" lon="1.62065">
        <ele>241.3</ele>
        <time>2019-03-17T13:43:34Z</time>
      </trkpt>
      <trkpt lat="44.55476" lon="1.62061">
        <ele>241.8</ele>
        <time>2019-03-17T13:43:40Z</time>
      </trkpt>
      <trkpt lat="44.55478" lon="1.62068">
        <ele>242.4</ele>
        <time>2019-03-17T13:44:17Z</time>
      </trkpt>
      <trkpt lat="44.55477" lon="1.62075">
        <ele>241.4</ele>
        <time>2019-03-17T13:44:30Z</time>
      </trkpt>
      <trkpt lat="44.55474" lon="1.6208">
        <ele>241.8</ele>
        <time>2019-03-17T13:44:35Z</time>
      </trkpt>
      <trkpt lat="44.55469" lon="1.62081">
        <ele>243.1</ele>
        <time>2019-03-17T13:44:39Z</time>
      </trkpt>
      <trkpt lat="44.55464" lon="1.62082">
        <ele>243.6</ele>
        <time>2019-03-17T13:44:43Z</time>
      </trkpt>
      <trkpt lat="44.55459" lon="1.62084">
        <ele>242.9</ele>
        <time>2019-03-17T13:44:47Z</time>
      </trkpt>
      <trkpt lat="44.55454" lon="1.62084">
        <ele>242.6</ele>
        <time>2019-03-17T13:44:51Z</time>
      </trkpt>
      <trkpt lat="44.55448" lon="1.62085">
        <ele>242.6</ele>
        <time>2019-03-17T13:44:55Z</time>
      </trkpt>
      <trkpt lat="44.55443" lon="1.62085">
        <ele>242.6</ele>
        <time>2019-03-17T13:44:59Z</time>
      </trkpt>
      <trkpt lat="44.55437" lon="1.62085">
        <ele>243.2</ele>
        <time>2019-03-17T13:45:03Z</time>
      </trkpt>
      <trkpt lat="44.55432" lon="1.62085">
        <ele>243.7</ele>
        <time>2019-03-17T13:45:07Z</time>
      </trkpt>
      <trkpt lat="44.55428" lon="1.62087">
        <ele>243.6</ele>
        <time>2019-03-17T13:45:11Z</time>
      </trkpt>
      <trkpt lat="44.55422" lon="1.62089">
        <ele>242.7</ele>
        <time>2019-03-17T13:45:15Z</time>
      </trkpt>
      <trkpt lat="44.55416" lon="1.62091">
        <ele>242.2</ele>
        <time>2019-03-17T13:45:19Z</time>
      </trkpt>
      <trkpt lat="44.55412" lon="1.62092">
        <ele>241.8</ele>
        <time>2019-03-17T13:45:22Z</time>
      </trkpt>
      <trkpt lat="44.55406" lon="1.62093">
        <ele>241.2</ele>
        <time>2019-03-17T13:45:26Z</time>
      </trkpt>
      <trkpt lat="44.55401" lon="1.62093">
        <ele>241.6</ele>
        <time>2019-03-17T13:45:30Z</time>
      </trkpt>
      <trkpt lat="44.55396" lon="1.62092">
        <ele>241.3</ele>
        <time>2019-03-17T13:45:35Z</time>
      </trkpt>
      <trkpt lat="44.55391" lon="1.62093">
        <ele>241</ele>
        <time>2019-03-17T13:45:39Z</time>
      </trkpt>
      <trkpt lat="44.55386" lon="1.62091">
        <ele>242.3</ele>
        <time>2019-03-17T13:45:42Z</time>
      </trkpt>
      <trkpt lat="44.55381" lon="1.62089">
        <ele>244.1</ele>
        <time>2019-03-17T13:45:46Z</time>
      </trkpt>
      <trkpt lat="44.55377" lon="1.62085">
        <ele>244.9</ele>
        <time>2019-03-17T13:45:52Z</time>
      </trkpt>
      <trkpt lat="44.55373" lon="1.62081">
        <ele>244.5</ele>
        <time>2019-03-17T13:45:57Z</time>
      </trkpt>
      <trkpt lat="44.55368" lon="1.62077">
        <ele>245.3</ele>
        <time>2019-03-17T13:46:00Z</time>
      </trkpt>
      <trkpt lat="44.55362" lon="1.62072">
        <ele>246.9</ele>
        <time>2019-03-17T13:46:03Z</time>
      </trkpt>
      <trkpt lat="44.55358" lon="1.62068">
        <ele>247.4</ele>
        <time>2019-03-17T13:46:06Z</time>
      </trkpt>
      <trkpt lat="44.55354" lon="1.62063">
        <ele>248.1</ele>
        <time>2019-03-17T13:46:09Z</time>
      </trkpt>
      <trkpt lat="44.5535" lon="1.62058">
        <ele>247.9</ele>
        <time>2019-03-17T13:46:12Z</time>
      </trkpt>
      <trkpt lat="44.55347" lon="1.62052">
        <ele>246.9</ele>
        <time>2019-03-17T13:46:16Z</time>
      </trkpt>
      <trkpt lat="44.55343" lon="1.62046">
        <ele>246.2</ele>
        <time>2019-03-17T13:46:20Z</time>
      </trkpt>
      <trkpt lat="44.5534" lon="1.6204">
        <ele>244.9</ele>
        <time>2019-03-17T13:46:24Z</time>
      </trkpt>
      <trkpt lat="44.55336" lon="1.62035">
        <ele>244.2</ele>
        <time>2019-03-17T13:46:27Z</time>
      </trkpt>
      <trkpt lat="44.55332" lon="1.6203">
        <ele>245</ele>
        <time>2019-03-17T13:46:30Z</time>
      </trkpt>
      <trkpt lat="44.55328" lon="1.62026">
        <ele>245.6</ele>
        <time>2019-03-17T13:46:34Z</time>
      </trkpt>
      <trkpt lat="44.55326" lon="1.6202">
        <ele>244.7</ele>
        <time>2019-03-17T13:46:38Z</time>
      </trkpt>
      <trkpt lat="44.55324" lon="1.62013">
        <ele>243.7</ele>
        <time>2019-03-17T13:46:42Z</time>
      </trkpt>
      <trkpt lat="44.55324" lon="1.62006">
        <ele>243.2</ele>
        <time>2019-03-17T13:46:46Z</time>
      </trkpt>
      <trkpt lat="44.55324" lon="1.61999">
        <ele>243</ele>
        <time>2019-03-17T13:46:50Z</time>
      </trkpt>
      <trkpt lat="44.55321" lon="1.61993">
        <ele>243.4</ele>
        <time>2019-03-17T13:46:55Z</time>
      </trkpt>
      <trkpt lat="44.55318" lon="1.61988">
        <ele>242.8</ele>
        <time>2019-03-17T13:47:00Z</time>
      </trkpt>
      <trkpt lat="44.55314" lon="1.61986">
        <ele>244.2</ele>
        <time>2019-03-17T13:47:04Z</time>
      </trkpt>
      <trkpt lat="44.55309" lon="1.61983">
        <ele>245.4</ele>
        <time>2019-03-17T13:47:09Z</time>
      </trkpt>
      <trkpt lat="44.55304" lon="1.61983">
        <ele>245.2</ele>
        <time>2019-03-17T13:47:14Z</time>
      </trkpt>
      <trkpt lat="44.553" lon="1.61985">
        <ele>245.1</ele>
        <time>2019-03-17T13:47:19Z</time>
      </trkpt>
      <trkpt lat="44.55295" lon="1.61988">
        <ele>244.8</ele>
        <time>2019-03-17T13:47:25Z</time>
      </trkpt>
      <trkpt lat="44.5529" lon="1.61991">
        <ele>244.3</ele>
        <time>2019-03-17T13:47:32Z</time>
      </trkpt>
      <trkpt lat="44.55285" lon="1.61995">
        <ele>244.3</ele>
        <time>2019-03-17T13:47:36Z</time>
      </trkpt>
      <trkpt lat="44.55281" lon="1.61997">
        <ele>244.8</ele>
        <time>2019-03-17T13:47:40Z</time>
      </trkpt>
      <trkpt lat="44.55276" lon="1.61998">
        <ele>244.9</ele>
        <time>2019-03-17T13:47:45Z</time>
      </trkpt>
      <trkpt lat="44.55271" lon="1.61999">
        <ele>245.1</ele>
        <time>2019-03-17T13:47:49Z</time>
      </trkpt>
      <trkpt lat="44.55266" lon="1.61999">
        <ele>244.9</ele>
        <time>2019-03-17T13:47:53Z</time>
      </trkpt>
      <trkpt lat="44.55262" lon="1.62001">
        <ele>244.3</ele>
        <time>2019-03-17T13:47:58Z</time>
      </trkpt>
      <trkpt lat="44.55257" lon="1.62002">
        <ele>243.6</ele>
        <time>2019-03-17T13:48:05Z</time>
      </trkpt>
      <trkpt lat="44.55253" lon="1.62005">
        <ele>243.8</ele>
        <time>2019-03-17T13:48:13Z</time>
      </trkpt>
      <trkpt lat="44.55248" lon="1.62004">
        <ele>243</ele>
        <time>2019-03-17T13:48:19Z</time>
      </trkpt>
      <trkpt lat="44.55243" lon="1.62004">
        <ele>242.5</ele>
        <time>2019-03-17T13:48:23Z</time>
      </trkpt>
      <trkpt lat="44.55239" lon="1.62005">
        <ele>243.8</ele>
        <time>2019-03-17T13:48:33Z</time>
      </trkpt>
      <trkpt lat="44.55234" lon="1.62006">
        <ele>244.6</ele>
        <time>2019-03-17T13:48:37Z</time>
      </trkpt>
      <trkpt lat="44.55228" lon="1.62007">
        <ele>244.5</ele>
        <time>2019-03-17T13:48:41Z</time>
      </trkpt>
      <trkpt lat="44.55223" lon="1.62008">
        <ele>244.4</ele>
        <time>2019-03-17T13:48:45Z</time>
      </trkpt>
      <trkpt lat="44.55218" lon="1.62008">
        <ele>244</ele>
        <time>2019-03-17T13:48:50Z</time>
      </trkpt>
      <trkpt lat="44.55213" lon="1.62008">
        <ele>243.5</ele>
        <time>2019-03-17T13:49:01Z</time>
      </trkpt>
      <trkpt lat="44.55207" lon="1.62008">
        <ele>243.4</ele>
        <time>2019-03-17T13:49:11Z</time>
      </trkpt>
      <trkpt lat="44.55202" lon="1.62008">
        <ele>243.6</ele>
        <time>2019-03-17T13:49:14Z</time>
      </trkpt>
      <trkpt lat="44.55196" lon="1.62008">
        <ele>243.3</ele>
        <time>2019-03-17T13:49:18Z</time>
      </trkpt>
      <trkpt lat="44.55192" lon="1.62008">
        <ele>243</ele>
        <time>2019-03-17T13:49:25Z</time>
      </trkpt>
      <trkpt lat="44.55187" lon="1.62012">
        <ele>243.9</ele>
        <time>2019-03-17T13:49:29Z</time>
      </trkpt>
      <trkpt lat="44.55182" lon="1.62014">
        <ele>243.9</ele>
        <time>2019-03-17T13:49:33Z</time>
      </trkpt>
      <trkpt lat="44.55178" lon="1.62016">
        <ele>243.3</ele>
        <time>2019-03-17T13:49:37Z</time>
      </trkpt>
      <trkpt lat="44.55173" lon="1.62018">
        <ele>243.7</ele>
        <time>2019-03-17T13:49:41Z</time>
      </trkpt>
      <trkpt lat="44.55168" lon="1.6202">
        <ele>243.1</ele>
        <time>2019-03-17T13:49:45Z</time>
      </trkpt>
      <trkpt lat="44.55163" lon="1.62021">
        <ele>242.8</ele>
        <time>2019-03-17T13:49:52Z</time>
      </trkpt>
      <trkpt lat="44.55158" lon="1.62024">
        <ele>243</ele>
        <time>2019-03-17T13:50:00Z</time>
      </trkpt>
      <trkpt lat="44.55153" lon="1.62026">
        <ele>244.3</ele>
        <time>2019-03-17T13:50:07Z</time>
      </trkpt>
      <trkpt lat="44.5515" lon="1.6203">
        <ele>244.8</ele>
        <time>2019-03-17T13:50:12Z</time>
      </trkpt>
      <trkpt lat="44.55146" lon="1.62035">
        <ele>246.1</ele>
        <time>2019-03-17T13:50:16Z</time>
      </trkpt>
      <trkpt lat="44.55141" lon="1.62038">
        <ele>246.6</ele>
        <time>2019-03-17T13:50:21Z</time>
      </trkpt>
      <trkpt lat="44.55137" lon="1.62043">
        <ele>246.9</ele>
        <time>2019-03-17T13:50:29Z</time>
      </trkpt>
      <trkpt lat="44.55134" lon="1.62048">
        <ele>245.6</ele>
        <time>2019-03-17T13:50:34Z</time>
      </trkpt>
      <trkpt lat="44.55131" lon="1.62053">
        <ele>244.9</ele>
        <time>2019-03-17T13:50:40Z</time>
      </trkpt>
      <trkpt lat="44.55128" lon="1.62059">
        <ele>245.6</ele>
        <time>2019-03-17T13:50:43Z</time>
      </trkpt>
      <trkpt lat="44.55125" lon="1.62064">
        <ele>245.9</ele>
        <time>2019-03-17T13:50:48Z</time>
      </trkpt>
      <trkpt lat="44.5512" lon="1.62066">
        <ele>245.4</ele>
        <time>2019-03-17T13:50:52Z</time>
      </trkpt>
      <trkpt lat="44.55117" lon="1.6207">
        <ele>244</ele>
        <time>2019-03-17T13:50:57Z</time>
      </trkpt>
      <trkpt lat="44.55112" lon="1.62074">
        <ele>244.3</ele>
        <time>2019-03-17T13:51:03Z</time>
      </trkpt>
      <trkpt lat="44.55107" lon="1.62072">
        <ele>242.6</ele>
        <time>2019-03-17T13:51:40Z</time>
      </trkpt>
      <trkpt lat="44.55103" lon="1.62075">
        <ele>244.1</ele>
        <time>2019-03-17T13:51:47Z</time>
      </trkpt>
      <trkpt lat="44.55098" lon="1.62075">
        <ele>243.4</ele>
        <time>2019-03-17T13:51:51Z</time>
      </trkpt>
      <trkpt lat="44.55093" lon="1.62075">
        <ele>242</ele>
        <time>2019-03-17T13:51:54Z</time>
      </trkpt>
      <trkpt lat="44.55088" lon="1.62077">
        <ele>240.4</ele>
        <time>2019-03-17T13:51:59Z</time>
      </trkpt>
      <trkpt lat="44.55084" lon="1.6208">
        <ele>239.9</ele>
        <time>2019-03-17T13:52:07Z</time>
      </trkpt>
      <trkpt lat="44.55079" lon="1.62083">
        <ele>240.6</ele>
        <time>2019-03-17T13:52:13Z</time>
      </trkpt>
      <trkpt lat="44.55075" lon="1.62087">
        <ele>240.4</ele>
        <time>2019-03-17T13:52:16Z</time>
      </trkpt>
      <trkpt lat="44.55071" lon="1.62094">
        <ele>240.8</ele>
        <time>2019-03-17T13:52:19Z</time>
      </trkpt>
      <trkpt lat="44.55067" lon="1.62098">
        <ele>242.2</ele>
        <time>2019-03-17T13:52:24Z</time>
      </trkpt>
      <trkpt lat="44.55064" lon="1.62103">
        <ele>244.2</ele>
        <time>2019-03-17T13:52:30Z</time>
      </trkpt>
      <trkpt lat="44.55061" lon="1.62109">
        <ele>245.7</ele>
        <time>2019-03-17T13:52:39Z</time>
      </trkpt>
      <trkpt lat="44.55057" lon="1.62112">
        <ele>245.9</ele>
        <time>2019-03-17T13:52:56Z</time>
      </trkpt>
      <trkpt lat="44.55053" lon="1.62115">
        <ele>245.1</ele>
        <time>2019-03-17T13:53:10Z</time>
      </trkpt>
      <trkpt lat="44.55048" lon="1.62117">
        <ele>245.6</ele>
        <time>2019-03-17T13:53:14Z</time>
      </trkpt>
      <trkpt lat="44.55043" lon="1.6212">
        <ele>246</ele>
        <time>2019-03-17T13:53:21Z</time>
      </trkpt>
      <trkpt lat="44.55039" lon="1.62121">
        <ele>246</ele>
        <time>2019-03-17T13:53:26Z</time>
      </trkpt>
      <trkpt lat="44.55033" lon="1.62121">
        <ele>244.8</ele>
        <time>2019-03-17T13:53:30Z</time>
      </trkpt>
      <trkpt lat="44.55028" lon="1.62122">
        <ele>242.9</ele>
        <time>2019-03-17T13:53:35Z</time>
      </trkpt>
      <trkpt lat="44.55024" lon="1.62125">
        <ele>242</ele>
        <time>2019-03-17T13:53:47Z</time>
      </trkpt>
      <trkpt lat="44.55019" lon="1.62127">
        <ele>240.2</ele>
        <time>2019-03-17T13:53:55Z</time>
      </trkpt>
      <trkpt lat="44.55013" lon="1.62129">
        <ele>239.2</ele>
        <time>2019-03-17T13:53:58Z</time>
      </trkpt>
      <trkpt lat="44.55007" lon="1.62131">
        <ele>238.8</ele>
        <time>2019-03-17T13:54:01Z</time>
      </trkpt>
      <trkpt lat="44.55002" lon="1.62133">
        <ele>239</ele>
        <time>2019-03-17T13:54:04Z</time>
      </trkpt>
      <trkpt lat="44.54997" lon="1.62135">
        <ele>239</ele>
        <time>2019-03-17T13:54:07Z</time>
      </trkpt>
      <trkpt lat="44.54993" lon="1.62138">
        <ele>238.8</ele>
        <time>2019-03-17T13:54:11Z</time>
      </trkpt>
      <trkpt lat="44.54988" lon="1.62141">
        <ele>239</ele>
        <time>2019-03-17T13:54:15Z</time>
      </trkpt>
      <trkpt lat="44.54982" lon="1.62143">
        <ele>239.2</ele>
        <time>2019-03-17T13:54:19Z</time>
      </trkpt>
      <trkpt lat="44.54979" lon="1.62149">
        <ele>240</ele>
        <time>2019-03-17T13:54:26Z</time>
      </trkpt>
      <trkpt lat="44.54976" lon="1.62155">
        <ele>239.1</ele>
        <time>2019-03-17T13:54:32Z</time>
      </trkpt>
      <trkpt lat="44.54972" lon="1.62159">
        <ele>239</ele>
        <time>2019-03-17T13:54:36Z</time>
      </trkpt>
      <trkpt lat="44.54967" lon="1.62162">
        <ele>238.2</ele>
        <time>2019-03-17T13:54:42Z</time>
      </trkpt>
      <trkpt lat="44.54963" lon="1.62167">
        <ele>237.2</ele>
        <time>2019-03-17T13:54:54Z</time>
      </trkpt>
      <trkpt lat="44.54958" lon="1.62169">
        <ele>237</ele>
        <time>2019-03-17T13:55:01Z</time>
      </trkpt>
      <trkpt lat="44.54954" lon="1.62169">
        <ele>234.6</ele>
        <time>2019-03-17T13:55:17Z</time>
      </trkpt>
      <trkpt lat="44.54952" lon="1.62162">
        <ele>233.8</ele>
        <time>2019-03-17T13:55:56Z</time>
      </trkpt>
      <trkpt lat="44.5495" lon="1.62155">
        <ele>233.6</ele>
        <time>2019-03-17T13:56:00Z</time>
      </trkpt>
      <trkpt lat="44.54947" lon="1.62149">
        <ele>233</ele>
        <time>2019-03-17T13:56:03Z</time>
      </trkpt>
      <trkpt lat="44.54945" lon="1.62144">
        <ele>233.5</ele>
        <time>2019-03-17T13:56:07Z</time>
      </trkpt>
      <trkpt lat="44.54942" lon="1.62137">
        <ele>233.7</ele>
        <time>2019-03-17T13:56:12Z</time>
      </trkpt>
      <trkpt lat="44.5494" lon="1.62131">
        <ele>234.9</ele>
        <time>2019-03-17T13:56:17Z</time>
      </trkpt>
      <trkpt lat="44.5494" lon="1.62124">
        <ele>234</ele>
        <time>2019-03-17T13:56:21Z</time>
      </trkpt>
      <trkpt lat="44.54938" lon="1.62118">
        <ele>233.5</ele>
        <time>2019-03-17T13:56:25Z</time>
      </trkpt>
      <trkpt lat="44.54935" lon="1.62111">
        <ele>234.7</ele>
        <time>2019-03-17T13:56:30Z</time>
      </trkpt>
      <trkpt lat="44.54931" lon="1.62106">
        <ele>236.2</ele>
        <time>2019-03-17T13:56:34Z</time>
      </trkpt>
      <trkpt lat="44.54928" lon="1.621">
        <ele>237.1</ele>
        <time>2019-03-17T13:56:38Z</time>
      </trkpt>
      <trkpt lat="44.54925" lon="1.62094">
        <ele>238.3</ele>
        <time>2019-03-17T13:56:46Z</time>
      </trkpt>
      <trkpt lat="44.54923" lon="1.62087">
        <ele>239</ele>
        <time>2019-03-17T13:56:49Z</time>
      </trkpt>
      <trkpt lat="44.54919" lon="1.62083">
        <ele>240.5</ele>
        <time>2019-03-17T13:56:59Z</time>
      </trkpt>
      <trkpt lat="44.54914" lon="1.62078">
        <ele>241.2</ele>
        <time>2019-03-17T13:57:10Z</time>
      </trkpt>
      <trkpt lat="44.54909" lon="1.62075">
        <ele>241.2</ele>
        <time>2019-03-17T13:57:13Z</time>
      </trkpt>
      <trkpt lat="44.54904" lon="1.62072">
        <ele>241.9</ele>
        <time>2019-03-17T13:57:16Z</time>
      </trkpt>
      <trkpt lat="44.54899" lon="1.62069">
        <ele>242.9</ele>
        <time>2019-03-17T13:57:20Z</time>
      </trkpt>
      <trkpt lat="44.54894" lon="1.62067">
        <ele>242.1</ele>
        <time>2019-03-17T13:57:24Z</time>
      </trkpt>
      <trkpt lat="44.54889" lon="1.62068">
        <ele>241.8</ele>
        <time>2019-03-17T13:57:28Z</time>
      </trkpt>
      <trkpt lat="44.54885" lon="1.62071">
        <ele>241.7</ele>
        <time>2019-03-17T13:57:31Z</time>
      </trkpt>
      <trkpt lat="44.5488" lon="1.62069">
        <ele>240.7</ele>
        <time>2019-03-17T13:57:36Z</time>
      </trkpt>
      <trkpt lat="44.54875" lon="1.6207">
        <ele>240.2</ele>
        <time>2019-03-17T13:57:41Z</time>
      </trkpt>
      <trkpt lat="44.5487" lon="1.62073">
        <ele>239.8</ele>
        <time>2019-03-17T13:57:46Z</time>
      </trkpt>
      <trkpt lat="44.54866" lon="1.62076">
        <ele>239.8</ele>
        <time>2019-03-17T13:57:56Z</time>
      </trkpt>
      <trkpt lat="44.54863" lon="1.6208">
        <ele>240.2</ele>
        <time>2019-03-17T13:58:12Z</time>
      </trkpt>
      <trkpt lat="44.54858" lon="1.62081">
        <ele>239</ele>
        <time>2019-03-17T13:58:18Z</time>
      </trkpt>
      <trkpt lat="44.54852" lon="1.62083">
        <ele>238.3</ele>
        <time>2019-03-17T13:58:22Z</time>
      </trkpt>
      <trkpt lat="44.54847" lon="1.62085">
        <ele>237.9</ele>
        <time>2019-03-17T13:58:26Z</time>
      </trkpt>
      <trkpt lat="44.54841" lon="1.62087">
        <ele>236.7</ele>
        <time>2019-03-17T13:58:30Z</time>
      </trkpt>
      <trkpt lat="44.54837" lon="1.62087">
        <ele>236.3</ele>
        <time>2019-03-17T13:58:34Z</time>
      </trkpt>
      <trkpt lat="44.54832" lon="1.62088">
        <ele>235.8</ele>
        <time>2019-03-17T13:58:38Z</time>
      </trkpt>
      <trkpt lat="44.54827" lon="1.62091">
        <ele>235.6</ele>
        <time>2019-03-17T13:58:42Z</time>
      </trkpt>
      <trkpt lat="44.54822" lon="1.62093">
        <ele>234.1</ele>
        <time>2019-03-17T13:58:47Z</time>
      </trkpt>
      <trkpt lat="44.54817" lon="1.62095">
        <ele>233.3</ele>
        <time>2019-03-17T13:58:50Z</time>
      </trkpt>
      <trkpt lat="44.54812" lon="1.62096">
        <ele>231.7</ele>
        <time>2019-03-17T13:58:54Z</time>
      </trkpt>
      <trkpt lat="44.54807" lon="1.62095">
        <ele>230.4</ele>
        <time>2019-03-17T13:58:57Z</time>
      </trkpt>
      <trkpt lat="44.54802" lon="1.62094">
        <ele>229.6</ele>
        <time>2019-03-17T13:59:01Z</time>
      </trkpt>
      <trkpt lat="44.54796" lon="1.62093">
        <ele>229.1</ele>
        <time>2019-03-17T13:59:04Z</time>
      </trkpt>
      <trkpt lat="44.54795" lon="1.62086">
        <ele>227.7</ele>
        <time>2019-03-17T13:59:09Z</time>
      </trkpt>
      <trkpt lat="44.54794" lon="1.6208">
        <ele>227.2</ele>
        <time>2019-03-17T13:59:16Z</time>
      </trkpt>
      <trkpt lat="44.54791" lon="1.62074">
        <ele>228.8</ele>
        <time>2019-03-17T13:59:22Z</time>
      </trkpt>
      <trkpt lat="44.54791" lon="1.62066">
        <ele>228.9</ele>
        <time>2019-03-17T13:59:27Z</time>
      </trkpt>
      <trkpt lat="44.54794" lon="1.62061">
        <ele>228.3</ele>
        <time>2019-03-17T13:59:32Z</time>
      </trkpt>
      <trkpt lat="44.54799" lon="1.62058">
        <ele>228.1</ele>
        <time>2019-03-17T13:59:36Z</time>
      </trkpt>
      <trkpt lat="44.54803" lon="1.62055">
        <ele>227.6</ele>
        <time>2019-03-17T13:59:40Z</time>
      </trkpt>
      <trkpt lat="44.54807" lon="1.6205">
        <ele>226.9</ele>
        <time>2019-03-17T13:59:43Z</time>
      </trkpt>
      <trkpt lat="44.5481" lon="1.62046">
        <ele>223.5</ele>
        <time>2019-03-17T13:59:49Z</time>
      </trkpt>
      <trkpt lat="44.54814" lon="1.6204">
        <ele>221.3</ele>
        <time>2019-03-17T13:59:57Z</time>
      </trkpt>
      <trkpt lat="44.54818" lon="1.62036">
        <ele>220.1</ele>
        <time>2019-03-17T14:00:03Z</time>
      </trkpt>
      <trkpt lat="44.54824" lon="1.62026">
        <ele>219.5</ele>
        <time>2019-03-17T14:00:11Z</time>
      </trkpt>
      <trkpt lat="44.54828" lon="1.62021">
        <ele>220.1</ele>
        <time>2019-03-17T14:00:16Z</time>
      </trkpt>
      <trkpt lat="44.54832" lon="1.62016">
        <ele>220.4</ele>
        <time>2019-03-17T14:00:21Z</time>
      </trkpt>
      <trkpt lat="44.54834" lon="1.62009">
        <ele>220.1</ele>
        <time>2019-03-17T14:00:24Z</time>
      </trkpt>
      <trkpt lat="44.54834" lon="1.62002">
        <ele>219.8</ele>
        <time>2019-03-17T14:00:28Z</time>
      </trkpt>
      <trkpt lat="44.54836" lon="1.61996">
        <ele>220.5</ele>
        <time>2019-03-17T14:00:35Z</time>
      </trkpt>
      <trkpt lat="44.54836" lon="1.61989">
        <ele>220.6</ele>
        <time>2019-03-17T14:00:41Z</time>
      </trkpt>
      <trkpt lat="44.54836" lon="1.61983">
        <ele>220.4</ele>
        <time>2019-03-17T14:00:44Z</time>
      </trkpt>
      <trkpt lat="44.54836" lon="1.61975">
        <ele>220.5</ele>
        <time>2019-03-17T14:00:49Z</time>
      </trkpt>
      <trkpt lat="44.54836" lon="1.61968">
        <ele>220.6</ele>
        <time>2019-03-17T14:00:54Z</time>
      </trkpt>
      <trkpt lat="44.54839" lon="1.61963">
        <ele>222.1</ele>
        <time>2019-03-17T14:01:01Z</time>
      </trkpt>
      <trkpt lat="44.54837" lon="1.61953">
        <ele>225.7</ele>
        <time>2019-03-17T14:01:41Z</time>
      </trkpt>
      <trkpt lat="44.54838" lon="1.61945">
        <ele>226.3</ele>
        <time>2019-03-17T14:01:44Z</time>
      </trkpt>
      <trkpt lat="44.54838" lon="1.61938">
        <ele>226.1</ele>
        <time>2019-03-17T14:01:48Z</time>
      </trkpt>
      <trkpt lat="44.54838" lon="1.6193">
        <ele>224.2</ele>
        <time>2019-03-17T14:01:58Z</time>
      </trkpt>
      <trkpt lat="44.54837" lon="1.61921">
        <ele>223.7</ele>
        <time>2019-03-17T14:02:02Z</time>
      </trkpt>
      <trkpt lat="44.54836" lon="1.61915">
        <ele>223.5</ele>
        <time>2019-03-17T14:02:05Z</time>
      </trkpt>
      <trkpt lat="44.54836" lon="1.61908">
        <ele>223.4</ele>
        <time>2019-03-17T14:02:09Z</time>
      </trkpt>
      <trkpt lat="44.54837" lon="1.61901">
        <ele>223.8</ele>
        <time>2019-03-17T14:02:14Z</time>
      </trkpt>
      <trkpt lat="44.54836" lon="1.61894">
        <ele>224.8</ele>
        <time>2019-03-17T14:02:23Z</time>
      </trkpt>
      <trkpt lat="44.54836" lon="1.61887">
        <ele>224.8</ele>
        <time>2019-03-17T14:02:26Z</time>
      </trkpt>
      <trkpt lat="44.54835" lon="1.61879">
        <ele>225.4</ele>
        <time>2019-03-17T14:02:29Z</time>
      </trkpt>
      <trkpt lat="44.54835" lon="1.61871">
        <ele>226.6</ele>
        <time>2019-03-17T14:02:32Z</time>
      </trkpt>
      <trkpt lat="44.54835" lon="1.61865">
        <ele>228.5</ele>
        <time>2019-03-17T14:02:36Z</time>
      </trkpt>
      <trkpt lat="44.54834" lon="1.61859">
        <ele>230.4</ele>
        <time>2019-03-17T14:02:40Z</time>
      </trkpt>
      <trkpt lat="44.54832" lon="1.61853">
        <ele>232.5</ele>
        <time>2019-03-17T14:02:44Z</time>
      </trkpt>
      <trkpt lat="44.54827" lon="1.61848">
        <ele>233.6</ele>
        <time>2019-03-17T14:02:48Z</time>
      </trkpt>
      <trkpt lat="44.54824" lon="1.61842">
        <ele>233</ele>
        <time>2019-03-17T14:02:54Z</time>
      </trkpt>
      <trkpt lat="44.5482" lon="1.61838">
        <ele>230.1</ele>
        <time>2019-03-17T14:03:01Z</time>
      </trkpt>
      <trkpt lat="44.54817" lon="1.61833">
        <ele>228.7</ele>
        <time>2019-03-17T14:03:10Z</time>
      </trkpt>
      <trkpt lat="44.54813" lon="1.61829">
        <ele>228.9</ele>
        <time>2019-03-17T14:03:14Z</time>
      </trkpt>
      <trkpt lat="44.54809" lon="1.61825">
        <ele>230.5</ele>
        <time>2019-03-17T14:03:17Z</time>
      </trkpt>
      <trkpt lat="44.54805" lon="1.6182">
        <ele>231.3</ele>
        <time>2019-03-17T14:03:20Z</time>
      </trkpt>
      <trkpt lat="44.548" lon="1.61815">
        <ele>231.4</ele>
        <time>2019-03-17T14:03:24Z</time>
      </trkpt>
      <trkpt lat="44.54795" lon="1.61812">
        <ele>231.7</ele>
        <time>2019-03-17T14:03:28Z</time>
      </trkpt>
      <trkpt lat="44.54791" lon="1.61811">
        <ele>231.9</ele>
        <time>2019-03-17T14:03:31Z</time>
      </trkpt>
      <trkpt lat="44.54787" lon="1.61809">
        <ele>231.1</ele>
        <time>2019-03-17T14:03:35Z</time>
      </trkpt>
      <trkpt lat="44.54782" lon="1.61807">
        <ele>231</ele>
        <time>2019-03-17T14:03:40Z</time>
      </trkpt>
      <trkpt lat="44.54776" lon="1.61805">
        <ele>231</ele>
        <time>2019-03-17T14:03:44Z</time>
      </trkpt>
      <trkpt lat="44.54771" lon="1.61805">
        <ele>231.7</ele>
        <time>2019-03-17T14:03:48Z</time>
      </trkpt>
      <trkpt lat="44.54766" lon="1.61804">
        <ele>233.6</ele>
        <time>2019-03-17T14:03:52Z</time>
      </trkpt>
      <trkpt lat="44.54762" lon="1.61802">
        <ele>233.7</ele>
        <time>2019-03-17T14:03:56Z</time>
      </trkpt>
      <trkpt lat="44.54758" lon="1.61796">
        <ele>231.8</ele>
        <time>2019-03-17T14:04:01Z</time>
      </trkpt>
      <trkpt lat="44.54756" lon="1.6179">
        <ele>231.3</ele>
        <time>2019-03-17T14:04:06Z</time>
      </trkpt>
      <trkpt lat="44.54755" lon="1.61783">
        <ele>229.6</ele>
        <time>2019-03-17T14:04:11Z</time>
      </trkpt>
      <trkpt lat="44.54754" lon="1.61775">
        <ele>228</ele>
        <time>2019-03-17T14:04:21Z</time>
      </trkpt>
      <trkpt lat="44.54753" lon="1.61769">
        <ele>227.6</ele>
        <time>2019-03-17T14:04:24Z</time>
      </trkpt>
      <trkpt lat="44.54751" lon="1.61763">
        <ele>227.6</ele>
        <time>2019-03-17T14:04:26Z</time>
      </trkpt>
      <trkpt lat="44.5475" lon="1.61756">
        <ele>228</ele>
        <time>2019-03-17T14:04:30Z</time>
      </trkpt>
      <trkpt lat="44.54749" lon="1.61747">
        <ele>227.5</ele>
        <time>2019-03-17T14:04:34Z</time>
      </trkpt>
      <trkpt lat="44.54749" lon="1.61741">
        <ele>224.9</ele>
        <time>2019-03-17T14:04:38Z</time>
      </trkpt>
      <trkpt lat="44.54748" lon="1.61733">
        <ele>222.1</ele>
        <time>2019-03-17T14:04:43Z</time>
      </trkpt>
      <trkpt lat="44.54746" lon="1.61725">
        <ele>222.6</ele>
        <time>2019-03-17T14:04:46Z</time>
      </trkpt>
      <trkpt lat="44.54744" lon="1.61718">
        <ele>223.4</ele>
        <time>2019-03-17T14:04:49Z</time>
      </trkpt>
      <trkpt lat="44.54742" lon="1.61712">
        <ele>224.5</ele>
        <time>2019-03-17T14:04:52Z</time>
      </trkpt>
      <trkpt lat="44.5474" lon="1.61706">
        <ele>225.7</ele>
        <time>2019-03-17T14:04:55Z</time>
      </trkpt>
      <trkpt lat="44.54737" lon="1.617">
        <ele>226.5</ele>
        <time>2019-03-17T14:04:58Z</time>
      </trkpt>
      <trkpt lat="44.54735" lon="1.61694">
        <ele>227.1</ele>
        <time>2019-03-17T14:05:00Z</time>
      </trkpt>
      <trkpt lat="44.54732" lon="1.61689">
        <ele>227.3</ele>
        <time>2019-03-17T14:05:08Z</time>
      </trkpt>
      <trkpt lat="44.54728" lon="1.61683">
        <ele>228.1</ele>
        <time>2019-03-17T14:05:13Z</time>
      </trkpt>
      <trkpt lat="44.54724" lon="1.61678">
        <ele>229.1</ele>
        <time>2019-03-17T14:05:17Z</time>
      </trkpt>
      <trkpt lat="44.5472" lon="1.61674">
        <ele>230.1</ele>
        <time>2019-03-17T14:05:21Z</time>
      </trkpt>
      <trkpt lat="44.54715" lon="1.61672">
        <ele>228.5</ele>
        <time>2019-03-17T14:05:28Z</time>
      </trkpt>
      <trkpt lat="44.5471" lon="1.61669">
        <ele>228.8</ele>
        <time>2019-03-17T14:05:32Z</time>
      </trkpt>
      <trkpt lat="44.54705" lon="1.61668">
        <ele>227.5</ele>
        <time>2019-03-17T14:05:38Z</time>
      </trkpt>
      <trkpt lat="44.54701" lon="1.61667">
        <ele>226.8</ele>
        <time>2019-03-17T14:05:42Z</time>
      </trkpt>
      <trkpt lat="44.54696" lon="1.61666">
        <ele>225.5</ele>
        <time>2019-03-17T14:05:48Z</time>
      </trkpt>
      <trkpt lat="44.54691" lon="1.61664">
        <ele>225.2</ele>
        <time>2019-03-17T14:05:52Z</time>
      </trkpt>
      <trkpt lat="44.54686" lon="1.61663">
        <ele>224.7</ele>
        <time>2019-03-17T14:05:56Z</time>
      </trkpt>
      <trkpt lat="44.54681" lon="1.61663">
        <ele>224.3</ele>
        <time>2019-03-17T14:06:00Z</time>
      </trkpt>
      <trkpt lat="44.54677" lon="1.61667">
        <ele>223.5</ele>
        <time>2019-03-17T14:06:07Z</time>
      </trkpt>
      <trkpt lat="44.5467" lon="1.61666">
        <ele>223.7</ele>
        <time>2019-03-17T14:06:19Z</time>
      </trkpt>
      <trkpt lat="44.54666" lon="1.61666">
        <ele>223.3</ele>
        <time>2019-03-17T14:06:22Z</time>
      </trkpt>
      <trkpt lat="44.54661" lon="1.61665">
        <ele>222.8</ele>
        <time>2019-03-17T14:06:25Z</time>
      </trkpt>
      <trkpt lat="44.54655" lon="1.61664">
        <ele>222.5</ele>
        <time>2019-03-17T14:06:28Z</time>
      </trkpt>
      <trkpt lat="44.5465" lon="1.61664">
        <ele>223</ele>
        <time>2019-03-17T14:06:32Z</time>
      </trkpt>
      <trkpt lat="44.54645" lon="1.61664">
        <ele>223.9</ele>
        <time>2019-03-17T14:06:36Z</time>
      </trkpt>
      <trkpt lat="44.5464" lon="1.61664">
        <ele>225</ele>
        <time>2019-03-17T14:06:39Z</time>
      </trkpt>
      <trkpt lat="44.54635" lon="1.61662">
        <ele>226</ele>
        <time>2019-03-17T14:06:43Z</time>
      </trkpt>
      <trkpt lat="44.54631" lon="1.61659">
        <ele>225.9</ele>
        <time>2019-03-17T14:06:47Z</time>
      </trkpt>
      <trkpt lat="44.54625" lon="1.61659">
        <ele>226.2</ele>
        <time>2019-03-17T14:06:51Z</time>
      </trkpt>
      <trkpt lat="44.5462" lon="1.6166">
        <ele>226.3</ele>
        <time>2019-03-17T14:06:56Z</time>
      </trkpt>
      <trkpt lat="44.54615" lon="1.61659">
        <ele>225.8</ele>
        <time>2019-03-17T14:07:00Z</time>
      </trkpt>
      <trkpt lat="44.54609" lon="1.61659">
        <ele>225.7</ele>
        <time>2019-03-17T14:07:04Z</time>
      </trkpt>
      <trkpt lat="44.54604" lon="1.6166">
        <ele>224.8</ele>
        <time>2019-03-17T14:07:08Z</time>
      </trkpt>
      <trkpt lat="44.546" lon="1.61659">
        <ele>223.9</ele>
        <time>2019-03-17T14:07:12Z</time>
      </trkpt>
      <trkpt lat="44.54594" lon="1.61659">
        <ele>223</ele>
        <time>2019-03-17T14:07:29Z</time>
      </trkpt>
      <trkpt lat="44.54589" lon="1.6166">
        <ele>223.4</ele>
        <time>2019-03-17T14:07:33Z</time>
      </trkpt>
      <trkpt lat="44.54585" lon="1.61661">
        <ele>222.4</ele>
        <time>2019-03-17T14:07:37Z</time>
      </trkpt>
      <trkpt lat="44.54579" lon="1.61662">
        <ele>222.7</ele>
        <time>2019-03-17T14:07:41Z</time>
      </trkpt>
      <trkpt lat="44.54574" lon="1.61662">
        <ele>222.8</ele>
        <time>2019-03-17T14:07:47Z</time>
      </trkpt>
      <trkpt lat="44.5457" lon="1.61667">
        <ele>223.9</ele>
        <time>2019-03-17T14:07:52Z</time>
      </trkpt>
      <trkpt lat="44.54566" lon="1.6167">
        <ele>224.3</ele>
        <time>2019-03-17T14:07:56Z</time>
      </trkpt>
      <trkpt lat="44.54561" lon="1.61672">
        <ele>224.3</ele>
        <time>2019-03-17T14:08:01Z</time>
      </trkpt>
      <trkpt lat="44.54556" lon="1.61675">
        <ele>225.2</ele>
        <time>2019-03-17T14:08:05Z</time>
      </trkpt>
      <trkpt lat="44.54551" lon="1.61676">
        <ele>226</ele>
        <time>2019-03-17T14:08:09Z</time>
      </trkpt>
      <trkpt lat="44.54546" lon="1.61677">
        <ele>225.6</ele>
        <time>2019-03-17T14:08:13Z</time>
      </trkpt>
      <trkpt lat="44.54541" lon="1.61679">
        <ele>225.2</ele>
        <time>2019-03-17T14:08:16Z</time>
      </trkpt>
      <trkpt lat="44.54537" lon="1.6168">
        <ele>224.9</ele>
        <time>2019-03-17T14:08:19Z</time>
      </trkpt>
      <trkpt lat="44.54532" lon="1.61681">
        <ele>225.8</ele>
        <time>2019-03-17T14:08:23Z</time>
      </trkpt>
      <trkpt lat="44.54528" lon="1.61679">
        <ele>226.5</ele>
        <time>2019-03-17T14:08:27Z</time>
      </trkpt>
      <trkpt lat="44.54523" lon="1.61675">
        <ele>225.7</ele>
        <time>2019-03-17T14:08:31Z</time>
      </trkpt>
      <trkpt lat="44.5452" lon="1.6167">
        <ele>222.9</ele>
        <time>2019-03-17T14:08:36Z</time>
      </trkpt>
      <trkpt lat="44.54515" lon="1.61667">
        <ele>221</ele>
        <time>2019-03-17T14:08:41Z</time>
      </trkpt>
      <trkpt lat="44.5451" lon="1.61664">
        <ele>220.3</ele>
        <time>2019-03-17T14:08:45Z</time>
      </trkpt>
      <trkpt lat="44.54507" lon="1.61659">
        <ele>221.2</ele>
        <time>2019-03-17T14:08:49Z</time>
      </trkpt>
      <trkpt lat="44.54501" lon="1.61656">
        <ele>222.5</ele>
        <time>2019-03-17T14:08:54Z</time>
      </trkpt>
      <trkpt lat="44.54497" lon="1.61652">
        <ele>222.5</ele>
        <time>2019-03-17T14:08:57Z</time>
      </trkpt>
      <trkpt lat="44.54493" lon="1.61647">
        <ele>220.6</ele>
        <time>2019-03-17T14:09:02Z</time>
      </trkpt>
      <trkpt lat="44.54489" lon="1.61644">
        <ele>219.3</ele>
        <time>2019-03-17T14:09:07Z</time>
      </trkpt>
      <trkpt lat="44.54485" lon="1.6164">
        <ele>218.4</ele>
        <time>2019-03-17T14:09:14Z</time>
      </trkpt>
      <trkpt lat="44.54482" lon="1.61634">
        <ele>219</ele>
        <time>2019-03-17T14:09:31Z</time>
      </trkpt>
      <trkpt lat="44.5448" lon="1.61628">
        <ele>219.1</ele>
        <time>2019-03-17T14:09:37Z</time>
      </trkpt>
      <trkpt lat="44.54478" lon="1.6162">
        <ele>218.4</ele>
        <time>2019-03-17T14:09:40Z</time>
      </trkpt>
      <trkpt lat="44.54474" lon="1.61609">
        <ele>219.1</ele>
        <time>2019-03-17T14:09:43Z</time>
      </trkpt>
      <trkpt lat="44.54473" lon="1.61603">
        <ele>218.8</ele>
        <time>2019-03-17T14:09:45Z</time>
      </trkpt>
      <trkpt lat="44.54472" lon="1.61596">
        <ele>219.4</ele>
        <time>2019-03-17T14:09:47Z</time>
      </trkpt>
      <trkpt lat="44.5447" lon="1.6159">
        <ele>218.7</ele>
        <time>2019-03-17T14:09:49Z</time>
      </trkpt>
      <trkpt lat="44.54468" lon="1.61584">
        <ele>218.1</ele>
        <time>2019-03-17T14:09:51Z</time>
      </trkpt>
      <trkpt lat="44.54466" lon="1.61578">
        <ele>218.2</ele>
        <time>2019-03-17T14:09:54Z</time>
      </trkpt>
      <trkpt lat="44.54464" lon="1.61572">
        <ele>218.1</ele>
        <time>2019-03-17T14:09:58Z</time>
      </trkpt>
      <trkpt lat="44.54463" lon="1.61566">
        <ele>217.9</ele>
        <time>2019-03-17T14:10:02Z</time>
      </trkpt>
      <trkpt lat="44.54461" lon="1.61559">
        <ele>216.6</ele>
        <time>2019-03-17T14:10:07Z</time>
      </trkpt>
      <trkpt lat="44.54459" lon="1.61553">
        <ele>215.6</ele>
        <time>2019-03-17T14:10:11Z</time>
      </trkpt>
      <trkpt lat="44.54459" lon="1.61547">
        <ele>214.7</ele>
        <time>2019-03-17T14:10:15Z</time>
      </trkpt>
      <trkpt lat="44.54458" lon="1.6154">
        <ele>212.8</ele>
        <time>2019-03-17T14:10:20Z</time>
      </trkpt>
      <trkpt lat="44.54457" lon="1.61534">
        <ele>212.8</ele>
        <time>2019-03-17T14:10:27Z</time>
      </trkpt>
      <trkpt lat="44.54455" lon="1.61526">
        <ele>214.6</ele>
        <time>2019-03-17T14:10:33Z</time>
      </trkpt>
      <trkpt lat="44.54454" lon="1.6152">
        <ele>216.3</ele>
        <time>2019-03-17T14:10:37Z</time>
      </trkpt>
      <trkpt lat="44.54452" lon="1.61514">
        <ele>218.1</ele>
        <time>2019-03-17T14:10:45Z</time>
      </trkpt>
      <trkpt lat="44.54448" lon="1.6151">
        <ele>219.2</ele>
        <time>2019-03-17T14:10:50Z</time>
      </trkpt>
      <trkpt lat="44.54443" lon="1.61506">
        <ele>219.1</ele>
        <time>2019-03-17T14:10:54Z</time>
      </trkpt>
      <trkpt lat="44.54438" lon="1.61503">
        <ele>219.8</ele>
        <time>2019-03-17T14:10:57Z</time>
      </trkpt>
      <trkpt lat="44.54433" lon="1.61502">
        <ele>220.3</ele>
        <time>2019-03-17T14:11:00Z</time>
      </trkpt>
      <trkpt lat="44.54428" lon="1.61499">
        <ele>220.5</ele>
        <time>2019-03-17T14:11:05Z</time>
      </trkpt>
      <trkpt lat="44.54424" lon="1.61496">
        <ele>220.6</ele>
        <time>2019-03-17T14:11:08Z</time>
      </trkpt>
      <trkpt lat="44.5442" lon="1.61493">
        <ele>220.7</ele>
        <time>2019-03-17T14:11:13Z</time>
      </trkpt>
      <trkpt lat="44.54415" lon="1.61492">
        <ele>220.9</ele>
        <time>2019-03-17T14:11:20Z</time>
      </trkpt>
      <trkpt lat="44.5441" lon="1.61492">
        <ele>223.2</ele>
        <time>2019-03-17T14:11:38Z</time>
      </trkpt>
      <trkpt lat="44.54405" lon="1.61493">
        <ele>225.4</ele>
        <time>2019-03-17T14:11:52Z</time>
      </trkpt>
      <trkpt lat="44.54401" lon="1.61492">
        <ele>225.2</ele>
        <time>2019-03-17T14:11:56Z</time>
      </trkpt>
      <trkpt lat="44.54396" lon="1.61494">
        <ele>225.7</ele>
        <time>2019-03-17T14:12:02Z</time>
      </trkpt>
      <trkpt lat="44.54391" lon="1.61495">
        <ele>225.2</ele>
        <time>2019-03-17T14:12:06Z</time>
      </trkpt>
      <trkpt lat="44.54386" lon="1.61496">
        <ele>225.4</ele>
        <time>2019-03-17T14:12:10Z</time>
      </trkpt>
      <trkpt lat="44.54381" lon="1.61498">
        <ele>226.3</ele>
        <time>2019-03-17T14:12:16Z</time>
      </trkpt>
      <trkpt lat="44.54376" lon="1.61501">
        <ele>226.2</ele>
        <time>2019-03-17T14:12:20Z</time>
      </trkpt>
      <trkpt lat="44.54371" lon="1.61505">
        <ele>227.2</ele>
        <time>2019-03-17T14:12:24Z</time>
      </trkpt>
      <trkpt lat="44.54367" lon="1.61508">
        <ele>227.9</ele>
        <time>2019-03-17T14:12:27Z</time>
      </trkpt>
      <trkpt lat="44.54364" lon="1.61513">
        <ele>228</ele>
        <time>2019-03-17T14:12:31Z</time>
      </trkpt>
      <trkpt lat="44.54359" lon="1.61518">
        <ele>228.3</ele>
        <time>2019-03-17T14:12:36Z</time>
      </trkpt>
      <trkpt lat="44.54356" lon="1.61523">
        <ele>228.5</ele>
        <time>2019-03-17T14:12:40Z</time>
      </trkpt>
      <trkpt lat="44.54353" lon="1.61529">
        <ele>226.3</ele>
        <time>2019-03-17T14:12:45Z</time>
      </trkpt>
      <trkpt lat="44.5435" lon="1.61534">
        <ele>224.4</ele>
        <time>2019-03-17T14:12:50Z</time>
      </trkpt>
      <trkpt lat="44.54345" lon="1.61535">
        <ele>222.4</ele>
        <time>2019-03-17T14:12:59Z</time>
      </trkpt>
      <trkpt lat="44.5434" lon="1.61535">
        <ele>221.1</ele>
        <time>2019-03-17T14:13:07Z</time>
      </trkpt>
      <trkpt lat="44.54335" lon="1.61534">
        <ele>221.1</ele>
        <time>2019-03-17T14:13:11Z</time>
      </trkpt>
      <trkpt lat="44.54329" lon="1.61534">
        <ele>220.1</ele>
        <time>2019-03-17T14:13:15Z</time>
      </trkpt>
      <trkpt lat="44.54325" lon="1.61535">
        <ele>219.7</ele>
        <time>2019-03-17T14:13:18Z</time>
      </trkpt>
      <trkpt lat="44.5432" lon="1.61535">
        <ele>220.1</ele>
        <time>2019-03-17T14:13:21Z</time>
      </trkpt>
      <trkpt lat="44.54316" lon="1.61536">
        <ele>220.2</ele>
        <time>2019-03-17T14:13:25Z</time>
      </trkpt>
      <trkpt lat="44.5431" lon="1.61534">
        <ele>220.1</ele>
        <time>2019-03-17T14:13:29Z</time>
      </trkpt>
      <trkpt lat="44.54306" lon="1.61532">
        <ele>220.7</ele>
        <time>2019-03-17T14:13:32Z</time>
      </trkpt>
      <trkpt lat="44.54302" lon="1.61527">
        <ele>219.9</ele>
        <time>2019-03-17T14:13:38Z</time>
      </trkpt>
      <trkpt lat="44.54299" lon="1.61523">
        <ele>217.6</ele>
        <time>2019-03-17T14:13:55Z</time>
      </trkpt>
      <trkpt lat="44.54297" lon="1.61517">
        <ele>216.8</ele>
        <time>2019-03-17T14:14:04Z</time>
      </trkpt>
      <trkpt lat="44.54293" lon="1.61511">
        <ele>215.8</ele>
        <time>2019-03-17T14:14:20Z</time>
      </trkpt>
      <trkpt lat="44.54287" lon="1.61508">
        <ele>217.3</ele>
        <time>2019-03-17T14:14:23Z</time>
      </trkpt>
      <trkpt lat="44.54283" lon="1.61503">
        <ele>218.3</ele>
        <time>2019-03-17T14:14:27Z</time>
      </trkpt>
      <trkpt lat="44.54279" lon="1.61499">
        <ele>218.6</ele>
        <time>2019-03-17T14:14:31Z</time>
      </trkpt>
      <trkpt lat="44.54275" lon="1.61495">
        <ele>218.9</ele>
        <time>2019-03-17T14:14:35Z</time>
      </trkpt>
      <trkpt lat="44.5427" lon="1.61494">
        <ele>220.3</ele>
        <time>2019-03-17T14:14:39Z</time>
      </trkpt>
      <trkpt lat="44.54266" lon="1.61496">
        <ele>222.1</ele>
        <time>2019-03-17T14:14:50Z</time>
      </trkpt>
      <trkpt lat="44.54261" lon="1.61494">
        <ele>225.1</ele>
        <time>2019-03-17T14:15:20Z</time>
      </trkpt>
      <trkpt lat="44.54256" lon="1.6149">
        <ele>224</ele>
        <time>2019-03-17T14:15:24Z</time>
      </trkpt>
      <trkpt lat="44.54254" lon="1.61496">
        <ele>221.7</ele>
        <time>2019-03-17T14:15:39Z</time>
      </trkpt>
      <trkpt lat="44.54249" lon="1.61494">
        <ele>219.3</ele>
        <time>2019-03-17T14:15:58Z</time>
      </trkpt>
      <trkpt lat="44.54245" lon="1.61495">
        <ele>217.8</ele>
        <time>2019-03-17T14:16:09Z</time>
      </trkpt>
      <trkpt lat="44.5424" lon="1.61494">
        <ele>218.4</ele>
        <time>2019-03-17T14:16:16Z</time>
      </trkpt>
      <trkpt lat="44.54235" lon="1.61493">
        <ele>216.9</ele>
        <time>2019-03-17T14:16:21Z</time>
      </trkpt>
      <trkpt lat="44.5423" lon="1.61494">
        <ele>214.9</ele>
        <time>2019-03-17T14:16:26Z</time>
      </trkpt>
      <trkpt lat="44.54225" lon="1.61497">
        <ele>213.6</ele>
        <time>2019-03-17T14:16:32Z</time>
      </trkpt>
      <trkpt lat="44.54221" lon="1.615">
        <ele>212.8</ele>
        <time>2019-03-17T14:16:39Z</time>
      </trkpt>
      <trkpt lat="44.54216" lon="1.61503">
        <ele>219.2</ele>
        <time>2019-03-17T14:17:20Z</time>
      </trkpt>
      <trkpt lat="44.54213" lon="1.61508">
        <ele>217.3</ele>
        <time>2019-03-17T14:18:22Z</time>
      </trkpt>
      <trkpt lat="44.5421" lon="1.61513">
        <ele>219</ele>
        <time>2019-03-17T14:18:26Z</time>
      </trkpt>
      <trkpt lat="44.54208" lon="1.61519">
        <ele>215.5</ele>
        <time>2019-03-17T14:19:15Z</time>
      </trkpt>
      <trkpt lat="44.54206" lon="1.61526">
        <ele>216.7</ele>
        <time>2019-03-17T14:20:04Z</time>
      </trkpt>
      <trkpt lat="44.54201" lon="1.61528">
        <ele>207.7</ele>
        <time>2019-03-17T14:23:51Z</time>
      </trkpt>
      <trkpt lat="44.54195" lon="1.61529">
        <ele>208</ele>
        <time>2019-03-17T14:23:54Z</time>
      </trkpt>
      <trkpt lat="44.54188" lon="1.61528">
        <ele>208.7</ele>
        <time>2019-03-17T14:23:57Z</time>
      </trkpt>
      <trkpt lat="44.54182" lon="1.61527">
        <ele>209.6</ele>
        <time>2019-03-17T14:24:00Z</time>
      </trkpt>
      <trkpt lat="44.54176" lon="1.61527">
        <ele>209.7</ele>
        <time>2019-03-17T14:24:04Z</time>
      </trkpt>
      <trkpt lat="44.54172" lon="1.6153">
        <ele>208.1</ele>
        <time>2019-03-17T14:24:11Z</time>
      </trkpt>
      <trkpt lat="44.54167" lon="1.61529">
        <ele>206.8</ele>
        <time>2019-03-17T14:24:15Z</time>
      </trkpt>
      <trkpt lat="44.54163" lon="1.61529">
        <ele>204.6</ele>
        <time>2019-03-17T14:24:20Z</time>
      </trkpt>
      <trkpt lat="44.54159" lon="1.61534">
        <ele>204.3</ele>
        <time>2019-03-17T14:24:24Z</time>
      </trkpt>
      <trkpt lat="44.54154" lon="1.61535">
        <ele>204.5</ele>
        <time>2019-03-17T14:24:28Z</time>
      </trkpt>
      <trkpt lat="44.54149" lon="1.61533">
        <ele>203.6</ele>
        <time>2019-03-17T14:24:33Z</time>
      </trkpt>
      <trkpt lat="44.54144" lon="1.61532">
        <ele>200.5</ele>
        <time>2019-03-17T14:24:52Z</time>
      </trkpt>
      <trkpt lat="44.5414" lon="1.61527">
        <ele>200.7</ele>
        <time>2019-03-17T14:24:55Z</time>
      </trkpt>
      <trkpt lat="44.54135" lon="1.61522">
        <ele>200.6</ele>
        <time>2019-03-17T14:24:59Z</time>
      </trkpt>
      <trkpt lat="44.5413" lon="1.6152">
        <ele>198.5</ele>
        <time>2019-03-17T14:25:04Z</time>
      </trkpt>
      <trkpt lat="44.54125" lon="1.61518">
        <ele>197.6</ele>
        <time>2019-03-17T14:25:09Z</time>
      </trkpt>
      <trkpt lat="44.54121" lon="1.61515">
        <ele>196.9</ele>
        <time>2019-03-17T14:25:14Z</time>
      </trkpt>
      <trkpt lat="44.54116" lon="1.61513">
        <ele>195.4</ele>
        <time>2019-03-17T14:25:22Z</time>
      </trkpt>
      <trkpt lat="44.54111" lon="1.61513">
        <ele>192.1</ele>
        <time>2019-03-17T14:25:29Z</time>
      </trkpt>
      <trkpt lat="44.54107" lon="1.61508">
        <ele>191.2</ele>
        <time>2019-03-17T14:25:33Z</time>
      </trkpt>
      <trkpt lat="44.54103" lon="1.61506">
        <ele>190.6</ele>
        <time>2019-03-17T14:25:37Z</time>
      </trkpt>
      <trkpt lat="44.54098" lon="1.61505">
        <ele>190.1</ele>
        <time>2019-03-17T14:25:44Z</time>
      </trkpt>
      <trkpt lat="44.54095" lon="1.61499">
        <ele>191</ele>
        <time>2019-03-17T14:25:54Z</time>
      </trkpt>
      <trkpt lat="44.54092" lon="1.61494">
        <ele>192.1</ele>
        <time>2019-03-17T14:26:02Z</time>
      </trkpt>
      <trkpt lat="44.54086" lon="1.61487">
        <ele>192.9</ele>
        <time>2019-03-17T14:26:05Z</time>
      </trkpt>
      <trkpt lat="44.54083" lon="1.61483">
        <ele>193.3</ele>
        <time>2019-03-17T14:26:08Z</time>
      </trkpt>
      <trkpt lat="44.54078" lon="1.61481">
        <ele>194.1</ele>
        <time>2019-03-17T14:26:12Z</time>
      </trkpt>
      <trkpt lat="44.54074" lon="1.61477">
        <ele>195.4</ele>
        <time>2019-03-17T14:26:16Z</time>
      </trkpt>
      <trkpt lat="44.54071" lon="1.61473">
        <ele>196.7</ele>
        <time>2019-03-17T14:26:21Z</time>
      </trkpt>
      <trkpt lat="44.54067" lon="1.61469">
        <ele>198.3</ele>
        <time>2019-03-17T14:26:25Z</time>
      </trkpt>
      <trkpt lat="44.54062" lon="1.61465">
        <ele>200.7</ele>
        <time>2019-03-17T14:26:30Z</time>
      </trkpt>
      <trkpt lat="44.54058" lon="1.6146">
        <ele>202.2</ele>
        <time>2019-03-17T14:26:33Z</time>
      </trkpt>
      <trkpt lat="44.54053" lon="1.61457">
        <ele>203.4</ele>
        <time>2019-03-17T14:26:37Z</time>
      </trkpt>
      <trkpt lat="44.54049" lon="1.61454">
        <ele>203.2</ele>
        <time>2019-03-17T14:26:42Z</time>
      </trkpt>
      <trkpt lat="44.54046" lon="1.61449">
        <ele>200.6</ele>
        <time>2019-03-17T14:26:51Z</time>
      </trkpt>
      <trkpt lat="44.54043" lon="1.61442">
        <ele>200.9</ele>
        <time>2019-03-17T14:27:05Z</time>
      </trkpt>
      <trkpt lat="44.54039" lon="1.61436">
        <ele>200.7</ele>
        <time>2019-03-17T14:27:10Z</time>
      </trkpt>
      <trkpt lat="44.54036" lon="1.6143">
        <ele>201</ele>
        <time>2019-03-17T14:27:14Z</time>
      </trkpt>
      <trkpt lat="44.54034" lon="1.61425">
        <ele>202</ele>
        <time>2019-03-17T14:27:17Z</time>
      </trkpt>
      <trkpt lat="44.54032" lon="1.61419">
        <ele>205.3</ele>
        <time>2019-03-17T14:27:26Z</time>
      </trkpt>
      <trkpt lat="44.54028" lon="1.61413">
        <ele>207.5</ele>
        <time>2019-03-17T14:27:33Z</time>
      </trkpt>
      <trkpt lat="44.54024" lon="1.6141">
        <ele>207.7</ele>
        <time>2019-03-17T14:27:37Z</time>
      </trkpt>
      <trkpt lat="44.5402" lon="1.61406">
        <ele>207.9</ele>
        <time>2019-03-17T14:27:41Z</time>
      </trkpt>
      <trkpt lat="44.54016" lon="1.61407">
        <ele>207.4</ele>
        <time>2019-03-17T14:27:50Z</time>
      </trkpt>
      <trkpt lat="44.5401" lon="1.61407">
        <ele>206.5</ele>
        <time>2019-03-17T14:28:02Z</time>
      </trkpt>
      <trkpt lat="44.54004" lon="1.61407">
        <ele>204.1</ele>
        <time>2019-03-17T14:28:07Z</time>
      </trkpt>
      <trkpt lat="44.53998" lon="1.61406">
        <ele>201.7</ele>
        <time>2019-03-17T14:28:11Z</time>
      </trkpt>
      <trkpt lat="44.53994" lon="1.61404">
        <ele>200.9</ele>
        <time>2019-03-17T14:28:14Z</time>
      </trkpt>
      <trkpt lat="44.53988" lon="1.61402">
        <ele>199.3</ele>
        <time>2019-03-17T14:28:18Z</time>
      </trkpt>
      <trkpt lat="44.53983" lon="1.61399">
        <ele>196.9</ele>
        <time>2019-03-17T14:28:22Z</time>
      </trkpt>
      <trkpt lat="44.53978" lon="1.61398">
        <ele>196.2</ele>
        <time>2019-03-17T14:28:27Z</time>
      </trkpt>
      <trkpt lat="44.53973" lon="1.61398">
        <ele>196.7</ele>
        <time>2019-03-17T14:28:32Z</time>
      </trkpt>
      <trkpt lat="44.53968" lon="1.61397">
        <ele>195.5</ele>
        <time>2019-03-17T14:28:37Z</time>
      </trkpt>
      <trkpt lat="44.53963" lon="1.61396">
        <ele>193.4</ele>
        <time>2019-03-17T14:28:42Z</time>
      </trkpt>
      <trkpt lat="44.53958" lon="1.61396">
        <ele>189.8</ele>
        <time>2019-03-17T14:28:59Z</time>
      </trkpt>
      <trkpt lat="44.53952" lon="1.61397">
        <ele>189.1</ele>
        <time>2019-03-17T14:29:03Z</time>
      </trkpt>
      <trkpt lat="44.53947" lon="1.61399">
        <ele>188.4</ele>
        <time>2019-03-17T14:29:07Z</time>
      </trkpt>
      <trkpt lat="44.53942" lon="1.61402">
        <ele>188</ele>
        <time>2019-03-17T14:29:15Z</time>
      </trkpt>
      <trkpt lat="44.53937" lon="1.61405">
        <ele>188.7</ele>
        <time>2019-03-17T14:29:19Z</time>
      </trkpt>
      <trkpt lat="44.53933" lon="1.61407">
        <ele>188.5</ele>
        <time>2019-03-17T14:29:23Z</time>
      </trkpt>
      <trkpt lat="44.53928" lon="1.6141">
        <ele>189.8</ele>
        <time>2019-03-17T14:29:28Z</time>
      </trkpt>
      <trkpt lat="44.53924" lon="1.61414">
        <ele>191.5</ele>
        <time>2019-03-17T14:29:32Z</time>
      </trkpt>
      <trkpt lat="44.53919" lon="1.61416">
        <ele>191.7</ele>
        <time>2019-03-17T14:29:38Z</time>
      </trkpt>
      <trkpt lat="44.53916" lon="1.6142">
        <ele>196.1</ele>
        <time>2019-03-17T14:30:23Z</time>
      </trkpt>
      <trkpt lat="44.53908" lon="1.6143">
        <ele>205</ele>
        <time>2019-03-17T14:33:22Z</time>
      </trkpt>
      <trkpt lat="44.53903" lon="1.61433">
        <ele>205.1</ele>
        <time>2019-03-17T14:33:26Z</time>
      </trkpt>
      <trkpt lat="44.53899" lon="1.61437">
        <ele>202.2</ele>
        <time>2019-03-17T14:33:54Z</time>
      </trkpt>
      <trkpt lat="44.53895" lon="1.61442">
        <ele>202.8</ele>
        <time>2019-03-17T14:33:59Z</time>
      </trkpt>
      <trkpt lat="44.53891" lon="1.61447">
        <ele>203.8</ele>
        <time>2019-03-17T14:34:04Z</time>
      </trkpt>
      <trkpt lat="44.53887" lon="1.61452">
        <ele>205.7</ele>
        <time>2019-03-17T14:34:08Z</time>
      </trkpt>
      <trkpt lat="44.53882" lon="1.61455">
        <ele>206.9</ele>
        <time>2019-03-17T14:34:13Z</time>
      </trkpt>
      <trkpt lat="44.53877" lon="1.61458">
        <ele>207</ele>
        <time>2019-03-17T14:34:17Z</time>
      </trkpt>
      <trkpt lat="44.53873" lon="1.6146">
        <ele>204.8</ele>
        <time>2019-03-17T14:34:25Z</time>
      </trkpt>
      <trkpt lat="44.53869" lon="1.6146">
        <ele>203.3</ele>
        <time>2019-03-17T14:34:28Z</time>
      </trkpt>
      <trkpt lat="44.53863" lon="1.6146">
        <ele>201.3</ele>
        <time>2019-03-17T14:34:32Z</time>
      </trkpt>
      <trkpt lat="44.53858" lon="1.61461">
        <ele>199.8</ele>
        <time>2019-03-17T14:34:36Z</time>
      </trkpt>
      <trkpt lat="44.53853" lon="1.61461">
        <ele>198</ele>
        <time>2019-03-17T14:34:40Z</time>
      </trkpt>
      <trkpt lat="44.53848" lon="1.61461">
        <ele>196.5</ele>
        <time>2019-03-17T14:34:44Z</time>
      </trkpt>
      <trkpt lat="44.53843" lon="1.61461">
        <ele>194.8</ele>
        <time>2019-03-17T14:34:48Z</time>
      </trkpt>
      <trkpt lat="44.53838" lon="1.61459">
        <ele>193.3</ele>
        <time>2019-03-17T14:34:52Z</time>
      </trkpt>
      <trkpt lat="44.53832" lon="1.61457">
        <ele>192.3</ele>
        <time>2019-03-17T14:34:56Z</time>
      </trkpt>
      <trkpt lat="44.53827" lon="1.61456">
        <ele>191.1</ele>
        <time>2019-03-17T14:35:00Z</time>
      </trkpt>
      <trkpt lat="44.53822" lon="1.61454">
        <ele>189.3</ele>
        <time>2019-03-17T14:35:04Z</time>
      </trkpt>
      <trkpt lat="44.53817" lon="1.61453">
        <ele>188.1</ele>
        <time>2019-03-17T14:35:08Z</time>
      </trkpt>
      <trkpt lat="44.53812" lon="1.61452">
        <ele>187.9</ele>
        <time>2019-03-17T14:35:12Z</time>
      </trkpt>
      <trkpt lat="44.53807" lon="1.61455">
        <ele>188.5</ele>
        <time>2019-03-17T14:35:26Z</time>
      </trkpt>
      <trkpt lat="44.53802" lon="1.61457">
        <ele>188.3</ele>
        <time>2019-03-17T14:35:30Z</time>
      </trkpt>
      <trkpt lat="44.53797" lon="1.61457">
        <ele>188.3</ele>
        <time>2019-03-17T14:35:34Z</time>
      </trkpt>
      <trkpt lat="44.53792" lon="1.61458">
        <ele>188.7</ele>
        <time>2019-03-17T14:35:38Z</time>
      </trkpt>
      <trkpt lat="44.53786" lon="1.6146">
        <ele>189.4</ele>
        <time>2019-03-17T14:35:42Z</time>
      </trkpt>
      <trkpt lat="44.53781" lon="1.61463">
        <ele>190.2</ele>
        <time>2019-03-17T14:35:46Z</time>
      </trkpt>
      <trkpt lat="44.53779" lon="1.61469">
        <ele>192.9</ele>
        <time>2019-03-17T14:35:50Z</time>
      </trkpt>
      <trkpt lat="44.53774" lon="1.61474">
        <ele>193.9</ele>
        <time>2019-03-17T14:35:54Z</time>
      </trkpt>
      <trkpt lat="44.5377" lon="1.61478">
        <ele>193.8</ele>
        <time>2019-03-17T14:35:58Z</time>
      </trkpt>
      <trkpt lat="44.53766" lon="1.61484">
        <ele>193.4</ele>
        <time>2019-03-17T14:36:02Z</time>
      </trkpt>
      <trkpt lat="44.53763" lon="1.6149">
        <ele>193.9</ele>
        <time>2019-03-17T14:36:06Z</time>
      </trkpt>
      <trkpt lat="44.5376" lon="1.61496">
        <ele>194.3</ele>
        <time>2019-03-17T14:36:10Z</time>
      </trkpt>
      <trkpt lat="44.53757" lon="1.61503">
        <ele>194.6</ele>
        <time>2019-03-17T14:36:14Z</time>
      </trkpt>
      <trkpt lat="44.53755" lon="1.6151">
        <ele>195</ele>
        <time>2019-03-17T14:36:18Z</time>
      </trkpt>
      <trkpt lat="44.53753" lon="1.61517">
        <ele>196.4</ele>
        <time>2019-03-17T14:36:22Z</time>
      </trkpt>
      <trkpt lat="44.53751" lon="1.61525">
        <ele>198.6</ele>
        <time>2019-03-17T14:36:26Z</time>
      </trkpt>
      <trkpt lat="44.53748" lon="1.61532">
        <ele>199.6</ele>
        <time>2019-03-17T14:36:30Z</time>
      </trkpt>
      <trkpt lat="44.53745" lon="1.61538">
        <ele>199.5</ele>
        <time>2019-03-17T14:36:34Z</time>
      </trkpt>
      <trkpt lat="44.53741" lon="1.61543">
        <ele>198.4</ele>
        <time>2019-03-17T14:36:38Z</time>
      </trkpt>
      <trkpt lat="44.53737" lon="1.61545">
        <ele>195.8</ele>
        <time>2019-03-17T14:36:42Z</time>
      </trkpt>
      <trkpt lat="44.53733" lon="1.61551">
        <ele>192.4</ele>
        <time>2019-03-17T14:36:49Z</time>
      </trkpt>
      <trkpt lat="44.53733" lon="1.61558">
        <ele>191.1</ele>
        <time>2019-03-17T14:36:56Z</time>
      </trkpt>
      <trkpt lat="44.53728" lon="1.61561">
        <ele>191.8</ele>
        <time>2019-03-17T14:37:40Z</time>
      </trkpt>
      <trkpt lat="44.53724" lon="1.61563">
        <ele>192.2</ele>
        <time>2019-03-17T14:37:44Z</time>
      </trkpt>
      <trkpt lat="44.53719" lon="1.61561">
        <ele>190.4</ele>
        <time>2019-03-17T14:37:48Z</time>
      </trkpt>
      <trkpt lat="44.53715" lon="1.61557">
        <ele>188.1</ele>
        <time>2019-03-17T14:37:52Z</time>
      </trkpt>
      <trkpt lat="44.53711" lon="1.61552">
        <ele>186</ele>
        <time>2019-03-17T14:37:57Z</time>
      </trkpt>
      <trkpt lat="44.53708" lon="1.61547">
        <ele>184.4</ele>
        <time>2019-03-17T14:38:01Z</time>
      </trkpt>
      <trkpt lat="44.53704" lon="1.61542">
        <ele>183.3</ele>
        <time>2019-03-17T14:38:04Z</time>
      </trkpt>
      <trkpt lat="44.537" lon="1.61537">
        <ele>183.1</ele>
        <time>2019-03-17T14:38:10Z</time>
      </trkpt>
      <trkpt lat="44.53697" lon="1.61533">
        <ele>183.4</ele>
        <time>2019-03-17T14:38:15Z</time>
      </trkpt>
      <trkpt lat="44.53694" lon="1.61528">
        <ele>184.7</ele>
        <time>2019-03-17T14:38:19Z</time>
      </trkpt>
      <trkpt lat="44.53691" lon="1.61523">
        <ele>186.7</ele>
        <time>2019-03-17T14:38:27Z</time>
      </trkpt>
      <trkpt lat="44.53686" lon="1.61521">
        <ele>191.6</ele>
        <time>2019-03-17T14:39:17Z</time>
      </trkpt>
      <trkpt lat="44.53686" lon="1.61515">
        <ele>192.5</ele>
        <time>2019-03-17T14:41:16Z</time>
      </trkpt>
      <trkpt lat="44.53682" lon="1.61513">
        <ele>185.5</ele>
        <time>2019-03-17T14:42:06Z</time>
      </trkpt>
      <trkpt lat="44.53678" lon="1.61507">
        <ele>182.5</ele>
        <time>2019-03-17T14:44:25Z</time>
      </trkpt>
      <trkpt lat="44.53674" lon="1.61503">
        <ele>183.3</ele>
        <time>2019-03-17T14:44:30Z</time>
      </trkpt>
      <trkpt lat="44.53674" lon="1.61496">
        <ele>183.5</ele>
        <time>2019-03-17T14:44:35Z</time>
      </trkpt>
      <trkpt lat="44.53677" lon="1.61491">
        <ele>183.7</ele>
        <time>2019-03-17T14:44:40Z</time>
      </trkpt>
      <trkpt lat="44.5368" lon="1.61486">
        <ele>184.6</ele>
        <time>2019-03-17T14:44:46Z</time>
      </trkpt>
      <trkpt lat="44.53683" lon="1.6148">
        <ele>185.5</ele>
        <time>2019-03-17T14:44:52Z</time>
      </trkpt>
      <trkpt lat="44.53685" lon="1.61474">
        <ele>185.2</ele>
        <time>2019-03-17T14:44:58Z</time>
      </trkpt>
      <trkpt lat="44.53687" lon="1.61468">
        <ele>185.8</ele>
        <time>2019-03-17T14:45:03Z</time>
      </trkpt>
      <trkpt lat="44.53689" lon="1.61462">
        <ele>184.8</ele>
        <time>2019-03-17T14:45:08Z</time>
      </trkpt>
      <trkpt lat="44.53692" lon="1.61458">
        <ele>184.4</ele>
        <time>2019-03-17T14:45:12Z</time>
      </trkpt>
      <trkpt lat="44.53696" lon="1.61453">
        <ele>184.3</ele>
        <time>2019-03-17T14:45:17Z</time>
      </trkpt>
      <trkpt lat="44.537" lon="1.61449">
        <ele>183.1</ele>
        <time>2019-03-17T14:45:22Z</time>
      </trkpt>
      <trkpt lat="44.53704" lon="1.61446">
        <ele>182.8</ele>
        <time>2019-03-17T14:45:26Z</time>
      </trkpt>
      <trkpt lat="44.53706" lon="1.6144">
        <ele>184</ele>
        <time>2019-03-17T14:45:30Z</time>
      </trkpt>
      <trkpt lat="44.53709" lon="1.61434">
        <ele>187.1</ele>
        <time>2019-03-17T14:45:38Z</time>
      </trkpt>
      <trkpt lat="44.53713" lon="1.6143">
        <ele>187.8</ele>
        <time>2019-03-17T14:45:42Z</time>
      </trkpt>
      <trkpt lat="44.53717" lon="1.61425">
        <ele>187.2</ele>
        <time>2019-03-17T14:45:46Z</time>
      </trkpt>
      <trkpt lat="44.5372" lon="1.61421">
        <ele>185.8</ele>
        <time>2019-03-17T14:45:52Z</time>
      </trkpt>
      <trkpt lat="44.53722" lon="1.61414">
        <ele>186.4</ele>
        <time>2019-03-17T14:46:29Z</time>
      </trkpt>
      <trkpt lat="44.53723" lon="1.61408">
        <ele>187</ele>
        <time>2019-03-17T14:46:35Z</time>
      </trkpt>
      <trkpt lat="44.53727" lon="1.61402">
        <ele>186.6</ele>
        <time>2019-03-17T14:46:40Z</time>
      </trkpt>
      <trkpt lat="44.5373" lon="1.61396">
        <ele>186.2</ele>
        <time>2019-03-17T14:46:45Z</time>
      </trkpt>
      <trkpt lat="44.53734" lon="1.61394">
        <ele>188.9</ele>
        <time>2019-03-17T14:47:02Z</time>
      </trkpt>
      <trkpt lat="44.53739" lon="1.61389">
        <ele>189</ele>
        <time>2019-03-17T14:47:10Z</time>
      </trkpt>
      <trkpt lat="44.53743" lon="1.61387">
        <ele>189.3</ele>
        <time>2019-03-17T14:47:15Z</time>
      </trkpt>
      <trkpt lat="44.53747" lon="1.61382">
        <ele>188.5</ele>
        <time>2019-03-17T14:47:19Z</time>
      </trkpt>
      <trkpt lat="44.53751" lon="1.61376">
        <ele>187.4</ele>
        <time>2019-03-17T14:47:23Z</time>
      </trkpt>
      <trkpt lat="44.53756" lon="1.61372">
        <ele>186.3</ele>
        <time>2019-03-17T14:47:27Z</time>
      </trkpt>
      <trkpt lat="44.5376" lon="1.61367">
        <ele>185.5</ele>
        <time>2019-03-17T14:47:31Z</time>
      </trkpt>
      <trkpt lat="44.53765" lon="1.61362">
        <ele>185.4</ele>
        <time>2019-03-17T14:47:35Z</time>
      </trkpt>
      <trkpt lat="44.5377" lon="1.6136">
        <ele>186.9</ele>
        <time>2019-03-17T14:47:39Z</time>
      </trkpt>
      <trkpt lat="44.53775" lon="1.61359">
        <ele>187.8</ele>
        <time>2019-03-17T14:47:42Z</time>
      </trkpt>
      <trkpt lat="44.5378" lon="1.61358">
        <ele>188.5</ele>
        <time>2019-03-17T14:47:46Z</time>
      </trkpt>
      <trkpt lat="44.53784" lon="1.61356">
        <ele>188.6</ele>
        <time>2019-03-17T14:47:51Z</time>
      </trkpt>
      <trkpt lat="44.5379" lon="1.61353">
        <ele>188.2</ele>
        <time>2019-03-17T14:47:56Z</time>
      </trkpt>
      <trkpt lat="44.53795" lon="1.61352">
        <ele>188.4</ele>
        <time>2019-03-17T14:48:00Z</time>
      </trkpt>
      <trkpt lat="44.53799" lon="1.61349">
        <ele>188</ele>
        <time>2019-03-17T14:48:04Z</time>
      </trkpt>
      <trkpt lat="44.53804" lon="1.61346">
        <ele>187.1</ele>
        <time>2019-03-17T14:48:09Z</time>
      </trkpt>
      <trkpt lat="44.53809" lon="1.61344">
        <ele>186.1</ele>
        <time>2019-03-17T14:48:14Z</time>
      </trkpt>
      <trkpt lat="44.53813" lon="1.61343">
        <ele>185.3</ele>
        <time>2019-03-17T14:48:20Z</time>
      </trkpt>
      <trkpt lat="44.53818" lon="1.61344">
        <ele>185.3</ele>
        <time>2019-03-17T14:48:25Z</time>
      </trkpt>
      <trkpt lat="44.53823" lon="1.61344">
        <ele>185.5</ele>
        <time>2019-03-17T14:48:30Z</time>
      </trkpt>
      <trkpt lat="44.53828" lon="1.61344">
        <ele>184.6</ele>
        <time>2019-03-17T14:48:35Z</time>
      </trkpt>
      <trkpt lat="44.53833" lon="1.61345">
        <ele>185.5</ele>
        <time>2019-03-17T14:48:39Z</time>
      </trkpt>
      <trkpt lat="44.53838" lon="1.61347">
        <ele>186.3</ele>
        <time>2019-03-17T14:48:43Z</time>
      </trkpt>
      <trkpt lat="44.53842" lon="1.61349">
        <ele>186.7</ele>
        <time>2019-03-17T14:48:48Z</time>
      </trkpt>
      <trkpt lat="44.53847" lon="1.6135">
        <ele>188.3</ele>
        <time>2019-03-17T14:48:57Z</time>
      </trkpt>
      <trkpt lat="44.53851" lon="1.61352">
        <ele>187.7</ele>
        <time>2019-03-17T14:49:03Z</time>
      </trkpt>
      <trkpt lat="44.53858" lon="1.61354">
        <ele>188</ele>
        <time>2019-03-17T14:49:07Z</time>
      </trkpt>
      <trkpt lat="44.53863" lon="1.61356">
        <ele>188.4</ele>
        <time>2019-03-17T14:49:09Z</time>
      </trkpt>
      <trkpt lat="44.53868" lon="1.61357">
        <ele>189.3</ele>
        <time>2019-03-17T14:49:12Z</time>
      </trkpt>
      <trkpt lat="44.53875" lon="1.61357">
        <ele>189.6</ele>
        <time>2019-03-17T14:49:15Z</time>
      </trkpt>
      <trkpt lat="44.53881" lon="1.61356">
        <ele>189.1</ele>
        <time>2019-03-17T14:49:18Z</time>
      </trkpt>
      <trkpt lat="44.53886" lon="1.61354">
        <ele>189.2</ele>
        <time>2019-03-17T14:49:21Z</time>
      </trkpt>
      <trkpt lat="44.53892" lon="1.61351">
        <ele>189.5</ele>
        <time>2019-03-17T14:49:26Z</time>
      </trkpt>
      <trkpt lat="44.53897" lon="1.6135">
        <ele>190.5</ele>
        <time>2019-03-17T14:49:30Z</time>
      </trkpt>
      <trkpt lat="44.53902" lon="1.61348">
        <ele>190.7</ele>
        <time>2019-03-17T14:49:35Z</time>
      </trkpt>
      <trkpt lat="44.53904" lon="1.61342">
        <ele>191.1</ele>
        <time>2019-03-17T14:49:41Z</time>
      </trkpt>
      <trkpt lat="44.53907" lon="1.61337">
        <ele>191</ele>
        <time>2019-03-17T14:49:45Z</time>
      </trkpt>
      <trkpt lat="44.53908" lon="1.6133">
        <ele>190.4</ele>
        <time>2019-03-17T14:49:52Z</time>
      </trkpt>
      <trkpt lat="44.53911" lon="1.61325">
        <ele>191.6</ele>
        <time>2019-03-17T14:50:01Z</time>
      </trkpt>
      <trkpt lat="44.53915" lon="1.61321">
        <ele>192.3</ele>
        <time>2019-03-17T14:50:08Z</time>
      </trkpt>
      <trkpt lat="44.53919" lon="1.61317">
        <ele>192.1</ele>
        <time>2019-03-17T14:50:11Z</time>
      </trkpt>
      <trkpt lat="44.53923" lon="1.61313">
        <ele>192</ele>
        <time>2019-03-17T14:50:14Z</time>
      </trkpt>
      <trkpt lat="44.53927" lon="1.61309">
        <ele>191.6</ele>
        <time>2019-03-17T14:50:18Z</time>
      </trkpt>
      <trkpt lat="44.5393" lon="1.61303">
        <ele>192.2</ele>
        <time>2019-03-17T14:50:22Z</time>
      </trkpt>
      <trkpt lat="44.53933" lon="1.61296">
        <ele>192.8</ele>
        <time>2019-03-17T14:50:26Z</time>
      </trkpt>
      <trkpt lat="44.53936" lon="1.6129">
        <ele>193.1</ele>
        <time>2019-03-17T14:50:30Z</time>
      </trkpt>
      <trkpt lat="44.5394" lon="1.61285">
        <ele>193.9</ele>
        <time>2019-03-17T14:50:34Z</time>
      </trkpt>
      <trkpt lat="44.53944" lon="1.6128">
        <ele>195.7</ele>
        <time>2019-03-17T14:50:38Z</time>
      </trkpt>
      <trkpt lat="44.53948" lon="1.61275">
        <ele>196.2</ele>
        <time>2019-03-17T14:50:43Z</time>
      </trkpt>
      <trkpt lat="44.53952" lon="1.6127">
        <ele>195.4</ele>
        <time>2019-03-17T14:50:48Z</time>
      </trkpt>
      <trkpt lat="44.53956" lon="1.61266">
        <ele>194.9</ele>
        <time>2019-03-17T14:50:53Z</time>
      </trkpt>
      <trkpt lat="44.5396" lon="1.61261">
        <ele>195</ele>
        <time>2019-03-17T14:50:57Z</time>
      </trkpt>
      <trkpt lat="44.53965" lon="1.61257">
        <ele>195.3</ele>
        <time>2019-03-17T14:51:01Z</time>
      </trkpt>
      <trkpt lat="44.53969" lon="1.61254">
        <ele>194.7</ele>
        <time>2019-03-17T14:51:06Z</time>
      </trkpt>
      <trkpt lat="44.53973" lon="1.61249">
        <ele>194.2</ele>
        <time>2019-03-17T14:51:12Z</time>
      </trkpt>
      <trkpt lat="44.53977" lon="1.61244">
        <ele>194.4</ele>
        <time>2019-03-17T14:51:16Z</time>
      </trkpt>
      <trkpt lat="44.53978" lon="1.61237">
        <ele>194.6</ele>
        <time>2019-03-17T14:51:21Z</time>
      </trkpt>
      <trkpt lat="44.5398" lon="1.61231">
        <ele>195.2</ele>
        <time>2019-03-17T14:51:26Z</time>
      </trkpt>
      <trkpt lat="44.53983" lon="1.61225">
        <ele>195.9</ele>
        <time>2019-03-17T14:51:30Z</time>
      </trkpt>
      <trkpt lat="44.53985" lon="1.61218">
        <ele>196.4</ele>
        <time>2019-03-17T14:51:34Z</time>
      </trkpt>
      <trkpt lat="44.53989" lon="1.61213">
        <ele>195.9</ele>
        <time>2019-03-17T14:51:38Z</time>
      </trkpt>
      <trkpt lat="44.53992" lon="1.61208">
        <ele>196.3</ele>
        <time>2019-03-17T14:51:42Z</time>
      </trkpt>
      <trkpt lat="44.53996" lon="1.61204">
        <ele>196.7</ele>
        <time>2019-03-17T14:51:47Z</time>
      </trkpt>
      <trkpt lat="44.54001" lon="1.61199">
        <ele>197.6</ele>
        <time>2019-03-17T14:51:51Z</time>
      </trkpt>
      <trkpt lat="44.54004" lon="1.61196">
        <ele>198.4</ele>
        <time>2019-03-17T14:51:55Z</time>
      </trkpt>
      <trkpt lat="44.54009" lon="1.61193">
        <ele>198.2</ele>
        <time>2019-03-17T14:52:01Z</time>
      </trkpt>
      <trkpt lat="44.54013" lon="1.61188">
        <ele>198.2</ele>
        <time>2019-03-17T14:52:06Z</time>
      </trkpt>
      <trkpt lat="44.54016" lon="1.61182">
        <ele>198.9</ele>
        <time>2019-03-17T14:52:11Z</time>
      </trkpt>
      <trkpt lat="44.54019" lon="1.61177">
        <ele>199.1</ele>
        <time>2019-03-17T14:52:15Z</time>
      </trkpt>
      <trkpt lat="44.54024" lon="1.61175">
        <ele>199.3</ele>
        <time>2019-03-17T14:52:19Z</time>
      </trkpt>
      <trkpt lat="44.54027" lon="1.6117">
        <ele>198.8</ele>
        <time>2019-03-17T14:52:23Z</time>
      </trkpt>
      <trkpt lat="44.54029" lon="1.61164">
        <ele>199</ele>
        <time>2019-03-17T14:52:27Z</time>
      </trkpt>
      <trkpt lat="44.54033" lon="1.61159">
        <ele>200.4</ele>
        <time>2019-03-17T14:52:31Z</time>
      </trkpt>
      <trkpt lat="44.54036" lon="1.61153">
        <ele>201.3</ele>
        <time>2019-03-17T14:52:37Z</time>
      </trkpt>
      <trkpt lat="44.54038" lon="1.61147">
        <ele>202.1</ele>
        <time>2019-03-17T14:52:43Z</time>
      </trkpt>
      <trkpt lat="44.54042" lon="1.61143">
        <ele>203.5</ele>
        <time>2019-03-17T14:52:48Z</time>
      </trkpt>
      <trkpt lat="44.54047" lon="1.61144">
        <ele>206.1</ele>
        <time>2019-03-17T14:53:02Z</time>
      </trkpt>
      <trkpt lat="44.54052" lon="1.61145">
        <ele>207</ele>
        <time>2019-03-17T14:53:07Z</time>
      </trkpt>
      <trkpt lat="44.54057" lon="1.61145">
        <ele>206.5</ele>
        <time>2019-03-17T14:53:12Z</time>
      </trkpt>
      <trkpt lat="44.54062" lon="1.61146">
        <ele>205.8</ele>
        <time>2019-03-17T14:53:16Z</time>
      </trkpt>
      <trkpt lat="44.54068" lon="1.61148">
        <ele>205.8</ele>
        <time>2019-03-17T14:53:21Z</time>
      </trkpt>
      <trkpt lat="44.54073" lon="1.61147">
        <ele>205.4</ele>
        <time>2019-03-17T14:53:26Z</time>
      </trkpt>
      <trkpt lat="44.54079" lon="1.61148">
        <ele>206.1</ele>
        <time>2019-03-17T14:53:29Z</time>
      </trkpt>
      <trkpt lat="44.54086" lon="1.61148">
        <ele>206.8</ele>
        <time>2019-03-17T14:53:32Z</time>
      </trkpt>
      <trkpt lat="44.5409" lon="1.61146">
        <ele>207.2</ele>
        <time>2019-03-17T14:53:34Z</time>
      </trkpt>
      <trkpt lat="44.54095" lon="1.61144">
        <ele>208</ele>
        <time>2019-03-17T14:53:37Z</time>
      </trkpt>
      <trkpt lat="44.54099" lon="1.6114">
        <ele>209.4</ele>
        <time>2019-03-17T14:53:42Z</time>
      </trkpt>
      <trkpt lat="44.54103" lon="1.61135">
        <ele>211.6</ele>
        <time>2019-03-17T14:53:47Z</time>
      </trkpt>
      <trkpt lat="44.54106" lon="1.6113">
        <ele>212.6</ele>
        <time>2019-03-17T14:53:52Z</time>
      </trkpt>
      <trkpt lat="44.5411" lon="1.61125">
        <ele>213</ele>
        <time>2019-03-17T14:53:56Z</time>
      </trkpt>
      <trkpt lat="44.54113" lon="1.6112">
        <ele>212.3</ele>
        <time>2019-03-17T14:54:01Z</time>
      </trkpt>
      <trkpt lat="44.54116" lon="1.61115">
        <ele>211.6</ele>
        <time>2019-03-17T14:54:05Z</time>
      </trkpt>
      <trkpt lat="44.5412" lon="1.61109">
        <ele>211.5</ele>
        <time>2019-03-17T14:54:09Z</time>
      </trkpt>
      <trkpt lat="44.54125" lon="1.61104">
        <ele>210.9</ele>
        <time>2019-03-17T14:54:13Z</time>
      </trkpt>
      <trkpt lat="44.54128" lon="1.611">
        <ele>210.4</ele>
        <time>2019-03-17T14:54:17Z</time>
      </trkpt>
      <trkpt lat="44.54132" lon="1.61095">
        <ele>210.2</ele>
        <time>2019-03-17T14:54:21Z</time>
      </trkpt>
      <trkpt lat="44.54135" lon="1.61089">
        <ele>210</ele>
        <time>2019-03-17T14:54:26Z</time>
      </trkpt>
      <trkpt lat="44.54138" lon="1.61084">
        <ele>210.4</ele>
        <time>2019-03-17T14:54:31Z</time>
      </trkpt>
      <trkpt lat="44.54141" lon="1.61079">
        <ele>210.9</ele>
        <time>2019-03-17T14:54:37Z</time>
      </trkpt>
      <trkpt lat="44.54145" lon="1.61074">
        <ele>211.2</ele>
        <time>2019-03-17T14:54:42Z</time>
      </trkpt>
      <trkpt lat="44.54149" lon="1.61069">
        <ele>210.5</ele>
        <time>2019-03-17T14:54:47Z</time>
      </trkpt>
      <trkpt lat="44.54154" lon="1.61065">
        <ele>209.8</ele>
        <time>2019-03-17T14:54:52Z</time>
      </trkpt>
      <trkpt lat="44.54158" lon="1.6106">
        <ele>209.7</ele>
        <time>2019-03-17T14:54:57Z</time>
      </trkpt>
      <trkpt lat="44.54163" lon="1.61057">
        <ele>209.9</ele>
        <time>2019-03-17T14:55:02Z</time>
      </trkpt>
      <trkpt lat="44.54167" lon="1.61053">
        <ele>210.2</ele>
        <time>2019-03-17T14:55:06Z</time>
      </trkpt>
      <trkpt lat="44.54172" lon="1.61048">
        <ele>210.7</ele>
        <time>2019-03-17T14:55:11Z</time>
      </trkpt>
      <trkpt lat="44.54176" lon="1.61045">
        <ele>210.4</ele>
        <time>2019-03-17T14:55:16Z</time>
      </trkpt>
      <trkpt lat="44.5418" lon="1.61041">
        <ele>209.8</ele>
        <time>2019-03-17T14:55:21Z</time>
      </trkpt>
      <trkpt lat="44.54184" lon="1.61037">
        <ele>209.4</ele>
        <time>2019-03-17T14:55:26Z</time>
      </trkpt>
      <trkpt lat="44.54188" lon="1.61033">
        <ele>209.4</ele>
        <time>2019-03-17T14:55:31Z</time>
      </trkpt>
      <trkpt lat="44.54192" lon="1.61029">
        <ele>209.5</ele>
        <time>2019-03-17T14:55:36Z</time>
      </trkpt>
      <trkpt lat="44.54196" lon="1.61022">
        <ele>211.1</ele>
        <time>2019-03-17T14:55:40Z</time>
      </trkpt>
      <trkpt lat="44.54199" lon="1.61017">
        <ele>212.8</ele>
        <time>2019-03-17T14:55:44Z</time>
      </trkpt>
      <trkpt lat="44.54204" lon="1.61013">
        <ele>214.9</ele>
        <time>2019-03-17T14:55:49Z</time>
      </trkpt>
      <trkpt lat="44.54209" lon="1.61009">
        <ele>215.8</ele>
        <time>2019-03-17T14:55:54Z</time>
      </trkpt>
      <trkpt lat="44.54213" lon="1.61006">
        <ele>216</ele>
        <time>2019-03-17T14:56:00Z</time>
      </trkpt>
      <trkpt lat="44.54217" lon="1.61002">
        <ele>215.8</ele>
        <time>2019-03-17T14:56:05Z</time>
      </trkpt>
      <trkpt lat="44.54221" lon="1.60996">
        <ele>215.9</ele>
        <time>2019-03-17T14:56:10Z</time>
      </trkpt>
      <trkpt lat="44.54225" lon="1.60991">
        <ele>217.2</ele>
        <time>2019-03-17T14:56:14Z</time>
      </trkpt>
      <trkpt lat="44.54227" lon="1.60985">
        <ele>216.9</ele>
        <time>2019-03-17T14:56:19Z</time>
      </trkpt>
      <trkpt lat="44.54229" lon="1.60979">
        <ele>215.5</ele>
        <time>2019-03-17T14:56:25Z</time>
      </trkpt>
      <trkpt lat="44.54232" lon="1.60973">
        <ele>214.6</ele>
        <time>2019-03-17T14:56:30Z</time>
      </trkpt>
      <trkpt lat="44.54234" lon="1.60968">
        <ele>215.4</ele>
        <time>2019-03-17T14:56:33Z</time>
      </trkpt>
      <trkpt lat="44.54238" lon="1.60963">
        <ele>216.1</ele>
        <time>2019-03-17T14:56:38Z</time>
      </trkpt>
      <trkpt lat="44.54242" lon="1.60957">
        <ele>218</ele>
        <time>2019-03-17T14:56:43Z</time>
      </trkpt>
      <trkpt lat="44.54245" lon="1.60953">
        <ele>220</ele>
        <time>2019-03-17T14:56:48Z</time>
      </trkpt>
      <trkpt lat="44.5425" lon="1.60951">
        <ele>221.4</ele>
        <time>2019-03-17T14:56:53Z</time>
      </trkpt>
      <trkpt lat="44.54254" lon="1.60948">
        <ele>223.2</ele>
        <time>2019-03-17T14:56:58Z</time>
      </trkpt>
      <trkpt lat="44.54259" lon="1.60944">
        <ele>224.1</ele>
        <time>2019-03-17T14:57:03Z</time>
      </trkpt>
      <trkpt lat="44.54263" lon="1.60941">
        <ele>225</ele>
        <time>2019-03-17T14:57:08Z</time>
      </trkpt>
      <trkpt lat="44.54267" lon="1.60937">
        <ele>225.8</ele>
        <time>2019-03-17T14:57:13Z</time>
      </trkpt>
      <trkpt lat="44.54272" lon="1.60934">
        <ele>226.5</ele>
        <time>2019-03-17T14:57:17Z</time>
      </trkpt>
      <trkpt lat="44.54276" lon="1.6093">
        <ele>226.4</ele>
        <time>2019-03-17T14:57:22Z</time>
      </trkpt>
      <trkpt lat="44.54281" lon="1.60927">
        <ele>226.1</ele>
        <time>2019-03-17T14:57:27Z</time>
      </trkpt>
      <trkpt lat="44.54285" lon="1.60923">
        <ele>226.4</ele>
        <time>2019-03-17T14:57:32Z</time>
      </trkpt>
      <trkpt lat="44.54291" lon="1.6092">
        <ele>226.9</ele>
        <time>2019-03-17T14:57:37Z</time>
      </trkpt>
      <trkpt lat="44.54295" lon="1.60918">
        <ele>227.3</ele>
        <time>2019-03-17T14:57:41Z</time>
      </trkpt>
      <trkpt lat="44.543" lon="1.60914">
        <ele>227.2</ele>
        <time>2019-03-17T14:57:46Z</time>
      </trkpt>
      <trkpt lat="44.54303" lon="1.6091">
        <ele>227</ele>
        <time>2019-03-17T14:57:50Z</time>
      </trkpt>
      <trkpt lat="44.54308" lon="1.60906">
        <ele>226.6</ele>
        <time>2019-03-17T14:57:55Z</time>
      </trkpt>
      <trkpt lat="44.54311" lon="1.60901">
        <ele>226.5</ele>
        <time>2019-03-17T14:58:00Z</time>
      </trkpt>
      <trkpt lat="44.54316" lon="1.60899">
        <ele>226.1</ele>
        <time>2019-03-17T14:58:06Z</time>
      </trkpt>
      <trkpt lat="44.54321" lon="1.60895">
        <ele>225.9</ele>
        <time>2019-03-17T14:58:11Z</time>
      </trkpt>
      <trkpt lat="44.54325" lon="1.60892">
        <ele>225.5</ele>
        <time>2019-03-17T14:58:17Z</time>
      </trkpt>
      <trkpt lat="44.54329" lon="1.60889">
        <ele>226.4</ele>
        <time>2019-03-17T14:58:21Z</time>
      </trkpt>
      <trkpt lat="44.54334" lon="1.60886">
        <ele>226.9</ele>
        <time>2019-03-17T14:58:25Z</time>
      </trkpt>
      <trkpt lat="44.54339" lon="1.60883">
        <ele>227.1</ele>
        <time>2019-03-17T14:58:30Z</time>
      </trkpt>
      <trkpt lat="44.54343" lon="1.6088">
        <ele>227</ele>
        <time>2019-03-17T14:58:35Z</time>
      </trkpt>
      <trkpt lat="44.54346" lon="1.60875">
        <ele>227.7</ele>
        <time>2019-03-17T14:58:39Z</time>
      </trkpt>
      <trkpt lat="44.5435" lon="1.6087">
        <ele>228.4</ele>
        <time>2019-03-17T14:58:43Z</time>
      </trkpt>
      <trkpt lat="44.54354" lon="1.60866">
        <ele>228.7</ele>
        <time>2019-03-17T14:58:47Z</time>
      </trkpt>
      <trkpt lat="44.54358" lon="1.60863">
        <ele>229.4</ele>
        <time>2019-03-17T14:58:53Z</time>
      </trkpt>
      <trkpt lat="44.54363" lon="1.60863">
        <ele>230.7</ele>
        <time>2019-03-17T14:59:05Z</time>
      </trkpt>
      <trkpt lat="44.54369" lon="1.60862">
        <ele>230.9</ele>
        <time>2019-03-17T14:59:09Z</time>
      </trkpt>
      <trkpt lat="44.54374" lon="1.60861">
        <ele>231.3</ele>
        <time>2019-03-17T14:59:12Z</time>
      </trkpt>
      <trkpt lat="44.54378" lon="1.60859">
        <ele>231.7</ele>
        <time>2019-03-17T14:59:15Z</time>
      </trkpt>
      <trkpt lat="44.54383" lon="1.60857">
        <ele>232</ele>
        <time>2019-03-17T14:59:20Z</time>
      </trkpt>
      <trkpt lat="44.54388" lon="1.60856">
        <ele>232.9</ele>
        <time>2019-03-17T14:59:25Z</time>
      </trkpt>
      <trkpt lat="44.54393" lon="1.60856">
        <ele>233.2</ele>
        <time>2019-03-17T14:59:28Z</time>
      </trkpt>
      <trkpt lat="44.54398" lon="1.60855">
        <ele>233.5</ele>
        <time>2019-03-17T14:59:33Z</time>
      </trkpt>
      <trkpt lat="44.54403" lon="1.60853">
        <ele>234.7</ele>
        <time>2019-03-17T14:59:39Z</time>
      </trkpt>
      <trkpt lat="44.54408" lon="1.60851">
        <ele>235.4</ele>
        <time>2019-03-17T14:59:45Z</time>
      </trkpt>
      <trkpt lat="44.54412" lon="1.60848">
        <ele>234.8</ele>
        <time>2019-03-17T14:59:52Z</time>
      </trkpt>
      <trkpt lat="44.54417" lon="1.60845">
        <ele>234.8</ele>
        <time>2019-03-17T15:00:02Z</time>
      </trkpt>
      <trkpt lat="44.54422" lon="1.60842">
        <ele>234.9</ele>
        <time>2019-03-17T15:00:06Z</time>
      </trkpt>
      <trkpt lat="44.54426" lon="1.6084">
        <ele>234.6</ele>
        <time>2019-03-17T15:00:09Z</time>
      </trkpt>
      <trkpt lat="44.5443" lon="1.60838">
        <ele>234</ele>
        <time>2019-03-17T15:00:13Z</time>
      </trkpt>
      <trkpt lat="44.54435" lon="1.60836">
        <ele>233</ele>
        <time>2019-03-17T15:00:17Z</time>
      </trkpt>
      <trkpt lat="44.5444" lon="1.60835">
        <ele>233.5</ele>
        <time>2019-03-17T15:00:20Z</time>
      </trkpt>
      <trkpt lat="44.54446" lon="1.60835">
        <ele>233.5</ele>
        <time>2019-03-17T15:00:24Z</time>
      </trkpt>
      <trkpt lat="44.5445" lon="1.60834">
        <ele>234.1</ele>
        <time>2019-03-17T15:00:29Z</time>
      </trkpt>
      <trkpt lat="44.54458" lon="1.60829">
        <ele>235.8</ele>
        <time>2019-03-17T15:01:58Z</time>
      </trkpt>
      <trkpt lat="44.54462" lon="1.60828">
        <ele>235.9</ele>
        <time>2019-03-17T15:02:01Z</time>
      </trkpt>
      <trkpt lat="44.54467" lon="1.60826">
        <ele>236.4</ele>
        <time>2019-03-17T15:02:04Z</time>
      </trkpt>
      <trkpt lat="44.54473" lon="1.60826">
        <ele>236.5</ele>
        <time>2019-03-17T15:02:08Z</time>
      </trkpt>
      <trkpt lat="44.54478" lon="1.60824">
        <ele>236.7</ele>
        <time>2019-03-17T15:02:13Z</time>
      </trkpt>
      <trkpt lat="44.54483" lon="1.60822">
        <ele>237.3</ele>
        <time>2019-03-17T15:02:16Z</time>
      </trkpt>
      <trkpt lat="44.54488" lon="1.60821">
        <ele>237.2</ele>
        <time>2019-03-17T15:02:20Z</time>
      </trkpt>
      <trkpt lat="44.54493" lon="1.6082">
        <ele>237.2</ele>
        <time>2019-03-17T15:02:24Z</time>
      </trkpt>
      <trkpt lat="44.54498" lon="1.60818">
        <ele>237.9</ele>
        <time>2019-03-17T15:02:28Z</time>
      </trkpt>
      <trkpt lat="44.54503" lon="1.60817">
        <ele>238.4</ele>
        <time>2019-03-17T15:02:32Z</time>
      </trkpt>
      <trkpt lat="44.54507" lon="1.60812">
        <ele>238.5</ele>
        <time>2019-03-17T15:02:37Z</time>
      </trkpt>
      <trkpt lat="44.54512" lon="1.60809">
        <ele>236.8</ele>
        <time>2019-03-17T15:02:43Z</time>
      </trkpt>
      <trkpt lat="44.54516" lon="1.60806">
        <ele>238</ele>
        <time>2019-03-17T15:02:47Z</time>
      </trkpt>
      <trkpt lat="44.5452" lon="1.60803">
        <ele>239.2</ele>
        <time>2019-03-17T15:02:51Z</time>
      </trkpt>
      <trkpt lat="44.54525" lon="1.608">
        <ele>241.1</ele>
        <time>2019-03-17T15:02:59Z</time>
      </trkpt>
      <trkpt lat="44.5453" lon="1.60798">
        <ele>243.5</ele>
        <time>2019-03-17T15:03:03Z</time>
      </trkpt>
      <trkpt lat="44.54535" lon="1.60797">
        <ele>244.7</ele>
        <time>2019-03-17T15:03:07Z</time>
      </trkpt>
      <trkpt lat="44.54539" lon="1.60793">
        <ele>246</ele>
        <time>2019-03-17T15:03:13Z</time>
      </trkpt>
      <trkpt lat="44.54543" lon="1.6079">
        <ele>247.3</ele>
        <time>2019-03-17T15:03:19Z</time>
      </trkpt>
      <trkpt lat="44.54548" lon="1.60786">
        <ele>246.3</ele>
        <time>2019-03-17T15:03:24Z</time>
      </trkpt>
      <trkpt lat="44.54551" lon="1.6078">
        <ele>245.4</ele>
        <time>2019-03-17T15:03:29Z</time>
      </trkpt>
      <trkpt lat="44.54556" lon="1.60776">
        <ele>244.7</ele>
        <time>2019-03-17T15:03:33Z</time>
      </trkpt>
      <trkpt lat="44.5456" lon="1.60772">
        <ele>244.1</ele>
        <time>2019-03-17T15:03:37Z</time>
      </trkpt>
      <trkpt lat="44.54562" lon="1.60766">
        <ele>243.7</ele>
        <time>2019-03-17T15:03:42Z</time>
      </trkpt>
      <trkpt lat="44.54565" lon="1.6076">
        <ele>243.5</ele>
        <time>2019-03-17T15:03:47Z</time>
      </trkpt>
      <trkpt lat="44.54568" lon="1.60755">
        <ele>243.3</ele>
        <time>2019-03-17T15:03:52Z</time>
      </trkpt>
      <trkpt lat="44.54571" lon="1.60749">
        <ele>243.1</ele>
        <time>2019-03-17T15:03:57Z</time>
      </trkpt>
      <trkpt lat="44.54576" lon="1.60747">
        <ele>243.1</ele>
        <time>2019-03-17T15:04:00Z</time>
      </trkpt>
      <trkpt lat="44.5458" lon="1.60745">
        <ele>243.8</ele>
        <time>2019-03-17T15:04:04Z</time>
      </trkpt>
      <trkpt lat="44.54585" lon="1.60748">
        <ele>244</ele>
        <time>2019-03-17T15:04:11Z</time>
      </trkpt>
      <trkpt lat="44.5459" lon="1.60752">
        <ele>243.5</ele>
        <time>2019-03-17T15:04:15Z</time>
      </trkpt>
      <trkpt lat="44.54594" lon="1.60755">
        <ele>243.4</ele>
        <time>2019-03-17T15:04:19Z</time>
      </trkpt>
      <trkpt lat="44.54598" lon="1.60758">
        <ele>243.7</ele>
        <time>2019-03-17T15:04:23Z</time>
      </trkpt>
      <trkpt lat="44.54603" lon="1.60759">
        <ele>242.6</ele>
        <time>2019-03-17T15:04:28Z</time>
      </trkpt>
      <trkpt lat="44.54608" lon="1.6076">
        <ele>241.8</ele>
        <time>2019-03-17T15:04:32Z</time>
      </trkpt>
      <trkpt lat="44.54613" lon="1.6076">
        <ele>241.7</ele>
        <time>2019-03-17T15:04:36Z</time>
      </trkpt>
      <trkpt lat="44.54618" lon="1.6076">
        <ele>241.4</ele>
        <time>2019-03-17T15:04:41Z</time>
      </trkpt>
      <trkpt lat="44.54623" lon="1.60758">
        <ele>241.9</ele>
        <time>2019-03-17T15:04:45Z</time>
      </trkpt>
      <trkpt lat="44.54628" lon="1.60756">
        <ele>242.8</ele>
        <time>2019-03-17T15:04:49Z</time>
      </trkpt>
      <trkpt lat="44.54633" lon="1.60753">
        <ele>243.3</ele>
        <time>2019-03-17T15:04:53Z</time>
      </trkpt>
      <trkpt lat="44.54638" lon="1.60751">
        <ele>243.9</ele>
        <time>2019-03-17T15:04:57Z</time>
      </trkpt>
      <trkpt lat="44.54643" lon="1.60747">
        <ele>244.3</ele>
        <time>2019-03-17T15:05:01Z</time>
      </trkpt>
      <trkpt lat="44.54647" lon="1.60743">
        <ele>244.3</ele>
        <time>2019-03-17T15:05:06Z</time>
      </trkpt>
      <trkpt lat="44.54652" lon="1.60739">
        <ele>245</ele>
        <time>2019-03-17T15:05:10Z</time>
      </trkpt>
      <trkpt lat="44.54654" lon="1.60733">
        <ele>245.7</ele>
        <time>2019-03-17T15:05:15Z</time>
      </trkpt>
      <trkpt lat="44.54658" lon="1.60728">
        <ele>245.9</ele>
        <time>2019-03-17T15:05:19Z</time>
      </trkpt>
      <trkpt lat="44.54661" lon="1.60723">
        <ele>246.4</ele>
        <time>2019-03-17T15:05:24Z</time>
      </trkpt>
      <trkpt lat="44.54664" lon="1.60718">
        <ele>246.6</ele>
        <time>2019-03-17T15:05:29Z</time>
      </trkpt>
      <trkpt lat="44.54667" lon="1.60712">
        <ele>246.6</ele>
        <time>2019-03-17T15:05:33Z</time>
      </trkpt>
      <trkpt lat="44.54671" lon="1.60708">
        <ele>246.9</ele>
        <time>2019-03-17T15:05:37Z</time>
      </trkpt>
      <trkpt lat="44.54675" lon="1.60704">
        <ele>246.8</ele>
        <time>2019-03-17T15:05:41Z</time>
      </trkpt>
      <trkpt lat="44.54679" lon="1.60702">
        <ele>246</ele>
        <time>2019-03-17T15:05:45Z</time>
      </trkpt>
      <trkpt lat="44.54684" lon="1.60699">
        <ele>244.5</ele>
        <time>2019-03-17T15:05:50Z</time>
      </trkpt>
      <trkpt lat="44.54687" lon="1.60693">
        <ele>245.1</ele>
        <time>2019-03-17T15:05:54Z</time>
      </trkpt>
      <trkpt lat="44.54691" lon="1.60688">
        <ele>245</ele>
        <time>2019-03-17T15:05:59Z</time>
      </trkpt>
      <trkpt lat="44.54694" lon="1.60683">
        <ele>245.6</ele>
        <time>2019-03-17T15:06:04Z</time>
      </trkpt>
      <trkpt lat="44.54698" lon="1.60678">
        <ele>246.9</ele>
        <time>2019-03-17T15:06:07Z</time>
      </trkpt>
      <trkpt lat="44.54701" lon="1.60673">
        <ele>248</ele>
        <time>2019-03-17T15:06:11Z</time>
      </trkpt>
      <trkpt lat="44.54705" lon="1.60667">
        <ele>249</ele>
        <time>2019-03-17T15:06:15Z</time>
      </trkpt>
      <trkpt lat="44.54708" lon="1.60661">
        <ele>249.3</ele>
        <time>2019-03-17T15:06:20Z</time>
      </trkpt>
      <trkpt lat="44.54712" lon="1.60656">
        <ele>249.6</ele>
        <time>2019-03-17T15:06:24Z</time>
      </trkpt>
      <trkpt lat="44.54717" lon="1.60654">
        <ele>249.5</ele>
        <time>2019-03-17T15:06:27Z</time>
      </trkpt>
      <trkpt lat="44.5472" lon="1.60648">
        <ele>250</ele>
        <time>2019-03-17T15:06:31Z</time>
      </trkpt>
      <trkpt lat="44.54723" lon="1.60643">
        <ele>250.5</ele>
        <time>2019-03-17T15:06:35Z</time>
      </trkpt>
      <trkpt lat="44.54727" lon="1.6064">
        <ele>250.7</ele>
        <time>2019-03-17T15:06:39Z</time>
      </trkpt>
      <trkpt lat="44.54731" lon="1.60634">
        <ele>251.7</ele>
        <time>2019-03-17T15:06:43Z</time>
      </trkpt>
      <trkpt lat="44.54732" lon="1.60627">
        <ele>252.3</ele>
        <time>2019-03-17T15:06:49Z</time>
      </trkpt>
      <trkpt lat="44.54733" lon="1.6062">
        <ele>252.9</ele>
        <time>2019-03-17T15:06:55Z</time>
      </trkpt>
      <trkpt lat="44.54736" lon="1.60614">
        <ele>252.6</ele>
        <time>2019-03-17T15:07:00Z</time>
      </trkpt>
      <trkpt lat="44.54739" lon="1.60608">
        <ele>252.5</ele>
        <time>2019-03-17T15:07:05Z</time>
      </trkpt>
      <trkpt lat="44.54741" lon="1.60602">
        <ele>252.1</ele>
        <time>2019-03-17T15:07:14Z</time>
      </trkpt>
      <trkpt lat="44.54744" lon="1.60595">
        <ele>251</ele>
        <time>2019-03-17T15:07:23Z</time>
      </trkpt>
      <trkpt lat="44.54747" lon="1.60589">
        <ele>249.2</ele>
        <time>2019-03-17T15:07:28Z</time>
      </trkpt>
      <trkpt lat="44.54748" lon="1.60582">
        <ele>248.6</ele>
        <time>2019-03-17T15:07:32Z</time>
      </trkpt>
      <trkpt lat="44.5475" lon="1.60575">
        <ele>247.7</ele>
        <time>2019-03-17T15:07:36Z</time>
      </trkpt>
      <trkpt lat="44.54751" lon="1.60568">
        <ele>246.9</ele>
        <time>2019-03-17T15:07:41Z</time>
      </trkpt>
      <trkpt lat="44.54753" lon="1.60561">
        <ele>245.9</ele>
        <time>2019-03-17T15:07:48Z</time>
      </trkpt>
      <trkpt lat="44.54755" lon="1.60553">
        <ele>245</ele>
        <time>2019-03-17T15:07:52Z</time>
      </trkpt>
      <trkpt lat="44.54756" lon="1.60546">
        <ele>244.1</ele>
        <time>2019-03-17T15:07:56Z</time>
      </trkpt>
      <trkpt lat="44.54758" lon="1.60538">
        <ele>243.1</ele>
        <time>2019-03-17T15:08:00Z</time>
      </trkpt>
      <trkpt lat="44.5476" lon="1.60531">
        <ele>242.3</ele>
        <time>2019-03-17T15:08:06Z</time>
      </trkpt>
      <trkpt lat="44.54762" lon="1.60523">
        <ele>243.5</ele>
        <time>2019-03-17T15:08:10Z</time>
      </trkpt>
      <trkpt lat="44.54764" lon="1.60517">
        <ele>244.1</ele>
        <time>2019-03-17T15:08:13Z</time>
      </trkpt>
      <trkpt lat="44.54767" lon="1.6051">
        <ele>245.4</ele>
        <time>2019-03-17T15:08:18Z</time>
      </trkpt>
      <trkpt lat="44.54769" lon="1.60503">
        <ele>246.4</ele>
        <time>2019-03-17T15:08:22Z</time>
      </trkpt>
      <trkpt lat="44.54771" lon="1.60497">
        <ele>246.8</ele>
        <time>2019-03-17T15:08:27Z</time>
      </trkpt>
      <trkpt lat="44.54775" lon="1.6049">
        <ele>247.2</ele>
        <time>2019-03-17T15:08:31Z</time>
      </trkpt>
      <trkpt lat="44.54778" lon="1.60483">
        <ele>247.8</ele>
        <time>2019-03-17T15:08:34Z</time>
      </trkpt>
      <trkpt lat="44.54782" lon="1.60478">
        <ele>247.9</ele>
        <time>2019-03-17T15:08:38Z</time>
      </trkpt>
      <trkpt lat="44.54785" lon="1.60472">
        <ele>248.4</ele>
        <time>2019-03-17T15:08:42Z</time>
      </trkpt>
      <trkpt lat="44.54788" lon="1.60465">
        <ele>249.4</ele>
        <time>2019-03-17T15:08:46Z</time>
      </trkpt>
      <trkpt lat="44.54791" lon="1.60459">
        <ele>250.5</ele>
        <time>2019-03-17T15:08:50Z</time>
      </trkpt>
      <trkpt lat="44.54795" lon="1.60455">
        <ele>251.7</ele>
        <time>2019-03-17T15:08:53Z</time>
      </trkpt>
      <trkpt lat="44.54799" lon="1.60451">
        <ele>252.5</ele>
        <time>2019-03-17T15:08:56Z</time>
      </trkpt>
      <trkpt lat="44.54802" lon="1.60446">
        <ele>252.9</ele>
        <time>2019-03-17T15:09:00Z</time>
      </trkpt>
      <trkpt lat="44.54808" lon="1.60441">
        <ele>254.3</ele>
        <time>2019-03-17T15:09:04Z</time>
      </trkpt>
      <trkpt lat="44.54813" lon="1.60441">
        <ele>254.4</ele>
        <time>2019-03-17T15:09:07Z</time>
      </trkpt>
      <trkpt lat="44.54818" lon="1.60441">
        <ele>254.8</ele>
        <time>2019-03-17T15:09:09Z</time>
      </trkpt>
      <trkpt lat="44.5482" lon="1.60434">
        <ele>255.4</ele>
        <time>2019-03-17T15:09:16Z</time>
      </trkpt>
      <trkpt lat="44.54826" lon="1.60435">
        <ele>255.8</ele>
        <time>2019-03-17T15:09:20Z</time>
      </trkpt>
      <trkpt lat="44.54831" lon="1.60435">
        <ele>256.5</ele>
        <time>2019-03-17T15:09:24Z</time>
      </trkpt>
      <trkpt lat="44.54836" lon="1.60434">
        <ele>258.5</ele>
        <time>2019-03-17T15:09:28Z</time>
      </trkpt>
      <trkpt lat="44.5484" lon="1.6044">
        <ele>260.1</ele>
        <time>2019-03-17T15:09:34Z</time>
      </trkpt>
      <trkpt lat="44.54845" lon="1.60441">
        <ele>261.4</ele>
        <time>2019-03-17T15:09:40Z</time>
      </trkpt>
      <trkpt lat="44.5485" lon="1.60444">
        <ele>262.7</ele>
        <time>2019-03-17T15:09:46Z</time>
      </trkpt>
      <trkpt lat="44.54854" lon="1.60449">
        <ele>263.4</ele>
        <time>2019-03-17T15:09:53Z</time>
      </trkpt>
      <trkpt lat="44.5486" lon="1.60452">
        <ele>261.8</ele>
        <time>2019-03-17T15:09:59Z</time>
      </trkpt>
      <trkpt lat="44.54866" lon="1.60456">
        <ele>261.2</ele>
        <time>2019-03-17T15:10:02Z</time>
      </trkpt>
      <trkpt lat="44.54872" lon="1.60459">
        <ele>260.5</ele>
        <time>2019-03-17T15:10:05Z</time>
      </trkpt>
      <trkpt lat="44.54876" lon="1.60461">
        <ele>261</ele>
        <time>2019-03-17T15:10:08Z</time>
      </trkpt>
      <trkpt lat="44.54881" lon="1.60463">
        <ele>261.6</ele>
        <time>2019-03-17T15:10:12Z</time>
      </trkpt>
      <trkpt lat="44.54886" lon="1.60463">
        <ele>262.4</ele>
        <time>2019-03-17T15:10:20Z</time>
      </trkpt>
      <trkpt lat="44.5489" lon="1.60465">
        <ele>263.3</ele>
        <time>2019-03-17T15:10:29Z</time>
      </trkpt>
      <trkpt lat="44.54897" lon="1.60464">
        <ele>263.4</ele>
        <time>2019-03-17T15:10:39Z</time>
      </trkpt>
      <trkpt lat="44.54903" lon="1.60465">
        <ele>263.8</ele>
        <time>2019-03-17T15:10:42Z</time>
      </trkpt>
      <trkpt lat="44.54907" lon="1.60468">
        <ele>263.1</ele>
        <time>2019-03-17T15:10:45Z</time>
      </trkpt>
      <trkpt lat="44.54912" lon="1.60471">
        <ele>261.9</ele>
        <time>2019-03-17T15:10:47Z</time>
      </trkpt>
      <trkpt lat="44.54916" lon="1.60474">
        <ele>260.7</ele>
        <time>2019-03-17T15:10:49Z</time>
      </trkpt>
      <trkpt lat="44.5492" lon="1.60476">
        <ele>260.3</ele>
        <time>2019-03-17T15:10:52Z</time>
      </trkpt>
      <trkpt lat="44.54926" lon="1.60478">
        <ele>260</ele>
        <time>2019-03-17T15:10:55Z</time>
      </trkpt>
      <trkpt lat="44.54931" lon="1.60478">
        <ele>259.8</ele>
        <time>2019-03-17T15:10:59Z</time>
      </trkpt>
      <trkpt lat="44.54936" lon="1.60479">
        <ele>259.4</ele>
        <time>2019-03-17T15:11:04Z</time>
      </trkpt>
      <trkpt lat="44.54941" lon="1.60479">
        <ele>259.3</ele>
        <time>2019-03-17T15:11:18Z</time>
      </trkpt>
      <trkpt lat="44.54946" lon="1.6048">
        <ele>257.7</ele>
        <time>2019-03-17T15:11:21Z</time>
      </trkpt>
      <trkpt lat="44.54951" lon="1.60482">
        <ele>257.2</ele>
        <time>2019-03-17T15:11:23Z</time>
      </trkpt>
      <trkpt lat="44.54958" lon="1.60485">
        <ele>256.8</ele>
        <time>2019-03-17T15:11:25Z</time>
      </trkpt>
      <trkpt lat="44.54963" lon="1.60487">
        <ele>257.8</ele>
        <time>2019-03-17T15:11:28Z</time>
      </trkpt>
      <trkpt lat="44.54968" lon="1.6049">
        <ele>259.2</ele>
        <time>2019-03-17T15:11:34Z</time>
      </trkpt>
      <trkpt lat="44.54975" lon="1.6049">
        <ele>260.4</ele>
        <time>2019-03-17T15:11:38Z</time>
      </trkpt>
      <trkpt lat="44.5498" lon="1.6049">
        <ele>260.7</ele>
        <time>2019-03-17T15:11:42Z</time>
      </trkpt>
      <trkpt lat="44.54984" lon="1.60491">
        <ele>262.5</ele>
        <time>2019-03-17T15:11:57Z</time>
      </trkpt>
      <trkpt lat="44.54989" lon="1.60491">
        <ele>262.4</ele>
        <time>2019-03-17T15:12:22Z</time>
      </trkpt>
      <trkpt lat="44.54994" lon="1.60492">
        <ele>262.3</ele>
        <time>2019-03-17T15:12:26Z</time>
      </trkpt>
      <trkpt lat="44.54999" lon="1.6049">
        <ele>262.5</ele>
        <time>2019-03-17T15:12:30Z</time>
      </trkpt>
      <trkpt lat="44.55004" lon="1.60489">
        <ele>262.6</ele>
        <time>2019-03-17T15:12:33Z</time>
      </trkpt>
      <trkpt lat="44.55009" lon="1.60491">
        <ele>263</ele>
        <time>2019-03-17T15:12:38Z</time>
      </trkpt>
      <trkpt lat="44.55013" lon="1.60493">
        <ele>263.5</ele>
        <time>2019-03-17T15:12:40Z</time>
      </trkpt>
      <trkpt lat="44.55019" lon="1.60495">
        <ele>263.6</ele>
        <time>2019-03-17T15:12:43Z</time>
      </trkpt>
      <trkpt lat="44.55024" lon="1.60496">
        <ele>263</ele>
        <time>2019-03-17T15:12:47Z</time>
      </trkpt>
      <trkpt lat="44.5503" lon="1.60497">
        <ele>261.6</ele>
        <time>2019-03-17T15:12:52Z</time>
      </trkpt>
      <trkpt lat="44.55036" lon="1.60498">
        <ele>261.5</ele>
        <time>2019-03-17T15:12:55Z</time>
      </trkpt>
      <trkpt lat="44.5504" lon="1.60501">
        <ele>261.8</ele>
        <time>2019-03-17T15:13:02Z</time>
      </trkpt>
      <trkpt lat="44.55045" lon="1.60501">
        <ele>263.1</ele>
        <time>2019-03-17T15:13:05Z</time>
      </trkpt>
      <trkpt lat="44.55051" lon="1.60505">
        <ele>263.5</ele>
        <time>2019-03-17T15:13:08Z</time>
      </trkpt>
      <trkpt lat="44.55055" lon="1.60504">
        <ele>264.5</ele>
        <time>2019-03-17T15:13:13Z</time>
      </trkpt>
      <trkpt lat="44.55061" lon="1.60505">
        <ele>264.8</ele>
        <time>2019-03-17T15:13:16Z</time>
      </trkpt>
      <trkpt lat="44.55066" lon="1.60508">
        <ele>265.1</ele>
        <time>2019-03-17T15:13:19Z</time>
      </trkpt>
      <trkpt lat="44.55071" lon="1.6051">
        <ele>265.4</ele>
        <time>2019-03-17T15:13:22Z</time>
      </trkpt>
      <trkpt lat="44.55079" lon="1.60512">
        <ele>265.5</ele>
        <time>2019-03-17T15:13:26Z</time>
      </trkpt>
      <trkpt lat="44.55083" lon="1.6051">
        <ele>264.5</ele>
        <time>2019-03-17T15:13:34Z</time>
      </trkpt>
      <trkpt lat="44.55089" lon="1.60509">
        <ele>264.1</ele>
        <time>2019-03-17T15:13:37Z</time>
      </trkpt>
      <trkpt lat="44.55097" lon="1.60502">
        <ele>265</ele>
        <time>2019-03-17T15:15:15Z</time>
      </trkpt>
      <trkpt lat="44.55103" lon="1.605">
        <ele>265.2</ele>
        <time>2019-03-17T15:15:18Z</time>
      </trkpt>
      <trkpt lat="44.55109" lon="1.60501">
        <ele>265.1</ele>
        <time>2019-03-17T15:15:21Z</time>
      </trkpt>
      <trkpt lat="44.55115" lon="1.605">
        <ele>266.5</ele>
        <time>2019-03-17T15:15:25Z</time>
      </trkpt>
      <trkpt lat="44.5512" lon="1.605">
        <ele>268.2</ele>
        <time>2019-03-17T15:15:29Z</time>
      </trkpt>
      <trkpt lat="44.55125" lon="1.60501">
        <ele>269.9</ele>
        <time>2019-03-17T15:15:33Z</time>
      </trkpt>
      <trkpt lat="44.5513" lon="1.60503">
        <ele>270.5</ele>
        <time>2019-03-17T15:15:39Z</time>
      </trkpt>
      <trkpt lat="44.55135" lon="1.60504">
        <ele>270.3</ele>
        <time>2019-03-17T15:15:44Z</time>
      </trkpt>
      <trkpt lat="44.55142" lon="1.60506">
        <ele>270.7</ele>
        <time>2019-03-17T15:15:47Z</time>
      </trkpt>
      <trkpt lat="44.5515" lon="1.60508">
        <ele>271.6</ele>
        <time>2019-03-17T15:15:49Z</time>
      </trkpt>
      <trkpt lat="44.55154" lon="1.6051">
        <ele>272.1</ele>
        <time>2019-03-17T15:15:51Z</time>
      </trkpt>
      <trkpt lat="44.5516" lon="1.60511">
        <ele>274.2</ele>
        <time>2019-03-17T15:15:55Z</time>
      </trkpt>
      <trkpt lat="44.55165" lon="1.60511">
        <ele>274</ele>
        <time>2019-03-17T15:16:00Z</time>
      </trkpt>
      <trkpt lat="44.5517" lon="1.60514">
        <ele>273.8</ele>
        <time>2019-03-17T15:16:06Z</time>
      </trkpt>
      <trkpt lat="44.55174" lon="1.60515">
        <ele>273.8</ele>
        <time>2019-03-17T15:16:10Z</time>
      </trkpt>
      <trkpt lat="44.55179" lon="1.60517">
        <ele>273.6</ele>
        <time>2019-03-17T15:16:14Z</time>
      </trkpt>
      <trkpt lat="44.55184" lon="1.60518">
        <ele>275.2</ele>
        <time>2019-03-17T15:16:21Z</time>
      </trkpt>
      <trkpt lat="44.5519" lon="1.60522">
        <ele>275.1</ele>
        <time>2019-03-17T15:16:34Z</time>
      </trkpt>
      <trkpt lat="44.55195" lon="1.60526">
        <ele>275.2</ele>
        <time>2019-03-17T15:16:38Z</time>
      </trkpt>
      <trkpt lat="44.55199" lon="1.60532">
        <ele>274.4</ele>
        <time>2019-03-17T15:16:44Z</time>
      </trkpt>
      <trkpt lat="44.55203" lon="1.60537">
        <ele>275</ele>
        <time>2019-03-17T15:16:47Z</time>
      </trkpt>
      <trkpt lat="44.55208" lon="1.60541">
        <ele>275.2</ele>
        <time>2019-03-17T15:16:50Z</time>
      </trkpt>
      <trkpt lat="44.55209" lon="1.60548">
        <ele>275.1</ele>
        <time>2019-03-17T15:16:56Z</time>
      </trkpt>
      <trkpt lat="44.55212" lon="1.60555">
        <ele>276</ele>
        <time>2019-03-17T15:17:01Z</time>
      </trkpt>
      <trkpt lat="44.55212" lon="1.60562">
        <ele>274.1</ele>
        <time>2019-03-17T15:17:12Z</time>
      </trkpt>
      <trkpt lat="44.55214" lon="1.60569">
        <ele>273.6</ele>
        <time>2019-03-17T15:17:16Z</time>
      </trkpt>
      <trkpt lat="44.55217" lon="1.60575">
        <ele>274.8</ele>
        <time>2019-03-17T15:17:19Z</time>
      </trkpt>
      <trkpt lat="44.55219" lon="1.60581">
        <ele>275.7</ele>
        <time>2019-03-17T15:17:22Z</time>
      </trkpt>
      <trkpt lat="44.55218" lon="1.60588">
        <ele>276.7</ele>
        <time>2019-03-17T15:17:26Z</time>
      </trkpt>
      <trkpt lat="44.55218" lon="1.60595">
        <ele>277.6</ele>
        <time>2019-03-17T15:17:31Z</time>
      </trkpt>
      <trkpt lat="44.55218" lon="1.60602">
        <ele>277.2</ele>
        <time>2019-03-17T15:17:36Z</time>
      </trkpt>
      <trkpt lat="44.55218" lon="1.60609">
        <ele>276.1</ele>
        <time>2019-03-17T15:17:41Z</time>
      </trkpt>
      <trkpt lat="44.55219" lon="1.60615">
        <ele>275.1</ele>
        <time>2019-03-17T15:17:47Z</time>
      </trkpt>
      <trkpt lat="44.55223" lon="1.6062">
        <ele>275.7</ele>
        <time>2019-03-17T15:17:53Z</time>
      </trkpt>
      <trkpt lat="44.55227" lon="1.6063">
        <ele>272.2</ele>
        <time>2019-03-17T15:22:15Z</time>
      </trkpt>
      <trkpt lat="44.55227" lon="1.60638">
        <ele>272.8</ele>
        <time>2019-03-17T15:22:19Z</time>
      </trkpt>
      <trkpt lat="44.55231" lon="1.60644">
        <ele>273</ele>
        <time>2019-03-17T15:22:24Z</time>
      </trkpt>
      <trkpt lat="44.55234" lon="1.60648">
        <ele>274.4</ele>
        <time>2019-03-17T15:22:27Z</time>
      </trkpt>
      <trkpt lat="44.55238" lon="1.60654">
        <ele>275.5</ele>
        <time>2019-03-17T15:22:32Z</time>
      </trkpt>
      <trkpt lat="44.55241" lon="1.60659">
        <ele>275.8</ele>
        <time>2019-03-17T15:22:36Z</time>
      </trkpt>
      <trkpt lat="44.55245" lon="1.60665">
        <ele>275.7</ele>
        <time>2019-03-17T15:22:41Z</time>
      </trkpt>
      <trkpt lat="44.55249" lon="1.6067">
        <ele>276.2</ele>
        <time>2019-03-17T15:22:45Z</time>
      </trkpt>
      <trkpt lat="44.55254" lon="1.60677">
        <ele>277.6</ele>
        <time>2019-03-17T15:22:49Z</time>
      </trkpt>
      <trkpt lat="44.55257" lon="1.60682">
        <ele>279</ele>
        <time>2019-03-17T15:22:52Z</time>
      </trkpt>
      <trkpt lat="44.55261" lon="1.60688">
        <ele>280.4</ele>
        <time>2019-03-17T15:22:55Z</time>
      </trkpt>
      <trkpt lat="44.55263" lon="1.60695">
        <ele>280.8</ele>
        <time>2019-03-17T15:22:59Z</time>
      </trkpt>
      <trkpt lat="44.55266" lon="1.60701">
        <ele>281.2</ele>
        <time>2019-03-17T15:23:02Z</time>
      </trkpt>
      <trkpt lat="44.55268" lon="1.60706">
        <ele>281.5</ele>
        <time>2019-03-17T15:23:06Z</time>
      </trkpt>
      <trkpt lat="44.55269" lon="1.60714">
        <ele>281.4</ele>
        <time>2019-03-17T15:23:12Z</time>
      </trkpt>
      <trkpt lat="44.55269" lon="1.60721">
        <ele>281.5</ele>
        <time>2019-03-17T15:23:16Z</time>
      </trkpt>
      <trkpt lat="44.55271" lon="1.60728">
        <ele>280.9</ele>
        <time>2019-03-17T15:23:21Z</time>
      </trkpt>
      <trkpt lat="44.55272" lon="1.60735">
        <ele>280.2</ele>
        <time>2019-03-17T15:23:26Z</time>
      </trkpt>
      <trkpt lat="44.55271" lon="1.60741">
        <ele>278.2</ele>
        <time>2019-03-17T15:23:31Z</time>
      </trkpt>
      <trkpt lat="44.55273" lon="1.60747">
        <ele>277.7</ele>
        <time>2019-03-17T15:23:34Z</time>
      </trkpt>
      <trkpt lat="44.55276" lon="1.60755">
        <ele>278.6</ele>
        <time>2019-03-17T15:23:37Z</time>
      </trkpt>
      <trkpt lat="44.55276" lon="1.60761">
        <ele>279</ele>
        <time>2019-03-17T15:23:41Z</time>
      </trkpt>
      <trkpt lat="44.55278" lon="1.60768">
        <ele>278.8</ele>
        <time>2019-03-17T15:23:46Z</time>
      </trkpt>
      <trkpt lat="44.55282" lon="1.60771">
        <ele>279</ele>
        <time>2019-03-17T15:23:50Z</time>
      </trkpt>
      <trkpt lat="44.55287" lon="1.60773">
        <ele>279.6</ele>
        <time>2019-03-17T15:23:54Z</time>
      </trkpt>
      <trkpt lat="44.55291" lon="1.60774">
        <ele>280.6</ele>
        <time>2019-03-17T15:23:58Z</time>
      </trkpt>
      <trkpt lat="44.55296" lon="1.60775">
        <ele>281</ele>
        <time>2019-03-17T15:24:02Z</time>
      </trkpt>
      <trkpt lat="44.55302" lon="1.60773">
        <ele>281.4</ele>
        <time>2019-03-17T15:24:05Z</time>
      </trkpt>
      <trkpt lat="44.55307" lon="1.60773">
        <ele>282.2</ele>
        <time>2019-03-17T15:24:08Z</time>
      </trkpt>
      <trkpt lat="44.55312" lon="1.60772">
        <ele>282.6</ele>
        <time>2019-03-17T15:24:11Z</time>
      </trkpt>
      <trkpt lat="44.55317" lon="1.6077">
        <ele>282.8</ele>
        <time>2019-03-17T15:24:15Z</time>
      </trkpt>
      <trkpt lat="44.55323" lon="1.60768">
        <ele>282.2</ele>
        <time>2019-03-17T15:24:20Z</time>
      </trkpt>
      <trkpt lat="44.55328" lon="1.60767">
        <ele>282.3</ele>
        <time>2019-03-17T15:24:24Z</time>
      </trkpt>
      <trkpt lat="44.55333" lon="1.60765">
        <ele>280.5</ele>
        <time>2019-03-17T15:24:37Z</time>
      </trkpt>
      <trkpt lat="44.55339" lon="1.60764">
        <ele>280</ele>
        <time>2019-03-17T15:24:40Z</time>
      </trkpt>
      <trkpt lat="44.55344" lon="1.60763">
        <ele>280.1</ele>
        <time>2019-03-17T15:24:42Z</time>
      </trkpt>
      <trkpt lat="44.55348" lon="1.60761">
        <ele>279.6</ele>
        <time>2019-03-17T15:24:46Z</time>
      </trkpt>
      <trkpt lat="44.55353" lon="1.60758">
        <ele>278.9</ele>
        <time>2019-03-17T15:24:58Z</time>
      </trkpt>
      <trkpt lat="44.55358" lon="1.60753">
        <ele>278.8</ele>
        <time>2019-03-17T15:25:01Z</time>
      </trkpt>
      <trkpt lat="44.55363" lon="1.60751">
        <ele>279.1</ele>
        <time>2019-03-17T15:25:03Z</time>
      </trkpt>
      <trkpt lat="44.55368" lon="1.60748">
        <ele>278.8</ele>
        <time>2019-03-17T15:25:06Z</time>
      </trkpt>
      <trkpt lat="44.55374" lon="1.60746">
        <ele>279</ele>
        <time>2019-03-17T15:25:09Z</time>
      </trkpt>
      <trkpt lat="44.55377" lon="1.60741">
        <ele>278.5</ele>
        <time>2019-03-17T15:25:14Z</time>
      </trkpt>
      <trkpt lat="44.55382" lon="1.60738">
        <ele>277.9</ele>
        <time>2019-03-17T15:25:20Z</time>
      </trkpt>
      <trkpt lat="44.55385" lon="1.60732">
        <ele>278.3</ele>
        <time>2019-03-17T15:25:26Z</time>
      </trkpt>
      <trkpt lat="44.55389" lon="1.60727">
        <ele>279.2</ele>
        <time>2019-03-17T15:25:30Z</time>
      </trkpt>
      <trkpt lat="44.55403" lon="1.60711">
        <ele>280.3</ele>
        <time>2019-03-17T15:25:39Z</time>
      </trkpt>
      <trkpt lat="44.55407" lon="1.60712">
        <ele>279.7</ele>
        <time>2019-03-17T15:25:44Z</time>
      </trkpt>
      <trkpt lat="44.55412" lon="1.60709">
        <ele>279.2</ele>
        <time>2019-03-17T15:25:50Z</time>
      </trkpt>
      <trkpt lat="44.55415" lon="1.60703">
        <ele>280.7</ele>
        <time>2019-03-17T15:25:56Z</time>
      </trkpt>
      <trkpt lat="44.55421" lon="1.60702">
        <ele>281.9</ele>
        <time>2019-03-17T15:25:59Z</time>
      </trkpt>
      <trkpt lat="44.55425" lon="1.607">
        <ele>282.3</ele>
        <time>2019-03-17T15:26:03Z</time>
      </trkpt>
      <trkpt lat="44.5543" lon="1.60699">
        <ele>283.4</ele>
        <time>2019-03-17T15:26:10Z</time>
      </trkpt>
      <trkpt lat="44.55435" lon="1.60696">
        <ele>282.7</ele>
        <time>2019-03-17T15:26:15Z</time>
      </trkpt>
      <trkpt lat="44.55439" lon="1.60691">
        <ele>281.9</ele>
        <time>2019-03-17T15:26:22Z</time>
      </trkpt>
      <trkpt lat="44.55444" lon="1.6069">
        <ele>281.6</ele>
        <time>2019-03-17T15:26:25Z</time>
      </trkpt>
      <trkpt lat="44.55449" lon="1.6069">
        <ele>281.5</ele>
        <time>2019-03-17T15:26:28Z</time>
      </trkpt>
      <trkpt lat="44.55455" lon="1.60688">
        <ele>281.2</ele>
        <time>2019-03-17T15:26:35Z</time>
      </trkpt>
      <trkpt lat="44.5546" lon="1.60686">
        <ele>279.8</ele>
        <time>2019-03-17T15:26:47Z</time>
      </trkpt>
      <trkpt lat="44.55457" lon="1.60685">
        <ele>278.7</ele>
        <time>2019-03-17T15:27:52Z</time>
      </trkpt>
      <trkpt lat="44.55454" lon="1.60691">
        <ele>281</ele>
        <time>2019-03-17T15:28:04Z</time>
      </trkpt>
      <trkpt lat="44.55465" lon="1.60688">
        <ele>280.1</ele>
        <time>2019-03-17T15:29:12Z</time>
      </trkpt>
      <trkpt lat="44.5547" lon="1.60686">
        <ele>280.9</ele>
        <time>2019-03-17T15:29:15Z</time>
      </trkpt>
      <trkpt lat="44.55475" lon="1.60684">
        <ele>281.9</ele>
        <time>2019-03-17T15:29:18Z</time>
      </trkpt>
      <trkpt lat="44.5548" lon="1.60681">
        <ele>282.6</ele>
        <time>2019-03-17T15:29:22Z</time>
      </trkpt>
      <trkpt lat="44.55485" lon="1.6068">
        <ele>283.1</ele>
        <time>2019-03-17T15:29:25Z</time>
      </trkpt>
      <trkpt lat="44.55491" lon="1.60678">
        <ele>283.3</ele>
        <time>2019-03-17T15:29:29Z</time>
      </trkpt>
      <trkpt lat="44.55496" lon="1.60677">
        <ele>283.4</ele>
        <time>2019-03-17T15:29:32Z</time>
      </trkpt>
      <trkpt lat="44.55501" lon="1.60676">
        <ele>284.3</ele>
        <time>2019-03-17T15:29:36Z</time>
      </trkpt>
      <trkpt lat="44.55506" lon="1.60676">
        <ele>284</ele>
        <time>2019-03-17T15:29:41Z</time>
      </trkpt>
      <trkpt lat="44.55511" lon="1.60675">
        <ele>282.4</ele>
        <time>2019-03-17T15:29:46Z</time>
      </trkpt>
      <trkpt lat="44.55516" lon="1.60675">
        <ele>282.1</ele>
        <time>2019-03-17T15:29:50Z</time>
      </trkpt>
      <trkpt lat="44.55521" lon="1.60675">
        <ele>281.9</ele>
        <time>2019-03-17T15:29:53Z</time>
      </trkpt>
      <trkpt lat="44.55526" lon="1.60676">
        <ele>281.9</ele>
        <time>2019-03-17T15:29:55Z</time>
      </trkpt>
      <trkpt lat="44.55531" lon="1.60677">
        <ele>281.6</ele>
        <time>2019-03-17T15:29:57Z</time>
      </trkpt>
      <trkpt lat="44.55536" lon="1.60679">
        <ele>281.3</ele>
        <time>2019-03-17T15:30:00Z</time>
      </trkpt>
      <trkpt lat="44.55541" lon="1.60678">
        <ele>282.4</ele>
        <time>2019-03-17T15:30:04Z</time>
      </trkpt>
      <trkpt lat="44.55546" lon="1.60677">
        <ele>283.8</ele>
        <time>2019-03-17T15:30:07Z</time>
      </trkpt>
      <trkpt lat="44.55552" lon="1.60676">
        <ele>285.4</ele>
        <time>2019-03-17T15:30:11Z</time>
      </trkpt>
      <trkpt lat="44.55557" lon="1.60676">
        <ele>286.7</ele>
        <time>2019-03-17T15:30:14Z</time>
      </trkpt>
      <trkpt lat="44.55562" lon="1.60677">
        <ele>288</ele>
        <time>2019-03-17T15:30:18Z</time>
      </trkpt>
      <trkpt lat="44.55568" lon="1.60677">
        <ele>289</ele>
        <time>2019-03-17T15:30:22Z</time>
      </trkpt>
      <trkpt lat="44.55573" lon="1.60677">
        <ele>289.8</ele>
        <time>2019-03-17T15:30:25Z</time>
      </trkpt>
      <trkpt lat="44.55578" lon="1.60678">
        <ele>290.5</ele>
        <time>2019-03-17T15:30:29Z</time>
      </trkpt>
      <trkpt lat="44.55583" lon="1.6068">
        <ele>291.6</ele>
        <time>2019-03-17T15:30:34Z</time>
      </trkpt>
      <trkpt lat="44.55587" lon="1.60683">
        <ele>293.3</ele>
        <time>2019-03-17T15:30:38Z</time>
      </trkpt>
      <trkpt lat="44.5559" lon="1.60689">
        <ele>294.1</ele>
        <time>2019-03-17T15:30:42Z</time>
      </trkpt>
      <trkpt lat="44.55591" lon="1.60696">
        <ele>294.7</ele>
        <time>2019-03-17T15:30:45Z</time>
      </trkpt>
      <trkpt lat="44.55593" lon="1.60702">
        <ele>295.3</ele>
        <time>2019-03-17T15:30:50Z</time>
      </trkpt>
      <trkpt lat="44.55596" lon="1.60709">
        <ele>296.5</ele>
        <time>2019-03-17T15:30:55Z</time>
      </trkpt>
      <trkpt lat="44.55597" lon="1.60715">
        <ele>297.1</ele>
        <time>2019-03-17T15:30:58Z</time>
      </trkpt>
      <trkpt lat="44.55599" lon="1.60722">
        <ele>297.4</ele>
        <time>2019-03-17T15:31:01Z</time>
      </trkpt>
      <trkpt lat="44.556" lon="1.60728">
        <ele>297.7</ele>
        <time>2019-03-17T15:31:04Z</time>
      </trkpt>
      <trkpt lat="44.55603" lon="1.60734">
        <ele>298.3</ele>
        <time>2019-03-17T15:31:07Z</time>
      </trkpt>
      <trkpt lat="44.55607" lon="1.60739">
        <ele>299.9</ele>
        <time>2019-03-17T15:31:12Z</time>
      </trkpt>
      <trkpt lat="44.55611" lon="1.60742">
        <ele>300.7</ele>
        <time>2019-03-17T15:31:37Z</time>
      </trkpt>
      <trkpt lat="44.55616" lon="1.60742">
        <ele>300.7</ele>
        <time>2019-03-17T15:31:42Z</time>
      </trkpt>
      <trkpt lat="44.55621" lon="1.60743">
        <ele>300.9</ele>
        <time>2019-03-17T15:31:46Z</time>
      </trkpt>
      <trkpt lat="44.55626" lon="1.60743">
        <ele>300.9</ele>
        <time>2019-03-17T15:31:50Z</time>
      </trkpt>
      <trkpt lat="44.55632" lon="1.60743">
        <ele>301.7</ele>
        <time>2019-03-17T15:31:54Z</time>
      </trkpt>
      <trkpt lat="44.55637" lon="1.60742">
        <ele>301</ele>
        <time>2019-03-17T15:31:59Z</time>
      </trkpt>
      <trkpt lat="44.55642" lon="1.60739">
        <ele>300.9</ele>
        <time>2019-03-17T15:32:04Z</time>
      </trkpt>
      <trkpt lat="44.55647" lon="1.60736">
        <ele>300.5</ele>
        <time>2019-03-17T15:32:08Z</time>
      </trkpt>
      <trkpt lat="44.55651" lon="1.60733">
        <ele>299.5</ele>
        <time>2019-03-17T15:32:12Z</time>
      </trkpt>
      <trkpt lat="44.55655" lon="1.60729">
        <ele>298.9</ele>
        <time>2019-03-17T15:32:16Z</time>
      </trkpt>
      <trkpt lat="44.55658" lon="1.60723">
        <ele>298.1</ele>
        <time>2019-03-17T15:32:21Z</time>
      </trkpt>
      <trkpt lat="44.55662" lon="1.60717">
        <ele>298.2</ele>
        <time>2019-03-17T15:32:24Z</time>
      </trkpt>
      <trkpt lat="44.55666" lon="1.60711">
        <ele>298</ele>
        <time>2019-03-17T15:32:27Z</time>
      </trkpt>
      <trkpt lat="44.55669" lon="1.60704">
        <ele>298.1</ele>
        <time>2019-03-17T15:32:30Z</time>
      </trkpt>
      <trkpt lat="44.55671" lon="1.60698">
        <ele>297</ele>
        <time>2019-03-17T15:32:37Z</time>
      </trkpt>
      <trkpt lat="44.55674" lon="1.60691">
        <ele>296.9</ele>
        <time>2019-03-17T15:32:40Z</time>
      </trkpt>
      <trkpt lat="44.55676" lon="1.60685">
        <ele>296.7</ele>
        <time>2019-03-17T15:32:43Z</time>
      </trkpt>
      <trkpt lat="44.5568" lon="1.6068">
        <ele>295.3</ele>
        <time>2019-03-17T15:32:51Z</time>
      </trkpt>
      <trkpt lat="44.55681" lon="1.60673">
        <ele>292.5</ele>
        <time>2019-03-17T15:32:58Z</time>
      </trkpt>
      <trkpt lat="44.55684" lon="1.60667">
        <ele>291.3</ele>
        <time>2019-03-17T15:33:03Z</time>
      </trkpt>
      <trkpt lat="44.55685" lon="1.6066">
        <ele>291.2</ele>
        <time>2019-03-17T15:33:07Z</time>
      </trkpt>
      <trkpt lat="44.55688" lon="1.60653">
        <ele>291.9</ele>
        <time>2019-03-17T15:33:10Z</time>
      </trkpt>
      <trkpt lat="44.55698" lon="1.60629">
        <ele>295.9</ele>
        <time>2019-03-17T15:33:22Z</time>
      </trkpt>
      <trkpt lat="44.55703" lon="1.60621">
        <ele>295.1</ele>
        <time>2019-03-17T15:33:27Z</time>
      </trkpt>
      <trkpt lat="44.55707" lon="1.60616">
        <ele>295.8</ele>
        <time>2019-03-17T15:33:32Z</time>
      </trkpt>
      <trkpt lat="44.55711" lon="1.60611">
        <ele>295.5</ele>
        <time>2019-03-17T15:33:37Z</time>
      </trkpt>
      <trkpt lat="44.55716" lon="1.60611">
        <ele>295.6</ele>
        <time>2019-03-17T15:33:41Z</time>
      </trkpt>
      <trkpt lat="44.55722" lon="1.60612">
        <ele>296.8</ele>
        <time>2019-03-17T15:33:46Z</time>
      </trkpt>
      <trkpt lat="44.55726" lon="1.60613">
        <ele>297.7</ele>
        <time>2019-03-17T15:33:50Z</time>
      </trkpt>
      <trkpt lat="44.55731" lon="1.60614">
        <ele>297.6</ele>
        <time>2019-03-17T15:33:55Z</time>
      </trkpt>
      <trkpt lat="44.55736" lon="1.60617">
        <ele>296.4</ele>
        <time>2019-03-17T15:34:02Z</time>
      </trkpt>
      <trkpt lat="44.55741" lon="1.60618">
        <ele>294</ele>
        <time>2019-03-17T15:34:08Z</time>
      </trkpt>
      <trkpt lat="44.55746" lon="1.60619">
        <ele>292.5</ele>
        <time>2019-03-17T15:34:13Z</time>
      </trkpt>
      <trkpt lat="44.55752" lon="1.60619">
        <ele>289.2</ele>
        <time>2019-03-17T15:34:20Z</time>
      </trkpt>
      <trkpt lat="44.55756" lon="1.60619">
        <ele>288.1</ele>
        <time>2019-03-17T15:34:24Z</time>
      </trkpt>
      <trkpt lat="44.55762" lon="1.60619">
        <ele>287.9</ele>
        <time>2019-03-17T15:34:28Z</time>
      </trkpt>
      <trkpt lat="44.55767" lon="1.6062">
        <ele>287.7</ele>
        <time>2019-03-17T15:34:32Z</time>
      </trkpt>
      <trkpt lat="44.55773" lon="1.60622">
        <ele>287.6</ele>
        <time>2019-03-17T15:34:36Z</time>
      </trkpt>
      <trkpt lat="44.55778" lon="1.60624">
        <ele>287.5</ele>
        <time>2019-03-17T15:34:40Z</time>
      </trkpt>
      <trkpt lat="44.55783" lon="1.60626">
        <ele>286.8</ele>
        <time>2019-03-17T15:34:45Z</time>
      </trkpt>
      <trkpt lat="44.55787" lon="1.60628">
        <ele>285.6</ele>
        <time>2019-03-17T15:34:49Z</time>
      </trkpt>
      <trkpt lat="44.55792" lon="1.60631">
        <ele>284.4</ele>
        <time>2019-03-17T15:34:53Z</time>
      </trkpt>
      <trkpt lat="44.55797" lon="1.60634">
        <ele>283.5</ele>
        <time>2019-03-17T15:34:58Z</time>
      </trkpt>
      <trkpt lat="44.55801" lon="1.60639">
        <ele>283.5</ele>
        <time>2019-03-17T15:35:02Z</time>
      </trkpt>
      <trkpt lat="44.55804" lon="1.60645">
        <ele>283.9</ele>
        <time>2019-03-17T15:35:06Z</time>
      </trkpt>
      <trkpt lat="44.55809" lon="1.60649">
        <ele>283</ele>
        <time>2019-03-17T15:35:11Z</time>
      </trkpt>
      <trkpt lat="44.55812" lon="1.60652">
        <ele>282.5</ele>
        <time>2019-03-17T15:35:17Z</time>
      </trkpt>
      <trkpt lat="44.55815" lon="1.60658">
        <ele>282.7</ele>
        <time>2019-03-17T15:35:22Z</time>
      </trkpt>
      <trkpt lat="44.55818" lon="1.60663">
        <ele>284.1</ele>
        <time>2019-03-17T15:35:29Z</time>
      </trkpt>
      <trkpt lat="44.55823" lon="1.60666">
        <ele>285.3</ele>
        <time>2019-03-17T15:35:34Z</time>
      </trkpt>
      <trkpt lat="44.55827" lon="1.6067">
        <ele>286.2</ele>
        <time>2019-03-17T15:35:39Z</time>
      </trkpt>
      <trkpt lat="44.55832" lon="1.60674">
        <ele>285.7</ele>
        <time>2019-03-17T15:35:44Z</time>
      </trkpt>
      <trkpt lat="44.55836" lon="1.60679">
        <ele>285.4</ele>
        <time>2019-03-17T15:35:48Z</time>
      </trkpt>
      <trkpt lat="44.55838" lon="1.60684">
        <ele>284</ele>
        <time>2019-03-17T15:35:54Z</time>
      </trkpt>
      <trkpt lat="44.55841" lon="1.6069">
        <ele>282.2</ele>
        <time>2019-03-17T15:36:03Z</time>
      </trkpt>
      <trkpt lat="44.55843" lon="1.60698">
        <ele>281.6</ele>
        <time>2019-03-17T15:36:09Z</time>
      </trkpt>
      <trkpt lat="44.55846" lon="1.60704">
        <ele>280.9</ele>
        <time>2019-03-17T15:36:15Z</time>
      </trkpt>
      <trkpt lat="44.55849" lon="1.60711">
        <ele>280.7</ele>
        <time>2019-03-17T15:36:19Z</time>
      </trkpt>
      <trkpt lat="44.55853" lon="1.60717">
        <ele>281.4</ele>
        <time>2019-03-17T15:36:23Z</time>
      </trkpt>
      <trkpt lat="44.55855" lon="1.60724">
        <ele>280.4</ele>
        <time>2019-03-17T15:36:29Z</time>
      </trkpt>
      <trkpt lat="44.55858" lon="1.60729">
        <ele>278.7</ele>
        <time>2019-03-17T15:36:37Z</time>
      </trkpt>
      <trkpt lat="44.5586" lon="1.60736">
        <ele>278.7</ele>
        <time>2019-03-17T15:36:41Z</time>
      </trkpt>
      <trkpt lat="44.55862" lon="1.60743">
        <ele>279.2</ele>
        <time>2019-03-17T15:36:45Z</time>
      </trkpt>
      <trkpt lat="44.55866" lon="1.60748">
        <ele>280</ele>
        <time>2019-03-17T15:36:49Z</time>
      </trkpt>
      <trkpt lat="44.55869" lon="1.60752">
        <ele>279.3</ele>
        <time>2019-03-17T15:36:55Z</time>
      </trkpt>
      <trkpt lat="44.55872" lon="1.60758">
        <ele>279.4</ele>
        <time>2019-03-17T15:37:01Z</time>
      </trkpt>
      <trkpt lat="44.55875" lon="1.60765">
        <ele>279.6</ele>
        <time>2019-03-17T15:37:12Z</time>
      </trkpt>
      <trkpt lat="44.55877" lon="1.60771">
        <ele>279.9</ele>
        <time>2019-03-17T15:37:16Z</time>
      </trkpt>
      <trkpt lat="44.5588" lon="1.60778">
        <ele>280.8</ele>
        <time>2019-03-17T15:37:20Z</time>
      </trkpt>
      <trkpt lat="44.55883" lon="1.60783">
        <ele>281.2</ele>
        <time>2019-03-17T15:37:24Z</time>
      </trkpt>
      <trkpt lat="44.55885" lon="1.60789">
        <ele>281.7</ele>
        <time>2019-03-17T15:37:28Z</time>
      </trkpt>
      <trkpt lat="44.55889" lon="1.60795">
        <ele>282.4</ele>
        <time>2019-03-17T15:37:34Z</time>
      </trkpt>
      <trkpt lat="44.55892" lon="1.60799">
        <ele>282.6</ele>
        <time>2019-03-17T15:37:38Z</time>
      </trkpt>
      <trkpt lat="44.55896" lon="1.60803">
        <ele>281.7</ele>
        <time>2019-03-17T15:37:44Z</time>
      </trkpt>
      <trkpt lat="44.55899" lon="1.60808">
        <ele>280.6</ele>
        <time>2019-03-17T15:37:50Z</time>
      </trkpt>
      <trkpt lat="44.55902" lon="1.60814">
        <ele>279.5</ele>
        <time>2019-03-17T15:37:55Z</time>
      </trkpt>
      <trkpt lat="44.55905" lon="1.60819">
        <ele>278.6</ele>
        <time>2019-03-17T15:37:59Z</time>
      </trkpt>
      <trkpt lat="44.5591" lon="1.60822">
        <ele>277.4</ele>
        <time>2019-03-17T15:38:04Z</time>
      </trkpt>
      <trkpt lat="44.55914" lon="1.60826">
        <ele>277.6</ele>
        <time>2019-03-17T15:38:08Z</time>
      </trkpt>
      <trkpt lat="44.55917" lon="1.60831">
        <ele>276.8</ele>
        <time>2019-03-17T15:38:14Z</time>
      </trkpt>
      <trkpt lat="44.55921" lon="1.60837">
        <ele>276.4</ele>
        <time>2019-03-17T15:38:18Z</time>
      </trkpt>
      <trkpt lat="44.55925" lon="1.60842">
        <ele>275.5</ele>
        <time>2019-03-17T15:38:23Z</time>
      </trkpt>
      <trkpt lat="44.55927" lon="1.60847">
        <ele>275.3</ele>
        <time>2019-03-17T15:38:28Z</time>
      </trkpt>
      <trkpt lat="44.5593" lon="1.60853">
        <ele>276.3</ele>
        <time>2019-03-17T15:38:32Z</time>
      </trkpt>
      <trkpt lat="44.55935" lon="1.60856">
        <ele>276.1</ele>
        <time>2019-03-17T15:38:36Z</time>
      </trkpt>
      <trkpt lat="44.55939" lon="1.60857">
        <ele>274.5</ele>
        <time>2019-03-17T15:38:43Z</time>
      </trkpt>
      <trkpt lat="44.55944" lon="1.60858">
        <ele>273.5</ele>
        <time>2019-03-17T15:38:47Z</time>
      </trkpt>
      <trkpt lat="44.55948" lon="1.60861">
        <ele>272.9</ele>
        <time>2019-03-17T15:38:51Z</time>
      </trkpt>
      <trkpt lat="44.55953" lon="1.60865">
        <ele>272.2</ele>
        <time>2019-03-17T15:38:55Z</time>
      </trkpt>
      <trkpt lat="44.55958" lon="1.60869">
        <ele>272.5</ele>
        <time>2019-03-17T15:38:59Z</time>
      </trkpt>
      <trkpt lat="44.55962" lon="1.60872">
        <ele>272.3</ele>
        <time>2019-03-17T15:39:04Z</time>
      </trkpt>
      <trkpt lat="44.55966" lon="1.60875">
        <ele>271.4</ele>
        <time>2019-03-17T15:39:09Z</time>
      </trkpt>
      <trkpt lat="44.55971" lon="1.60879">
        <ele>269.3</ele>
        <time>2019-03-17T15:39:15Z</time>
      </trkpt>
      <trkpt lat="44.55975" lon="1.60882">
        <ele>268.6</ele>
        <time>2019-03-17T15:39:19Z</time>
      </trkpt>
      <trkpt lat="44.55978" lon="1.60887">
        <ele>268.3</ele>
        <time>2019-03-17T15:39:27Z</time>
      </trkpt>
      <trkpt lat="44.55984" lon="1.60888">
        <ele>266.7</ele>
        <time>2019-03-17T15:39:32Z</time>
      </trkpt>
      <trkpt lat="44.55989" lon="1.60892">
        <ele>266.8</ele>
        <time>2019-03-17T15:39:36Z</time>
      </trkpt>
      <trkpt lat="44.55993" lon="1.60896">
        <ele>266.9</ele>
        <time>2019-03-17T15:39:40Z</time>
      </trkpt>
      <trkpt lat="44.55995" lon="1.60902">
        <ele>267.3</ele>
        <time>2019-03-17T15:39:43Z</time>
      </trkpt>
      <trkpt lat="44.55999" lon="1.60906">
        <ele>266.9</ele>
        <time>2019-03-17T15:39:47Z</time>
      </trkpt>
      <trkpt lat="44.56004" lon="1.6091">
        <ele>266.1</ele>
        <time>2019-03-17T15:39:51Z</time>
      </trkpt>
      <trkpt lat="44.56008" lon="1.60913">
        <ele>265.2</ele>
        <time>2019-03-17T15:39:54Z</time>
      </trkpt>
      <trkpt lat="44.56014" lon="1.60913">
        <ele>264.7</ele>
        <time>2019-03-17T15:39:57Z</time>
      </trkpt>
      <trkpt lat="44.56018" lon="1.60909">
        <ele>262.1</ele>
        <time>2019-03-17T15:40:04Z</time>
      </trkpt>
      <trkpt lat="44.56021" lon="1.60903">
        <ele>259.4</ele>
        <time>2019-03-17T15:40:08Z</time>
      </trkpt>
      <trkpt lat="44.56025" lon="1.60899">
        <ele>256.3</ele>
        <time>2019-03-17T15:40:17Z</time>
      </trkpt>
      <trkpt lat="44.56031" lon="1.60898">
        <ele>256</ele>
        <time>2019-03-17T15:40:20Z</time>
      </trkpt>
      <trkpt lat="44.56036" lon="1.60897">
        <ele>255.5</ele>
        <time>2019-03-17T15:40:23Z</time>
      </trkpt>
      <trkpt lat="44.56048" lon="1.609">
        <ele>255.2</ele>
        <time>2019-03-17T15:40:35Z</time>
      </trkpt>
      <trkpt lat="44.56053" lon="1.60904">
        <ele>257.8</ele>
        <time>2019-03-17T15:40:40Z</time>
      </trkpt>
      <trkpt lat="44.56059" lon="1.60905">
        <ele>258.8</ele>
        <time>2019-03-17T15:40:44Z</time>
      </trkpt>
      <trkpt lat="44.56063" lon="1.60905">
        <ele>259.3</ele>
        <time>2019-03-17T15:40:47Z</time>
      </trkpt>
      <trkpt lat="44.56068" lon="1.60906">
        <ele>259.2</ele>
        <time>2019-03-17T15:40:52Z</time>
      </trkpt>
      <trkpt lat="44.56073" lon="1.60907">
        <ele>259.4</ele>
        <time>2019-03-17T15:40:55Z</time>
      </trkpt>
      <trkpt lat="44.56077" lon="1.6091">
        <ele>259.5</ele>
        <time>2019-03-17T15:41:00Z</time>
      </trkpt>
      <trkpt lat="44.56082" lon="1.60914">
        <ele>260.1</ele>
        <time>2019-03-17T15:41:07Z</time>
      </trkpt>
      <trkpt lat="44.56087" lon="1.60916">
        <ele>261</ele>
        <time>2019-03-17T15:41:11Z</time>
      </trkpt>
      <trkpt lat="44.56092" lon="1.60917">
        <ele>262.9</ele>
        <time>2019-03-17T15:41:17Z</time>
      </trkpt>
      <trkpt lat="44.56098" lon="1.60917">
        <ele>263.4</ele>
        <time>2019-03-17T15:41:21Z</time>
      </trkpt>
      <trkpt lat="44.56104" lon="1.60918">
        <ele>263.8</ele>
        <time>2019-03-17T15:41:25Z</time>
      </trkpt>
      <trkpt lat="44.56108" lon="1.60918">
        <ele>263.9</ele>
        <time>2019-03-17T15:41:29Z</time>
      </trkpt>
      <trkpt lat="44.56114" lon="1.60919">
        <ele>264.2</ele>
        <time>2019-03-17T15:41:33Z</time>
      </trkpt>
      <trkpt lat="44.56119" lon="1.60921">
        <ele>265.1</ele>
        <time>2019-03-17T15:41:36Z</time>
      </trkpt>
      <trkpt lat="44.56124" lon="1.60922">
        <ele>264.9</ele>
        <time>2019-03-17T15:41:44Z</time>
      </trkpt>
      <trkpt lat="44.56137" lon="1.6092">
        <ele>264.1</ele>
        <time>2019-03-17T15:41:56Z</time>
      </trkpt>
      <trkpt lat="44.56143" lon="1.60922">
        <ele>263.4</ele>
        <time>2019-03-17T15:42:01Z</time>
      </trkpt>
      <trkpt lat="44.56148" lon="1.60925">
        <ele>262.7</ele>
        <time>2019-03-17T15:42:05Z</time>
      </trkpt>
      <trkpt lat="44.56152" lon="1.60929">
        <ele>261.9</ele>
        <time>2019-03-17T15:42:08Z</time>
      </trkpt>
      <trkpt lat="44.56157" lon="1.60932">
        <ele>261.2</ele>
        <time>2019-03-17T15:42:14Z</time>
      </trkpt>
      <trkpt lat="44.56161" lon="1.60935">
        <ele>260.9</ele>
        <time>2019-03-17T15:42:18Z</time>
      </trkpt>
      <trkpt lat="44.56166" lon="1.60937">
        <ele>260.8</ele>
        <time>2019-03-17T15:42:22Z</time>
      </trkpt>
      <trkpt lat="44.5617" lon="1.60941">
        <ele>260.6</ele>
        <time>2019-03-17T15:42:26Z</time>
      </trkpt>
      <trkpt lat="44.56175" lon="1.60944">
        <ele>260.8</ele>
        <time>2019-03-17T15:42:31Z</time>
      </trkpt>
      <trkpt lat="44.56179" lon="1.60948">
        <ele>260.7</ele>
        <time>2019-03-17T15:42:36Z</time>
      </trkpt>
      <trkpt lat="44.56183" lon="1.60953">
        <ele>260.6</ele>
        <time>2019-03-17T15:42:40Z</time>
      </trkpt>
      <trkpt lat="44.56187" lon="1.60958">
        <ele>261.2</ele>
        <time>2019-03-17T15:42:44Z</time>
      </trkpt>
      <trkpt lat="44.5619" lon="1.60963">
        <ele>262.3</ele>
        <time>2019-03-17T15:42:48Z</time>
      </trkpt>
      <trkpt lat="44.56194" lon="1.60968">
        <ele>263.9</ele>
        <time>2019-03-17T15:42:52Z</time>
      </trkpt>
      <trkpt lat="44.56196" lon="1.60974">
        <ele>264.7</ele>
        <time>2019-03-17T15:42:57Z</time>
      </trkpt>
      <trkpt lat="44.562" lon="1.60981">
        <ele>266.2</ele>
        <time>2019-03-17T15:43:01Z</time>
      </trkpt>
      <trkpt lat="44.56203" lon="1.60986">
        <ele>268.4</ele>
        <time>2019-03-17T15:43:05Z</time>
      </trkpt>
      <trkpt lat="44.56208" lon="1.60983">
        <ele>266.7</ele>
        <time>2019-03-17T15:43:11Z</time>
      </trkpt>
      <trkpt lat="44.56212" lon="1.60978">
        <ele>263.8</ele>
        <time>2019-03-17T15:43:16Z</time>
      </trkpt>
      <trkpt lat="44.56216" lon="1.60972">
        <ele>262</ele>
        <time>2019-03-17T15:43:20Z</time>
      </trkpt>
      <trkpt lat="44.56219" lon="1.60967">
        <ele>261.3</ele>
        <time>2019-03-17T15:43:25Z</time>
      </trkpt>
      <trkpt lat="44.56223" lon="1.60963">
        <ele>261.2</ele>
        <time>2019-03-17T15:43:29Z</time>
      </trkpt>
      <trkpt lat="44.56227" lon="1.60958">
        <ele>262</ele>
        <time>2019-03-17T15:43:33Z</time>
      </trkpt>
      <trkpt lat="44.5623" lon="1.60953">
        <ele>261.5</ele>
        <time>2019-03-17T15:43:37Z</time>
      </trkpt>
      <trkpt lat="44.56232" lon="1.60947">
        <ele>261.7</ele>
        <time>2019-03-17T15:43:41Z</time>
      </trkpt>
      <trkpt lat="44.56235" lon="1.60941">
        <ele>262.2</ele>
        <time>2019-03-17T15:43:46Z</time>
      </trkpt>
      <trkpt lat="44.56237" lon="1.60934">
        <ele>262.8</ele>
        <time>2019-03-17T15:43:51Z</time>
      </trkpt>
      <trkpt lat="44.56239" lon="1.60927">
        <ele>261.3</ele>
        <time>2019-03-17T15:43:56Z</time>
      </trkpt>
      <trkpt lat="44.56243" lon="1.60923">
        <ele>260.5</ele>
        <time>2019-03-17T15:44:00Z</time>
      </trkpt>
      <trkpt lat="44.56247" lon="1.60918">
        <ele>261.2</ele>
        <time>2019-03-17T15:44:03Z</time>
      </trkpt>
      <trkpt lat="44.56251" lon="1.60913">
        <ele>261.9</ele>
        <time>2019-03-17T15:44:08Z</time>
      </trkpt>
      <trkpt lat="44.56256" lon="1.6091">
        <ele>261.7</ele>
        <time>2019-03-17T15:44:12Z</time>
      </trkpt>
      <trkpt lat="44.56259" lon="1.60904">
        <ele>260.5</ele>
        <time>2019-03-17T15:44:16Z</time>
      </trkpt>
      <trkpt lat="44.56265" lon="1.60899">
        <ele>259.7</ele>
        <time>2019-03-17T15:44:19Z</time>
      </trkpt>
      <trkpt lat="44.56269" lon="1.60896">
        <ele>259.8</ele>
        <time>2019-03-17T15:44:21Z</time>
      </trkpt>
      <trkpt lat="44.56271" lon="1.60889">
        <ele>259.2</ele>
        <time>2019-03-17T15:44:28Z</time>
      </trkpt>
      <trkpt lat="44.56275" lon="1.60884">
        <ele>258.1</ele>
        <time>2019-03-17T15:44:35Z</time>
      </trkpt>
      <trkpt lat="44.56277" lon="1.60879">
        <ele>257.5</ele>
        <time>2019-03-17T15:44:41Z</time>
      </trkpt>
      <trkpt lat="44.56282" lon="1.60877">
        <ele>257.3</ele>
        <time>2019-03-17T15:44:47Z</time>
      </trkpt>
      <trkpt lat="44.56284" lon="1.6087">
        <ele>257.9</ele>
        <time>2019-03-17T15:44:51Z</time>
      </trkpt>
      <trkpt lat="44.56285" lon="1.60864">
        <ele>258.4</ele>
        <time>2019-03-17T15:44:57Z</time>
      </trkpt>
      <trkpt lat="44.56284" lon="1.60858">
        <ele>259.1</ele>
        <time>2019-03-17T15:45:01Z</time>
      </trkpt>
      <trkpt lat="44.56284" lon="1.60851">
        <ele>259.2</ele>
        <time>2019-03-17T15:45:08Z</time>
      </trkpt>
      <trkpt lat="44.56313" lon="1.60799">
        <ele>264.6</ele>
        <time>2019-03-17T15:45:39Z</time>
      </trkpt>
      <trkpt lat="44.56317" lon="1.60795">
        <ele>264</ele>
        <time>2019-03-17T15:45:45Z</time>
      </trkpt>
      <trkpt lat="44.5632" lon="1.60791">
        <ele>263.1</ele>
        <time>2019-03-17T15:45:49Z</time>
      </trkpt>
      <trkpt lat="44.56324" lon="1.60786">
        <ele>261</ele>
        <time>2019-03-17T15:45:54Z</time>
      </trkpt>
      <trkpt lat="44.56324" lon="1.60779">
        <ele>260</ele>
        <time>2019-03-17T15:46:01Z</time>
      </trkpt>
      <trkpt lat="44.56323" lon="1.60772">
        <ele>259.8</ele>
        <time>2019-03-17T15:46:05Z</time>
      </trkpt>
      <trkpt lat="44.56324" lon="1.60764">
        <ele>259.2</ele>
        <time>2019-03-17T15:46:10Z</time>
      </trkpt>
      <trkpt lat="44.56327" lon="1.60756">
        <ele>259.2</ele>
        <time>2019-03-17T15:46:14Z</time>
      </trkpt>
      <trkpt lat="44.56329" lon="1.6075">
        <ele>259.5</ele>
        <time>2019-03-17T15:46:18Z</time>
      </trkpt>
      <trkpt lat="44.56331" lon="1.60744">
        <ele>261.1</ele>
        <time>2019-03-17T15:46:25Z</time>
      </trkpt>
      <trkpt lat="44.56334" lon="1.60738">
        <ele>261.3</ele>
        <time>2019-03-17T15:46:39Z</time>
      </trkpt>
      <trkpt lat="44.56335" lon="1.60732">
        <ele>262</ele>
        <time>2019-03-17T15:46:45Z</time>
      </trkpt>
      <trkpt lat="44.56333" lon="1.60725">
        <ele>263.5</ele>
        <time>2019-03-17T15:46:51Z</time>
      </trkpt>
      <trkpt lat="44.56331" lon="1.6072">
        <ele>263.4</ele>
        <time>2019-03-17T15:46:56Z</time>
      </trkpt>
      <trkpt lat="44.56329" lon="1.60713">
        <ele>262.7</ele>
        <time>2019-03-17T15:47:02Z</time>
      </trkpt>
      <trkpt lat="44.56327" lon="1.60707">
        <ele>261.5</ele>
        <time>2019-03-17T15:47:08Z</time>
      </trkpt>
      <trkpt lat="44.56323" lon="1.60701">
        <ele>260.9</ele>
        <time>2019-03-17T15:47:14Z</time>
      </trkpt>
      <trkpt lat="44.56321" lon="1.60695">
        <ele>260.7</ele>
        <time>2019-03-17T15:47:19Z</time>
      </trkpt>
      <trkpt lat="44.56318" lon="1.60688">
        <ele>261.1</ele>
        <time>2019-03-17T15:47:24Z</time>
      </trkpt>
      <trkpt lat="44.56314" lon="1.6068">
        <ele>259.3</ele>
        <time>2019-03-17T15:47:46Z</time>
      </trkpt>
      <trkpt lat="44.56312" lon="1.60674">
        <ele>258.6</ele>
        <time>2019-03-17T15:47:52Z</time>
      </trkpt>
      <trkpt lat="44.56311" lon="1.60668">
        <ele>259.2</ele>
        <time>2019-03-17T15:47:57Z</time>
      </trkpt>
      <trkpt lat="44.56309" lon="1.6066">
        <ele>261.8</ele>
        <time>2019-03-17T15:48:02Z</time>
      </trkpt>
      <trkpt lat="44.56306" lon="1.60656">
        <ele>268</ele>
        <time>2019-03-17T15:48:35Z</time>
      </trkpt>
      <trkpt lat="44.56307" lon="1.6065">
        <ele>268.5</ele>
        <time>2019-03-17T15:49:21Z</time>
      </trkpt>
      <trkpt lat="44.56309" lon="1.60643">
        <ele>268.8</ele>
        <time>2019-03-17T15:50:19Z</time>
      </trkpt>
      <trkpt lat="44.56311" lon="1.60637">
        <ele>266</ele>
        <time>2019-03-17T15:50:26Z</time>
      </trkpt>
      <trkpt lat="44.56311" lon="1.60628">
        <ele>263.3</ele>
        <time>2019-03-17T15:50:44Z</time>
      </trkpt>
      <trkpt lat="44.56312" lon="1.6062">
        <ele>264.5</ele>
        <time>2019-03-17T15:50:47Z</time>
      </trkpt>
      <trkpt lat="44.56312" lon="1.60613">
        <ele>265.9</ele>
        <time>2019-03-17T15:50:51Z</time>
      </trkpt>
      <trkpt lat="44.56311" lon="1.60606">
        <ele>267.5</ele>
        <time>2019-03-17T15:50:54Z</time>
      </trkpt>
      <trkpt lat="44.56312" lon="1.60599">
        <ele>269.1</ele>
        <time>2019-03-17T15:50:58Z</time>
      </trkpt>
      <trkpt lat="44.56311" lon="1.60592">
        <ele>270.1</ele>
        <time>2019-03-17T15:51:04Z</time>
      </trkpt>
      <trkpt lat="44.56313" lon="1.60585">
        <ele>265.7</ele>
        <time>2019-03-17T15:51:12Z</time>
      </trkpt>
      <trkpt lat="44.56315" lon="1.60579">
        <ele>263.6</ele>
        <time>2019-03-17T15:51:19Z</time>
      </trkpt>
      <trkpt lat="44.56314" lon="1.60573">
        <ele>266.6</ele>
        <time>2019-03-17T15:51:33Z</time>
      </trkpt>
      <trkpt lat="44.56317" lon="1.60567">
        <ele>265.8</ele>
        <time>2019-03-17T15:51:38Z</time>
      </trkpt>
      <trkpt lat="44.56319" lon="1.6056">
        <ele>265.9</ele>
        <time>2019-03-17T15:51:43Z</time>
      </trkpt>
      <trkpt lat="44.56319" lon="1.60553">
        <ele>266.3</ele>
        <time>2019-03-17T15:51:46Z</time>
      </trkpt>
      <trkpt lat="44.56323" lon="1.60549">
        <ele>267</ele>
        <time>2019-03-17T15:51:51Z</time>
      </trkpt>
      <trkpt lat="44.56328" lon="1.60545">
        <ele>267.6</ele>
        <time>2019-03-17T15:51:54Z</time>
      </trkpt>
      <trkpt lat="44.56332" lon="1.60543">
        <ele>267.7</ele>
        <time>2019-03-17T15:51:57Z</time>
      </trkpt>
      <trkpt lat="44.56336" lon="1.6054">
        <ele>268.5</ele>
        <time>2019-03-17T15:52:01Z</time>
      </trkpt>
      <trkpt lat="44.56342" lon="1.60538">
        <ele>270.1</ele>
        <time>2019-03-17T15:52:11Z</time>
      </trkpt>
      <trkpt lat="44.56349" lon="1.60536">
        <ele>269.1</ele>
        <time>2019-03-17T15:52:14Z</time>
      </trkpt>
      <trkpt lat="44.56353" lon="1.60531">
        <ele>268.7</ele>
        <time>2019-03-17T15:52:17Z</time>
      </trkpt>
      <trkpt lat="44.56358" lon="1.60528">
        <ele>268.3</ele>
        <time>2019-03-17T15:52:19Z</time>
      </trkpt>
      <trkpt lat="44.56361" lon="1.60523">
        <ele>268.9</ele>
        <time>2019-03-17T15:52:21Z</time>
      </trkpt>
      <trkpt lat="44.56362" lon="1.60517">
        <ele>269.8</ele>
        <time>2019-03-17T15:52:23Z</time>
      </trkpt>
      <trkpt lat="44.56361" lon="1.6051">
        <ele>271.3</ele>
        <time>2019-03-17T15:52:26Z</time>
      </trkpt>
      <trkpt lat="44.56365" lon="1.60506">
        <ele>271.8</ele>
        <time>2019-03-17T15:52:34Z</time>
      </trkpt>
      <trkpt lat="44.56367" lon="1.60498">
        <ele>271</ele>
        <time>2019-03-17T15:52:39Z</time>
      </trkpt>
      <trkpt lat="44.56369" lon="1.60492">
        <ele>271.4</ele>
        <time>2019-03-17T15:52:43Z</time>
      </trkpt>
      <trkpt lat="44.56372" lon="1.60485">
        <ele>272.1</ele>
        <time>2019-03-17T15:52:47Z</time>
      </trkpt>
      <trkpt lat="44.56375" lon="1.60479">
        <ele>272.9</ele>
        <time>2019-03-17T15:52:52Z</time>
      </trkpt>
      <trkpt lat="44.5638" lon="1.60476">
        <ele>273</ele>
        <time>2019-03-17T15:52:55Z</time>
      </trkpt>
      <trkpt lat="44.56385" lon="1.60474">
        <ele>273.8</ele>
        <time>2019-03-17T15:52:58Z</time>
      </trkpt>
      <trkpt lat="44.56389" lon="1.6047">
        <ele>274</ele>
        <time>2019-03-17T15:53:02Z</time>
      </trkpt>
      <trkpt lat="44.56393" lon="1.60466">
        <ele>273.7</ele>
        <time>2019-03-17T15:53:07Z</time>
      </trkpt>
      <trkpt lat="44.56396" lon="1.60461">
        <ele>273.5</ele>
        <time>2019-03-17T15:53:11Z</time>
      </trkpt>
      <trkpt lat="44.56401" lon="1.60458">
        <ele>272.2</ele>
        <time>2019-03-17T15:53:15Z</time>
      </trkpt>
      <trkpt lat="44.56404" lon="1.60453">
        <ele>271.5</ele>
        <time>2019-03-17T15:53:19Z</time>
      </trkpt>
      <trkpt lat="44.56407" lon="1.60448">
        <ele>271.2</ele>
        <time>2019-03-17T15:53:23Z</time>
      </trkpt>
      <trkpt lat="44.56412" lon="1.60446">
        <ele>268.7</ele>
        <time>2019-03-17T15:53:34Z</time>
      </trkpt>
      <trkpt lat="44.56416" lon="1.60441">
        <ele>269.2</ele>
        <time>2019-03-17T15:53:38Z</time>
      </trkpt>
      <trkpt lat="44.56418" lon="1.60435">
        <ele>269.9</ele>
        <time>2019-03-17T15:53:41Z</time>
      </trkpt>
      <trkpt lat="44.5642" lon="1.60426">
        <ele>271.3</ele>
        <time>2019-03-17T15:53:44Z</time>
      </trkpt>
      <trkpt lat="44.56423" lon="1.6042">
        <ele>271.9</ele>
        <time>2019-03-17T15:53:49Z</time>
      </trkpt>
      <trkpt lat="44.56426" lon="1.60414">
        <ele>272.7</ele>
        <time>2019-03-17T15:53:54Z</time>
      </trkpt>
      <trkpt lat="44.5643" lon="1.60409">
        <ele>271</ele>
        <time>2019-03-17T15:53:59Z</time>
      </trkpt>
      <trkpt lat="44.56433" lon="1.60403">
        <ele>270.4</ele>
        <time>2019-03-17T15:54:04Z</time>
      </trkpt>
      <trkpt lat="44.56438" lon="1.60399">
        <ele>269.7</ele>
        <time>2019-03-17T15:54:09Z</time>
      </trkpt>
      <trkpt lat="44.5644" lon="1.60392">
        <ele>270.8</ele>
        <time>2019-03-17T15:54:14Z</time>
      </trkpt>
      <trkpt lat="44.56443" lon="1.60386">
        <ele>272.5</ele>
        <time>2019-03-17T15:54:21Z</time>
      </trkpt>
      <trkpt lat="44.56447" lon="1.6038">
        <ele>273.7</ele>
        <time>2019-03-17T15:54:25Z</time>
      </trkpt>
      <trkpt lat="44.56449" lon="1.60373">
        <ele>274.5</ele>
        <time>2019-03-17T15:54:29Z</time>
      </trkpt>
      <trkpt lat="44.56452" lon="1.60367">
        <ele>275</ele>
        <time>2019-03-17T15:54:33Z</time>
      </trkpt>
      <trkpt lat="44.56452" lon="1.6036">
        <ele>276.2</ele>
        <time>2019-03-17T15:54:38Z</time>
      </trkpt>
      <trkpt lat="44.56454" lon="1.60355">
        <ele>276.2</ele>
        <time>2019-03-17T15:54:54Z</time>
      </trkpt>
      <trkpt lat="44.56457" lon="1.6035">
        <ele>274.3</ele>
        <time>2019-03-17T15:54:59Z</time>
      </trkpt>
      <trkpt lat="44.56458" lon="1.60343">
        <ele>274.8</ele>
        <time>2019-03-17T15:55:03Z</time>
      </trkpt>
      <trkpt lat="44.5646" lon="1.60337">
        <ele>274.8</ele>
        <time>2019-03-17T15:55:08Z</time>
      </trkpt>
      <trkpt lat="44.56463" lon="1.60331">
        <ele>274.7</ele>
        <time>2019-03-17T15:55:13Z</time>
      </trkpt>
      <trkpt lat="44.56467" lon="1.60326">
        <ele>275.6</ele>
        <time>2019-03-17T15:55:17Z</time>
      </trkpt>
      <trkpt lat="44.5647" lon="1.60322">
        <ele>276</ele>
        <time>2019-03-17T15:55:22Z</time>
      </trkpt>
      <trkpt lat="44.56473" lon="1.60316">
        <ele>275.5</ele>
        <time>2019-03-17T15:55:29Z</time>
      </trkpt>
      <trkpt lat="44.56477" lon="1.6031">
        <ele>275.8</ele>
        <time>2019-03-17T15:55:34Z</time>
      </trkpt>
      <trkpt lat="44.56479" lon="1.60304">
        <ele>276.7</ele>
        <time>2019-03-17T15:55:43Z</time>
      </trkpt>
      <trkpt lat="44.56478" lon="1.60296">
        <ele>279.5</ele>
        <time>2019-03-17T15:57:35Z</time>
      </trkpt>
      <trkpt lat="44.56481" lon="1.6028">
        <ele>279.5</ele>
        <time>2019-03-17T15:57:46Z</time>
      </trkpt>
      <trkpt lat="44.56483" lon="1.60272">
        <ele>279.4</ele>
        <time>2019-03-17T15:57:50Z</time>
      </trkpt>
      <trkpt lat="44.56483" lon="1.60265">
        <ele>279.8</ele>
        <time>2019-03-17T15:57:54Z</time>
      </trkpt>
      <trkpt lat="44.56483" lon="1.60258">
        <ele>280.8</ele>
        <time>2019-03-17T15:57:58Z</time>
      </trkpt>
      <trkpt lat="44.56484" lon="1.6025">
        <ele>281.2</ele>
        <time>2019-03-17T15:58:02Z</time>
      </trkpt>
      <trkpt lat="44.56485" lon="1.60243">
        <ele>280.8</ele>
        <time>2019-03-17T15:58:06Z</time>
      </trkpt>
      <trkpt lat="44.56486" lon="1.60236">
        <ele>281</ele>
        <time>2019-03-17T15:58:10Z</time>
      </trkpt>
      <trkpt lat="44.56488" lon="1.6023">
        <ele>280.8</ele>
        <time>2019-03-17T15:58:14Z</time>
      </trkpt>
      <trkpt lat="44.56489" lon="1.60223">
        <ele>281.1</ele>
        <time>2019-03-17T15:58:18Z</time>
      </trkpt>
      <trkpt lat="44.5649" lon="1.60217">
        <ele>281.7</ele>
        <time>2019-03-17T15:58:22Z</time>
      </trkpt>
      <trkpt lat="44.5649" lon="1.60211">
        <ele>280.9</ele>
        <time>2019-03-17T15:58:26Z</time>
      </trkpt>
      <trkpt lat="44.56492" lon="1.60204">
        <ele>280.8</ele>
        <time>2019-03-17T15:58:30Z</time>
      </trkpt>
      <trkpt lat="44.5649" lon="1.60198">
        <ele>281.6</ele>
        <time>2019-03-17T15:58:36Z</time>
      </trkpt>
      <trkpt lat="44.56489" lon="1.60191">
        <ele>284.4</ele>
        <time>2019-03-17T15:58:41Z</time>
      </trkpt>
      <trkpt lat="44.56489" lon="1.60184">
        <ele>285.8</ele>
        <time>2019-03-17T15:58:46Z</time>
      </trkpt>
      <trkpt lat="44.56488" lon="1.60178">
        <ele>286.2</ele>
        <time>2019-03-17T15:58:51Z</time>
      </trkpt>
      <trkpt lat="44.56486" lon="1.60171">
        <ele>287</ele>
        <time>2019-03-17T15:58:55Z</time>
      </trkpt>
      <trkpt lat="44.56485" lon="1.60164">
        <ele>287.8</ele>
        <time>2019-03-17T15:58:58Z</time>
      </trkpt>
      <trkpt lat="44.56483" lon="1.60158">
        <ele>287.3</ele>
        <time>2019-03-17T15:59:03Z</time>
      </trkpt>
      <trkpt lat="44.56482" lon="1.60151">
        <ele>284.3</ele>
        <time>2019-03-17T15:59:09Z</time>
      </trkpt>
      <trkpt lat="44.56479" lon="1.60146">
        <ele>281.4</ele>
        <time>2019-03-17T15:59:15Z</time>
      </trkpt>
      <trkpt lat="44.56475" lon="1.60142">
        <ele>280.4</ele>
        <time>2019-03-17T15:59:20Z</time>
      </trkpt>
      <trkpt lat="44.56471" lon="1.60137">
        <ele>277.5</ele>
        <time>2019-03-17T15:59:27Z</time>
      </trkpt>
      <trkpt lat="44.56468" lon="1.60131">
        <ele>276.2</ele>
        <time>2019-03-17T15:59:33Z</time>
      </trkpt>
      <trkpt lat="44.56464" lon="1.60125">
        <ele>275.8</ele>
        <time>2019-03-17T15:59:38Z</time>
      </trkpt>
      <trkpt lat="44.56462" lon="1.60119">
        <ele>273.5</ele>
        <time>2019-03-17T15:59:43Z</time>
      </trkpt>
      <trkpt lat="44.56461" lon="1.60112">
        <ele>272.5</ele>
        <time>2019-03-17T15:59:47Z</time>
      </trkpt>
      <trkpt lat="44.5646" lon="1.60106">
        <ele>273.2</ele>
        <time>2019-03-17T15:59:51Z</time>
      </trkpt>
      <trkpt lat="44.5646" lon="1.60099">
        <ele>273.5</ele>
        <time>2019-03-17T15:59:56Z</time>
      </trkpt>
      <trkpt lat="44.56461" lon="1.60092">
        <ele>273.1</ele>
        <time>2019-03-17T16:00:00Z</time>
      </trkpt>
      <trkpt lat="44.56461" lon="1.60085">
        <ele>272.8</ele>
        <time>2019-03-17T16:00:05Z</time>
      </trkpt>
      <trkpt lat="44.56461" lon="1.60076">
        <ele>274</ele>
        <time>2019-03-17T16:00:08Z</time>
      </trkpt>
      <trkpt lat="44.56462" lon="1.60068">
        <ele>275.1</ele>
        <time>2019-03-17T16:00:12Z</time>
      </trkpt>
      <trkpt lat="44.56463" lon="1.60062">
        <ele>276</ele>
        <time>2019-03-17T16:00:16Z</time>
      </trkpt>
      <trkpt lat="44.56463" lon="1.60055">
        <ele>276.2</ele>
        <time>2019-03-17T16:00:21Z</time>
      </trkpt>
      <trkpt lat="44.56463" lon="1.60047">
        <ele>277.3</ele>
        <time>2019-03-17T16:00:26Z</time>
      </trkpt>
      <trkpt lat="44.56463" lon="1.6004">
        <ele>278.5</ele>
        <time>2019-03-17T16:00:30Z</time>
      </trkpt>
      <trkpt lat="44.56461" lon="1.60033">
        <ele>279.3</ele>
        <time>2019-03-17T16:00:34Z</time>
      </trkpt>
      <trkpt lat="44.5646" lon="1.60027">
        <ele>279.5</ele>
        <time>2019-03-17T16:00:40Z</time>
      </trkpt>
      <trkpt lat="44.56459" lon="1.60019">
        <ele>279.6</ele>
        <time>2019-03-17T16:00:45Z</time>
      </trkpt>
      <trkpt lat="44.56458" lon="1.60012">
        <ele>280.3</ele>
        <time>2019-03-17T16:00:49Z</time>
      </trkpt>
      <trkpt lat="44.56458" lon="1.60004">
        <ele>280.2</ele>
        <time>2019-03-17T16:00:54Z</time>
      </trkpt>
      <trkpt lat="44.56459" lon="1.59997">
        <ele>280.8</ele>
        <time>2019-03-17T16:00:59Z</time>
      </trkpt>
      <trkpt lat="44.56463" lon="1.59989">
        <ele>281.5</ele>
        <time>2019-03-17T16:01:02Z</time>
      </trkpt>
      <trkpt lat="44.56467" lon="1.59984">
        <ele>281.9</ele>
        <time>2019-03-17T16:01:04Z</time>
      </trkpt>
      <trkpt lat="44.5647" lon="1.59978">
        <ele>282.6</ele>
        <time>2019-03-17T16:01:08Z</time>
      </trkpt>
      <trkpt lat="44.56473" lon="1.59975">
        <ele>283.6</ele>
        <time>2019-03-17T16:01:14Z</time>
      </trkpt>
      <trkpt lat="44.56478" lon="1.59973">
        <ele>285.8</ele>
        <time>2019-03-17T16:01:19Z</time>
      </trkpt>
      <trkpt lat="44.56484" lon="1.5997">
        <ele>287.1</ele>
        <time>2019-03-17T16:01:23Z</time>
      </trkpt>
      <trkpt lat="44.56488" lon="1.59967">
        <ele>288.2</ele>
        <time>2019-03-17T16:01:27Z</time>
      </trkpt>
      <trkpt lat="44.56492" lon="1.59962">
        <ele>288.9</ele>
        <time>2019-03-17T16:01:33Z</time>
      </trkpt>
      <trkpt lat="44.56496" lon="1.59961">
        <ele>289.1</ele>
        <time>2019-03-17T16:01:39Z</time>
      </trkpt>
      <trkpt lat="44.56502" lon="1.5996">
        <ele>290.1</ele>
        <time>2019-03-17T16:01:48Z</time>
      </trkpt>
      <trkpt lat="44.56507" lon="1.59961">
        <ele>289.9</ele>
        <time>2019-03-17T16:01:57Z</time>
      </trkpt>
      <trkpt lat="44.56512" lon="1.59961">
        <ele>289.6</ele>
        <time>2019-03-17T16:02:02Z</time>
      </trkpt>
      <trkpt lat="44.56517" lon="1.59962">
        <ele>290.4</ele>
        <time>2019-03-17T16:02:06Z</time>
      </trkpt>
      <trkpt lat="44.56522" lon="1.59962">
        <ele>290.6</ele>
        <time>2019-03-17T16:02:10Z</time>
      </trkpt>
      <trkpt lat="44.56526" lon="1.59962">
        <ele>290.5</ele>
        <time>2019-03-17T16:02:19Z</time>
      </trkpt>
      <trkpt lat="44.56531" lon="1.59959">
        <ele>290.5</ele>
        <time>2019-03-17T16:02:31Z</time>
      </trkpt>
      <trkpt lat="44.56536" lon="1.59957">
        <ele>289.8</ele>
        <time>2019-03-17T16:02:37Z</time>
      </trkpt>
      <trkpt lat="44.56541" lon="1.59953">
        <ele>289.2</ele>
        <time>2019-03-17T16:02:42Z</time>
      </trkpt>
      <trkpt lat="44.56546" lon="1.59948">
        <ele>289.2</ele>
        <time>2019-03-17T16:02:44Z</time>
      </trkpt>
      <trkpt lat="44.56551" lon="1.59945">
        <ele>289.6</ele>
        <time>2019-03-17T16:02:46Z</time>
      </trkpt>
      <trkpt lat="44.56553" lon="1.5994">
        <ele>289.7</ele>
        <time>2019-03-17T16:02:49Z</time>
      </trkpt>
      <trkpt lat="44.56558" lon="1.59936">
        <ele>290.1</ele>
        <time>2019-03-17T16:02:52Z</time>
      </trkpt>
      <trkpt lat="44.5656" lon="1.59929">
        <ele>289.9</ele>
        <time>2019-03-17T16:02:58Z</time>
      </trkpt>
      <trkpt lat="44.56561" lon="1.59921">
        <ele>291.6</ele>
        <time>2019-03-17T16:03:02Z</time>
      </trkpt>
      <trkpt lat="44.56565" lon="1.59917">
        <ele>292.6</ele>
        <time>2019-03-17T16:03:08Z</time>
      </trkpt>
      <trkpt lat="44.56569" lon="1.59913">
        <ele>291.8</ele>
        <time>2019-03-17T16:03:15Z</time>
      </trkpt>
      <trkpt lat="44.56573" lon="1.59909">
        <ele>291.8</ele>
        <time>2019-03-17T16:03:19Z</time>
      </trkpt>
      <trkpt lat="44.56578" lon="1.59907">
        <ele>291.7</ele>
        <time>2019-03-17T16:03:22Z</time>
      </trkpt>
      <trkpt lat="44.56581" lon="1.599">
        <ele>292.4</ele>
        <time>2019-03-17T16:03:28Z</time>
      </trkpt>
      <trkpt lat="44.56585" lon="1.59897">
        <ele>292.9</ele>
        <time>2019-03-17T16:03:32Z</time>
      </trkpt>
      <trkpt lat="44.56589" lon="1.59892">
        <ele>293.1</ele>
        <time>2019-03-17T16:03:36Z</time>
      </trkpt>
      <trkpt lat="44.56593" lon="1.59888">
        <ele>292.2</ele>
        <time>2019-03-17T16:03:41Z</time>
      </trkpt>
      <trkpt lat="44.56595" lon="1.59881">
        <ele>291.6</ele>
        <time>2019-03-17T16:03:45Z</time>
      </trkpt>
      <trkpt lat="44.56595" lon="1.59873">
        <ele>292.5</ele>
        <time>2019-03-17T16:03:49Z</time>
      </trkpt>
      <trkpt lat="44.56597" lon="1.59867">
        <ele>293.3</ele>
        <time>2019-03-17T16:03:54Z</time>
      </trkpt>
      <trkpt lat="44.566" lon="1.5986">
        <ele>294.4</ele>
        <time>2019-03-17T16:03:59Z</time>
      </trkpt>
      <trkpt lat="44.56601" lon="1.59854">
        <ele>295.6</ele>
        <time>2019-03-17T16:04:04Z</time>
      </trkpt>
      <trkpt lat="44.56603" lon="1.59847">
        <ele>295.3</ele>
        <time>2019-03-17T16:04:08Z</time>
      </trkpt>
      <trkpt lat="44.56606" lon="1.5984">
        <ele>294.9</ele>
        <time>2019-03-17T16:04:12Z</time>
      </trkpt>
      <trkpt lat="44.56609" lon="1.59835">
        <ele>294.2</ele>
        <time>2019-03-17T16:04:17Z</time>
      </trkpt>
      <trkpt lat="44.56615" lon="1.59833">
        <ele>293.3</ele>
        <time>2019-03-17T16:04:24Z</time>
      </trkpt>
      <trkpt lat="44.56619" lon="1.5983">
        <ele>293.3</ele>
        <time>2019-03-17T16:04:27Z</time>
      </trkpt>
      <trkpt lat="44.56625" lon="1.59827">
        <ele>293.3</ele>
        <time>2019-03-17T16:04:35Z</time>
      </trkpt>
      <trkpt lat="44.5663" lon="1.59828">
        <ele>293.8</ele>
        <time>2019-03-17T16:04:38Z</time>
      </trkpt>
      <trkpt lat="44.56635" lon="1.59825">
        <ele>294.4</ele>
        <time>2019-03-17T16:04:42Z</time>
      </trkpt>
      <trkpt lat="44.5664" lon="1.59824">
        <ele>296.2</ele>
        <time>2019-03-17T16:04:53Z</time>
      </trkpt>
      <trkpt lat="44.56645" lon="1.59821">
        <ele>297.3</ele>
        <time>2019-03-17T16:05:10Z</time>
      </trkpt>
      <trkpt lat="44.56649" lon="1.59816">
        <ele>298.5</ele>
        <time>2019-03-17T16:05:16Z</time>
      </trkpt>
      <trkpt lat="44.56654" lon="1.59814">
        <ele>298.2</ele>
        <time>2019-03-17T16:05:21Z</time>
      </trkpt>
      <trkpt lat="44.56658" lon="1.5981">
        <ele>297.8</ele>
        <time>2019-03-17T16:05:26Z</time>
      </trkpt>
      <trkpt lat="44.56662" lon="1.59805">
        <ele>298.3</ele>
        <time>2019-03-17T16:05:36Z</time>
      </trkpt>
      <trkpt lat="44.56667" lon="1.59801">
        <ele>300.3</ele>
        <time>2019-03-17T16:05:40Z</time>
      </trkpt>
      <trkpt lat="44.56671" lon="1.59795">
        <ele>302.8</ele>
        <time>2019-03-17T16:05:45Z</time>
      </trkpt>
      <trkpt lat="44.56675" lon="1.5979">
        <ele>303</ele>
        <time>2019-03-17T16:05:49Z</time>
      </trkpt>
      <trkpt lat="44.5668" lon="1.59787">
        <ele>302.1</ele>
        <time>2019-03-17T16:05:53Z</time>
      </trkpt>
      <trkpt lat="44.56684" lon="1.59783">
        <ele>301.1</ele>
        <time>2019-03-17T16:05:56Z</time>
      </trkpt>
      <trkpt lat="44.56688" lon="1.59779">
        <ele>298.8</ele>
        <time>2019-03-17T16:06:01Z</time>
      </trkpt>
      <trkpt lat="44.56691" lon="1.59774">
        <ele>298</ele>
        <time>2019-03-17T16:06:05Z</time>
      </trkpt>
      <trkpt lat="44.56695" lon="1.59771">
        <ele>299.1</ele>
        <time>2019-03-17T16:06:11Z</time>
      </trkpt>
      <trkpt lat="44.567" lon="1.59768">
        <ele>300</ele>
        <time>2019-03-17T16:06:16Z</time>
      </trkpt>
      <trkpt lat="44.56703" lon="1.59763">
        <ele>300.2</ele>
        <time>2019-03-17T16:06:23Z</time>
      </trkpt>
      <trkpt lat="44.56707" lon="1.59758">
        <ele>300.3</ele>
        <time>2019-03-17T16:06:28Z</time>
      </trkpt>
      <trkpt lat="44.56712" lon="1.59757">
        <ele>301</ele>
        <time>2019-03-17T16:06:32Z</time>
      </trkpt>
      <trkpt lat="44.56717" lon="1.59754">
        <ele>300.6</ele>
        <time>2019-03-17T16:06:35Z</time>
      </trkpt>
      <trkpt lat="44.56716" lon="1.59748">
        <ele>298</ele>
        <time>2019-03-17T16:06:50Z</time>
      </trkpt>
      <trkpt lat="44.5672" lon="1.59743">
        <ele>297.9</ele>
        <time>2019-03-17T16:06:53Z</time>
      </trkpt>
      <trkpt lat="44.56723" lon="1.59738">
        <ele>297.6</ele>
        <time>2019-03-17T16:06:56Z</time>
      </trkpt>
      <trkpt lat="44.56726" lon="1.59733">
        <ele>296.7</ele>
        <time>2019-03-17T16:07:00Z</time>
      </trkpt>
      <trkpt lat="44.56729" lon="1.59726">
        <ele>295.8</ele>
        <time>2019-03-17T16:07:04Z</time>
      </trkpt>
      <trkpt lat="44.5673" lon="1.59719">
        <ele>295.3</ele>
        <time>2019-03-17T16:07:08Z</time>
      </trkpt>
      <trkpt lat="44.56731" lon="1.59712">
        <ele>294.7</ele>
        <time>2019-03-17T16:07:12Z</time>
      </trkpt>
      <trkpt lat="44.56733" lon="1.59705">
        <ele>294</ele>
        <time>2019-03-17T16:07:17Z</time>
      </trkpt>
      <trkpt lat="44.56734" lon="1.59698">
        <ele>293.7</ele>
        <time>2019-03-17T16:07:22Z</time>
      </trkpt>
      <trkpt lat="44.56735" lon="1.59691">
        <ele>293.9</ele>
        <time>2019-03-17T16:07:26Z</time>
      </trkpt>
      <trkpt lat="44.56739" lon="1.59685">
        <ele>295</ele>
        <time>2019-03-17T16:07:32Z</time>
      </trkpt>
      <trkpt lat="44.5674" lon="1.59678">
        <ele>296.1</ele>
        <time>2019-03-17T16:07:35Z</time>
      </trkpt>
      <trkpt lat="44.56739" lon="1.59672">
        <ele>297.4</ele>
        <time>2019-03-17T16:07:38Z</time>
      </trkpt>
      <trkpt lat="44.56737" lon="1.59666">
        <ele>299.1</ele>
        <time>2019-03-17T16:07:43Z</time>
      </trkpt>
      <trkpt lat="44.56733" lon="1.59662">
        <ele>299.9</ele>
        <time>2019-03-17T16:07:46Z</time>
      </trkpt>
      <trkpt lat="44.56733" lon="1.59656">
        <ele>301.2</ele>
        <time>2019-03-17T16:07:51Z</time>
      </trkpt>
      <trkpt lat="44.56739" lon="1.59644">
        <ele>302</ele>
        <time>2019-03-17T16:08:03Z</time>
      </trkpt>
      <trkpt lat="44.56742" lon="1.59635">
        <ele>302.8</ele>
        <time>2019-03-17T16:08:15Z</time>
      </trkpt>
      <trkpt lat="44.56745" lon="1.59629">
        <ele>302.8</ele>
        <time>2019-03-17T16:08:19Z</time>
      </trkpt>
      <trkpt lat="44.56744" lon="1.59622">
        <ele>303.8</ele>
        <time>2019-03-17T16:08:22Z</time>
      </trkpt>
      <trkpt lat="44.56742" lon="1.59616">
        <ele>305.9</ele>
        <time>2019-03-17T16:08:28Z</time>
      </trkpt>
      <trkpt lat="44.56745" lon="1.59605">
        <ele>308</ele>
        <time>2019-03-17T16:08:39Z</time>
      </trkpt>
      <trkpt lat="44.56756" lon="1.59588">
        <ele>307.6</ele>
        <time>2019-03-17T16:08:48Z</time>
      </trkpt>
      <trkpt lat="44.56759" lon="1.59582">
        <ele>307.9</ele>
        <time>2019-03-17T16:08:51Z</time>
      </trkpt>
      <trkpt lat="44.56752" lon="1.59564">
        <ele>309</ele>
        <time>2019-03-17T16:08:59Z</time>
      </trkpt>
      <trkpt lat="44.56744" lon="1.59553">
        <ele>307.9</ele>
        <time>2019-03-17T16:09:07Z</time>
      </trkpt>
      <trkpt lat="44.56752" lon="1.59553">
        <ele>308.4</ele>
        <time>2019-03-17T16:09:09Z</time>
      </trkpt>
      <trkpt lat="44.56758" lon="1.59553">
        <ele>308</ele>
        <time>2019-03-17T16:09:11Z</time>
      </trkpt>
      <trkpt lat="44.56764" lon="1.59548">
        <ele>307.6</ele>
        <time>2019-03-17T16:09:16Z</time>
      </trkpt>
      <trkpt lat="44.56768" lon="1.59546">
        <ele>307</ele>
        <time>2019-03-17T16:09:19Z</time>
      </trkpt>
      <trkpt lat="44.56771" lon="1.59539">
        <ele>306</ele>
        <time>2019-03-17T16:09:23Z</time>
      </trkpt>
      <trkpt lat="44.56773" lon="1.59532">
        <ele>305.2</ele>
        <time>2019-03-17T16:09:27Z</time>
      </trkpt>
      <trkpt lat="44.56774" lon="1.59525">
        <ele>305.1</ele>
        <time>2019-03-17T16:09:32Z</time>
      </trkpt>
      <trkpt lat="44.56778" lon="1.59522">
        <ele>306</ele>
        <time>2019-03-17T16:09:38Z</time>
      </trkpt>
      <trkpt lat="44.56784" lon="1.59524">
        <ele>306.6</ele>
        <time>2019-03-17T16:10:05Z</time>
      </trkpt>
      <trkpt lat="44.56786" lon="1.59534">
        <ele>308</ele>
        <time>2019-03-17T16:10:24Z</time>
      </trkpt>
      <trkpt lat="44.56789" lon="1.5954">
        <ele>308.3</ele>
        <time>2019-03-17T16:10:26Z</time>
      </trkpt>
      <trkpt lat="44.56791" lon="1.59547">
        <ele>308.7</ele>
        <time>2019-03-17T16:10:29Z</time>
      </trkpt>
      <trkpt lat="44.56793" lon="1.59553">
        <ele>308.7</ele>
        <time>2019-03-17T16:10:32Z</time>
      </trkpt>
      <trkpt lat="44.56796" lon="1.59559">
        <ele>310.1</ele>
        <time>2019-03-17T16:10:37Z</time>
      </trkpt>
      <trkpt lat="44.568" lon="1.59565">
        <ele>311</ele>
        <time>2019-03-17T16:10:40Z</time>
      </trkpt>
      <trkpt lat="44.56803" lon="1.5957">
        <ele>311.2</ele>
        <time>2019-03-17T16:10:44Z</time>
      </trkpt>
      <trkpt lat="44.56806" lon="1.59574">
        <ele>312.1</ele>
        <time>2019-03-17T16:10:48Z</time>
      </trkpt>
      <trkpt lat="44.56808" lon="1.5958">
        <ele>313.5</ele>
        <time>2019-03-17T16:10:53Z</time>
      </trkpt>
      <trkpt lat="44.56811" lon="1.59587">
        <ele>313.9</ele>
        <time>2019-03-17T16:10:57Z</time>
      </trkpt>
      <trkpt lat="44.56813" lon="1.59593">
        <ele>315</ele>
        <time>2019-03-17T16:11:02Z</time>
      </trkpt>
      <trkpt lat="44.56815" lon="1.59599">
        <ele>314.9</ele>
        <time>2019-03-17T16:11:07Z</time>
      </trkpt>
      <trkpt lat="44.56817" lon="1.59606">
        <ele>314.9</ele>
        <time>2019-03-17T16:11:12Z</time>
      </trkpt>
      <trkpt lat="44.56818" lon="1.59613">
        <ele>314.6</ele>
        <time>2019-03-17T16:11:16Z</time>
      </trkpt>
      <trkpt lat="44.56819" lon="1.59619">
        <ele>313</ele>
        <time>2019-03-17T16:11:22Z</time>
      </trkpt>
      <trkpt lat="44.56822" lon="1.59626">
        <ele>312.8</ele>
        <time>2019-03-17T16:11:28Z</time>
      </trkpt>
      <trkpt lat="44.56826" lon="1.59631">
        <ele>313</ele>
        <time>2019-03-17T16:11:30Z</time>
      </trkpt>
      <trkpt lat="44.56828" lon="1.59637">
        <ele>313.2</ele>
        <time>2019-03-17T16:11:35Z</time>
      </trkpt>
      <trkpt lat="44.56829" lon="1.59644">
        <ele>310.6</ele>
        <time>2019-03-17T16:11:45Z</time>
      </trkpt>
      <trkpt lat="44.56831" lon="1.59649">
        <ele>309</ele>
        <time>2019-03-17T16:11:49Z</time>
      </trkpt>
      <trkpt lat="44.56834" lon="1.59655">
        <ele>307.7</ele>
        <time>2019-03-17T16:11:55Z</time>
      </trkpt>
      <trkpt lat="44.56837" lon="1.59661">
        <ele>307.3</ele>
        <time>2019-03-17T16:12:00Z</time>
      </trkpt>
      <trkpt lat="44.56844" lon="1.59677">
        <ele>304.3</ele>
        <time>2019-03-17T16:12:17Z</time>
      </trkpt>
      <trkpt lat="44.56846" lon="1.59683">
        <ele>305</ele>
        <time>2019-03-17T16:12:21Z</time>
      </trkpt>
      <trkpt lat="44.56849" lon="1.59689">
        <ele>305.8</ele>
        <time>2019-03-17T16:12:24Z</time>
      </trkpt>
      <trkpt lat="44.56852" lon="1.59696">
        <ele>306.2</ele>
        <time>2019-03-17T16:12:28Z</time>
      </trkpt>
      <trkpt lat="44.56851" lon="1.59703">
        <ele>305.9</ele>
        <time>2019-03-17T16:12:37Z</time>
      </trkpt>
      <trkpt lat="44.56853" lon="1.5971">
        <ele>306.3</ele>
        <time>2019-03-17T16:12:40Z</time>
      </trkpt>
      <trkpt lat="44.56854" lon="1.59717">
        <ele>307.2</ele>
        <time>2019-03-17T16:12:44Z</time>
      </trkpt>
      <trkpt lat="44.56855" lon="1.59723">
        <ele>308.1</ele>
        <time>2019-03-17T16:12:49Z</time>
      </trkpt>
      <trkpt lat="44.56855" lon="1.5973">
        <ele>308.4</ele>
        <time>2019-03-17T16:12:55Z</time>
      </trkpt>
      <trkpt lat="44.56854" lon="1.59736">
        <ele>307.8</ele>
        <time>2019-03-17T16:13:00Z</time>
      </trkpt>
      <trkpt lat="44.56852" lon="1.59744">
        <ele>307.7</ele>
        <time>2019-03-17T16:13:04Z</time>
      </trkpt>
      <trkpt lat="44.5685" lon="1.5975">
        <ele>307.8</ele>
        <time>2019-03-17T16:13:07Z</time>
      </trkpt>
      <trkpt lat="44.56848" lon="1.59756">
        <ele>307.4</ele>
        <time>2019-03-17T16:13:13Z</time>
      </trkpt>
      <trkpt lat="44.56845" lon="1.59763">
        <ele>307.8</ele>
        <time>2019-03-17T16:13:23Z</time>
      </trkpt>
      <trkpt lat="44.56843" lon="1.59769">
        <ele>307.2</ele>
        <time>2019-03-17T16:13:27Z</time>
      </trkpt>
      <trkpt lat="44.56844" lon="1.59775">
        <ele>306.1</ele>
        <time>2019-03-17T16:13:35Z</time>
      </trkpt>
      <trkpt lat="44.56843" lon="1.59782">
        <ele>305.3</ele>
        <time>2019-03-17T16:13:41Z</time>
      </trkpt>
      <trkpt lat="44.5684" lon="1.59787">
        <ele>304.1</ele>
        <time>2019-03-17T16:13:46Z</time>
      </trkpt>
      <trkpt lat="44.56837" lon="1.59793">
        <ele>305.1</ele>
        <time>2019-03-17T16:13:51Z</time>
      </trkpt>
      <trkpt lat="44.5684" lon="1.59801">
        <ele>304.8</ele>
        <time>2019-03-17T16:13:56Z</time>
      </trkpt>
      <trkpt lat="44.56836" lon="1.59804">
        <ele>305.2</ele>
        <time>2019-03-17T16:14:01Z</time>
      </trkpt>
      <trkpt lat="44.56837" lon="1.59816">
        <ele>307.5</ele>
        <time>2019-03-17T16:14:13Z</time>
      </trkpt>
      <trkpt lat="44.56836" lon="1.59832">
        <ele>306</ele>
        <time>2019-03-17T16:14:24Z</time>
      </trkpt>
      <trkpt lat="44.56839" lon="1.59838">
        <ele>306</ele>
        <time>2019-03-17T16:14:29Z</time>
      </trkpt>
      <trkpt lat="44.56839" lon="1.59845">
        <ele>307.4</ele>
        <time>2019-03-17T16:14:43Z</time>
      </trkpt>
      <trkpt lat="44.5684" lon="1.59851">
        <ele>307.8</ele>
        <time>2019-03-17T16:14:46Z</time>
      </trkpt>
      <trkpt lat="44.56841" lon="1.59858">
        <ele>307.9</ele>
        <time>2019-03-17T16:14:50Z</time>
      </trkpt>
      <trkpt lat="44.56843" lon="1.59866">
        <ele>308</ele>
        <time>2019-03-17T16:14:54Z</time>
      </trkpt>
      <trkpt lat="44.56846" lon="1.59872">
        <ele>308.1</ele>
        <time>2019-03-17T16:14:57Z</time>
      </trkpt>
      <trkpt lat="44.56847" lon="1.59878">
        <ele>307</ele>
        <time>2019-03-17T16:15:03Z</time>
      </trkpt>
      <trkpt lat="44.56849" lon="1.59885">
        <ele>306.3</ele>
        <time>2019-03-17T16:15:07Z</time>
      </trkpt>
      <trkpt lat="44.56849" lon="1.59892">
        <ele>304.6</ele>
        <time>2019-03-17T16:15:12Z</time>
      </trkpt>
      <trkpt lat="44.56847" lon="1.59899">
        <ele>303.7</ele>
        <time>2019-03-17T16:15:18Z</time>
      </trkpt>
      <trkpt lat="44.56844" lon="1.59905">
        <ele>303.2</ele>
        <time>2019-03-17T16:15:23Z</time>
      </trkpt>
      <trkpt lat="44.56841" lon="1.59909">
        <ele>303.1</ele>
        <time>2019-03-17T16:15:28Z</time>
      </trkpt>
      <trkpt lat="44.56836" lon="1.59916">
        <ele>302.1</ele>
        <time>2019-03-17T16:15:40Z</time>
      </trkpt>
      <trkpt lat="44.56833" lon="1.59922">
        <ele>302.3</ele>
        <time>2019-03-17T16:15:44Z</time>
      </trkpt>
      <trkpt lat="44.5683" lon="1.59927">
        <ele>302.7</ele>
        <time>2019-03-17T16:15:47Z</time>
      </trkpt>
      <trkpt lat="44.56826" lon="1.59932">
        <ele>303.3</ele>
        <time>2019-03-17T16:15:50Z</time>
      </trkpt>
      <trkpt lat="44.56821" lon="1.59943">
        <ele>303.2</ele>
        <time>2019-03-17T16:16:00Z</time>
      </trkpt>
      <trkpt lat="44.5682" lon="1.5995">
        <ele>302.3</ele>
        <time>2019-03-17T16:16:05Z</time>
      </trkpt>
      <trkpt lat="44.56818" lon="1.59956">
        <ele>301.2</ele>
        <time>2019-03-17T16:16:10Z</time>
      </trkpt>
      <trkpt lat="44.56817" lon="1.59964">
        <ele>300.2</ele>
        <time>2019-03-17T16:16:15Z</time>
      </trkpt>
      <trkpt lat="44.56811" lon="1.59967">
        <ele>300.2</ele>
        <time>2019-03-17T16:16:17Z</time>
      </trkpt>
      <trkpt lat="44.56806" lon="1.59969">
        <ele>299.2</ele>
        <time>2019-03-17T16:16:24Z</time>
      </trkpt>
      <trkpt lat="44.56799" lon="1.59977">
        <ele>297.7</ele>
        <time>2019-03-17T16:16:32Z</time>
      </trkpt>
      <trkpt lat="44.56799" lon="1.59984">
        <ele>298.1</ele>
        <time>2019-03-17T16:16:35Z</time>
      </trkpt>
      <trkpt lat="44.56796" lon="1.59991">
        <ele>298.6</ele>
        <time>2019-03-17T16:16:38Z</time>
      </trkpt>
      <trkpt lat="44.56792" lon="1.59994">
        <ele>293.9</ele>
        <time>2019-03-17T16:16:50Z</time>
      </trkpt>
      <trkpt lat="44.56787" lon="1.59998">
        <ele>294.4</ele>
        <time>2019-03-17T16:16:53Z</time>
      </trkpt>
      <trkpt lat="44.56781" lon="1.6">
        <ele>295.1</ele>
        <time>2019-03-17T16:16:56Z</time>
      </trkpt>
      <trkpt lat="44.56764" lon="1.60029">
        <ele>292.3</ele>
        <time>2019-03-17T16:17:17Z</time>
      </trkpt>
      <trkpt lat="44.5676" lon="1.60027">
        <ele>291.3</ele>
        <time>2019-03-17T16:17:19Z</time>
      </trkpt>
      <trkpt lat="44.56755" lon="1.60029">
        <ele>291</ele>
        <time>2019-03-17T16:17:21Z</time>
      </trkpt>
      <trkpt lat="44.56756" lon="1.60058">
        <ele>289.2</ele>
        <time>2019-03-17T16:17:43Z</time>
      </trkpt>
      <trkpt lat="44.56743" lon="1.60071">
        <ele>294.2</ele>
        <time>2019-03-17T16:17:52Z</time>
      </trkpt>
      <trkpt lat="44.56739" lon="1.60073">
        <ele>294.3</ele>
        <time>2019-03-17T16:17:58Z</time>
      </trkpt>
      <trkpt lat="44.56739" lon="1.6008">
        <ele>294.6</ele>
        <time>2019-03-17T16:18:02Z</time>
      </trkpt>
      <trkpt lat="44.56732" lon="1.6009">
        <ele>287.8</ele>
        <time>2019-03-17T16:18:20Z</time>
      </trkpt>
      <trkpt lat="44.56729" lon="1.60096">
        <ele>287.6</ele>
        <time>2019-03-17T16:18:24Z</time>
      </trkpt>
      <trkpt lat="44.56723" lon="1.60116">
        <ele>283.2</ele>
        <time>2019-03-17T16:18:44Z</time>
      </trkpt>
      <trkpt lat="44.5672" lon="1.60123">
        <ele>282.9</ele>
        <time>2019-03-17T16:18:49Z</time>
      </trkpt>
      <trkpt lat="44.56699" lon="1.60161">
        <ele>279.8</ele>
        <time>2019-03-17T16:19:32Z</time>
      </trkpt>
      <trkpt lat="44.56694" lon="1.60167">
        <ele>281.1</ele>
        <time>2019-03-17T16:19:36Z</time>
      </trkpt>
      <trkpt lat="44.56683" lon="1.60192">
        <ele>282.5</ele>
        <time>2019-03-17T16:20:36Z</time>
      </trkpt>
      <trkpt lat="44.56675" lon="1.60215">
        <ele>281.7</ele>
        <time>2019-03-17T16:20:52Z</time>
      </trkpt>
      <trkpt lat="44.56673" lon="1.60222">
        <ele>281.7</ele>
        <time>2019-03-17T16:20:57Z</time>
      </trkpt>
      <trkpt lat="44.56664" lon="1.60246">
        <ele>280.9</ele>
        <time>2019-03-17T16:21:15Z</time>
      </trkpt>
      <trkpt lat="44.56659" lon="1.60246">
        <ele>281.4</ele>
        <time>2019-03-17T16:21:17Z</time>
      </trkpt>
      <trkpt lat="44.56656" lon="1.60252">
        <ele>283.5</ele>
        <time>2019-03-17T16:21:23Z</time>
      </trkpt>
      <trkpt lat="44.56643" lon="1.60274">
        <ele>285.7</ele>
        <time>2019-03-17T16:21:39Z</time>
      </trkpt>
      <trkpt lat="44.56641" lon="1.6029">
        <ele>283.1</ele>
        <time>2019-03-17T16:21:55Z</time>
      </trkpt>
      <trkpt lat="44.56643" lon="1.60296">
        <ele>281.7</ele>
        <time>2019-03-17T16:22:00Z</time>
      </trkpt>
      <trkpt lat="44.56644" lon="1.60302">
        <ele>280</ele>
        <time>2019-03-17T16:22:04Z</time>
      </trkpt>
      <trkpt lat="44.56644" lon="1.60309">
        <ele>275.1</ele>
        <time>2019-03-17T16:22:16Z</time>
      </trkpt>
      <trkpt lat="44.56646" lon="1.60317">
        <ele>274.2</ele>
        <time>2019-03-17T16:22:20Z</time>
      </trkpt>
      <trkpt lat="44.56648" lon="1.60323">
        <ele>273.9</ele>
        <time>2019-03-17T16:22:24Z</time>
      </trkpt>
      <trkpt lat="44.56649" lon="1.6033">
        <ele>273.4</ele>
        <time>2019-03-17T16:22:28Z</time>
      </trkpt>
      <trkpt lat="44.56651" lon="1.60336">
        <ele>273.8</ele>
        <time>2019-03-17T16:22:31Z</time>
      </trkpt>
      <trkpt lat="44.56653" lon="1.6033">
        <ele>272.5</ele>
        <time>2019-03-17T16:22:40Z</time>
      </trkpt>
      <trkpt lat="44.56657" lon="1.60327">
        <ele>272.8</ele>
        <time>2019-03-17T16:22:44Z</time>
      </trkpt>
      <trkpt lat="44.56664" lon="1.60324">
        <ele>272.7</ele>
        <time>2019-03-17T16:22:47Z</time>
      </trkpt>
      <trkpt lat="44.56669" lon="1.60321">
        <ele>271.5</ele>
        <time>2019-03-17T16:22:53Z</time>
      </trkpt>
      <trkpt lat="44.56674" lon="1.6032">
        <ele>272.1</ele>
        <time>2019-03-17T16:22:56Z</time>
      </trkpt>
      <trkpt lat="44.56679" lon="1.60318">
        <ele>272.8</ele>
        <time>2019-03-17T16:23:00Z</time>
      </trkpt>
      <trkpt lat="44.56684" lon="1.60316">
        <ele>274.1</ele>
        <time>2019-03-17T16:23:07Z</time>
      </trkpt>
      <trkpt lat="44.56688" lon="1.60313">
        <ele>272.8</ele>
        <time>2019-03-17T16:23:13Z</time>
      </trkpt>
      <trkpt lat="44.56693" lon="1.60311">
        <ele>271.6</ele>
        <time>2019-03-17T16:23:16Z</time>
      </trkpt>
      <trkpt lat="44.56702" lon="1.60317">
        <ele>271.7</ele>
        <time>2019-03-17T16:23:52Z</time>
      </trkpt>
      <trkpt lat="44.56706" lon="1.60318">
        <ele>271.9</ele>
        <time>2019-03-17T16:23:55Z</time>
      </trkpt>
      <trkpt lat="44.56713" lon="1.6031">
        <ele>268.2</ele>
        <time>2019-03-17T16:24:14Z</time>
      </trkpt>
      <trkpt lat="44.56708" lon="1.60309">
        <ele>269.8</ele>
        <time>2019-03-17T16:24:47Z</time>
      </trkpt>
      <trkpt lat="44.5671" lon="1.60311">
        <ele>269.6</ele>
        <time>2019-03-17T16:24:56Z</time>
      </trkpt>
      <trkpt lat="44.56713" lon="1.60315">
        <ele>265.6</ele>
        <time>2019-03-17T16:25:12Z</time>
      </trkpt>
      <trkpt lat="44.56713" lon="1.60321">
        <ele>266.1</ele>
        <time>2019-03-17T16:25:23Z</time>
      </trkpt>
      <trkpt lat="44.5671" lon="1.60326">
        <ele>267.3</ele>
        <time>2019-03-17T16:25:39Z</time>
      </trkpt>
      <trkpt lat="44.56692" lon="1.60352">
        <ele>266.9</ele>
        <time>2019-03-17T16:26:09Z</time>
      </trkpt>
      <trkpt lat="44.56689" lon="1.60366">
        <ele>269.8</ele>
        <time>2019-03-17T16:26:32Z</time>
      </trkpt>
      <trkpt lat="44.56695" lon="1.60384">
        <ele>263.9</ele>
        <time>2019-03-17T16:27:15Z</time>
      </trkpt>
      <trkpt lat="44.56699" lon="1.60388">
        <ele>263.3</ele>
        <time>2019-03-17T16:27:19Z</time>
      </trkpt>
      <trkpt lat="44.56703" lon="1.60394">
        <ele>263.7</ele>
        <time>2019-03-17T16:27:23Z</time>
      </trkpt>
      <trkpt lat="44.567" lon="1.60399">
        <ele>263.3</ele>
        <time>2019-03-17T16:27:28Z</time>
      </trkpt>
      <trkpt lat="44.56701" lon="1.60405">
        <ele>264.2</ele>
        <time>2019-03-17T16:27:36Z</time>
      </trkpt>
      <trkpt lat="44.56686" lon="1.60425">
        <ele>267.3</ele>
        <time>2019-03-17T16:28:07Z</time>
      </trkpt>
      <trkpt lat="44.56688" lon="1.60431">
        <ele>267.4</ele>
        <time>2019-03-17T16:28:10Z</time>
      </trkpt>
      <trkpt lat="44.56693" lon="1.60435">
        <ele>267.2</ele>
        <time>2019-03-17T16:28:13Z</time>
      </trkpt>
      <trkpt lat="44.56696" lon="1.60441">
        <ele>267.2</ele>
        <time>2019-03-17T16:28:16Z</time>
      </trkpt>
      <trkpt lat="44.56701" lon="1.6045">
        <ele>267.7</ele>
        <time>2019-03-17T16:28:29Z</time>
      </trkpt>
      <trkpt lat="44.567" lon="1.60457">
        <ele>268.3</ele>
        <time>2019-03-17T16:28:35Z</time>
      </trkpt>
      <trkpt lat="44.56696" lon="1.6046">
        <ele>269.4</ele>
        <time>2019-03-17T16:28:41Z</time>
      </trkpt>
      <trkpt lat="44.56693" lon="1.60466">
        <ele>270.5</ele>
        <time>2019-03-17T16:28:46Z</time>
      </trkpt>
      <trkpt lat="44.56691" lon="1.60472">
        <ele>271.1</ele>
        <time>2019-03-17T16:28:51Z</time>
      </trkpt>
      <trkpt lat="44.56688" lon="1.60478">
        <ele>271.5</ele>
        <time>2019-03-17T16:28:56Z</time>
      </trkpt>
      <trkpt lat="44.56685" lon="1.60484">
        <ele>270.8</ele>
        <time>2019-03-17T16:29:03Z</time>
      </trkpt>
      <trkpt lat="44.56681" lon="1.60489">
        <ele>272.2</ele>
        <time>2019-03-17T16:29:10Z</time>
      </trkpt>
      <trkpt lat="44.56679" lon="1.60494">
        <ele>273.2</ele>
        <time>2019-03-17T16:29:15Z</time>
      </trkpt>
      <trkpt lat="44.56675" lon="1.60501">
        <ele>270.5</ele>
        <time>2019-03-17T16:29:40Z</time>
      </trkpt>
      <trkpt lat="44.56671" lon="1.6051">
        <ele>270.7</ele>
        <time>2019-03-17T16:29:43Z</time>
      </trkpt>
      <trkpt lat="44.56668" lon="1.60515">
        <ele>270.2</ele>
        <time>2019-03-17T16:29:46Z</time>
      </trkpt>
      <trkpt lat="44.56664" lon="1.60521">
        <ele>269.8</ele>
        <time>2019-03-17T16:29:50Z</time>
      </trkpt>
      <trkpt lat="44.56657" lon="1.60533">
        <ele>269.8</ele>
        <time>2019-03-17T16:30:04Z</time>
      </trkpt>
      <trkpt lat="44.56653" lon="1.60537">
        <ele>270.8</ele>
        <time>2019-03-17T16:30:09Z</time>
      </trkpt>
      <trkpt lat="44.56648" lon="1.60539">
        <ele>272.1</ele>
        <time>2019-03-17T16:30:13Z</time>
      </trkpt>
      <trkpt lat="44.56644" lon="1.60543">
        <ele>273.3</ele>
        <time>2019-03-17T16:30:19Z</time>
      </trkpt>
      <trkpt lat="44.5664" lon="1.60548">
        <ele>274.3</ele>
        <time>2019-03-17T16:30:23Z</time>
      </trkpt>
      <trkpt lat="44.56636" lon="1.60553">
        <ele>275.1</ele>
        <time>2019-03-17T16:30:27Z</time>
      </trkpt>
      <trkpt lat="44.56631" lon="1.60566">
        <ele>272.1</ele>
        <time>2019-03-17T16:30:38Z</time>
      </trkpt>
      <trkpt lat="44.56627" lon="1.60571">
        <ele>272.4</ele>
        <time>2019-03-17T16:30:43Z</time>
      </trkpt>
      <trkpt lat="44.56625" lon="1.60578">
        <ele>272.4</ele>
        <time>2019-03-17T16:30:47Z</time>
      </trkpt>
      <trkpt lat="44.56621" lon="1.60583">
        <ele>272.9</ele>
        <time>2019-03-17T16:30:51Z</time>
      </trkpt>
      <trkpt lat="44.5662" lon="1.60589">
        <ele>272.2</ele>
        <time>2019-03-17T16:30:55Z</time>
      </trkpt>
      <trkpt lat="44.56617" lon="1.60593">
        <ele>271.5</ele>
        <time>2019-03-17T16:31:02Z</time>
      </trkpt>
      <trkpt lat="44.56616" lon="1.60601">
        <ele>270.7</ele>
        <time>2019-03-17T16:31:08Z</time>
      </trkpt>
      <trkpt lat="44.56611" lon="1.60605">
        <ele>269.6</ele>
        <time>2019-03-17T16:31:13Z</time>
      </trkpt>
      <trkpt lat="44.56607" lon="1.60607">
        <ele>269.6</ele>
        <time>2019-03-17T16:31:16Z</time>
      </trkpt>
      <trkpt lat="44.56601" lon="1.6061">
        <ele>270.7</ele>
        <time>2019-03-17T16:31:19Z</time>
      </trkpt>
      <trkpt lat="44.56598" lon="1.60615">
        <ele>271.4</ele>
        <time>2019-03-17T16:31:25Z</time>
      </trkpt>
      <trkpt lat="44.56596" lon="1.60621">
        <ele>271.7</ele>
        <time>2019-03-17T16:31:29Z</time>
      </trkpt>
      <trkpt lat="44.56597" lon="1.60634">
        <ele>272.3</ele>
        <time>2019-03-17T16:31:42Z</time>
      </trkpt>
      <trkpt lat="44.56594" lon="1.60647">
        <ele>271.9</ele>
        <time>2019-03-17T16:31:50Z</time>
      </trkpt>
      <trkpt lat="44.56591" lon="1.60652">
        <ele>271</ele>
        <time>2019-03-17T16:31:55Z</time>
      </trkpt>
      <trkpt lat="44.56587" lon="1.60675">
        <ele>273.7</ele>
        <time>2019-03-17T16:32:15Z</time>
      </trkpt>
      <trkpt lat="44.56592" lon="1.6069">
        <ele>274.1</ele>
        <time>2019-03-17T16:32:27Z</time>
      </trkpt>
      <trkpt lat="44.56591" lon="1.60708">
        <ele>275.3</ele>
        <time>2019-03-17T16:32:43Z</time>
      </trkpt>
      <trkpt lat="44.5659" lon="1.60718">
        <ele>275.4</ele>
        <time>2019-03-17T16:32:55Z</time>
      </trkpt>
      <trkpt lat="44.56594" lon="1.60716">
        <ele>275.7</ele>
        <time>2019-03-17T16:33:06Z</time>
      </trkpt>
      <trkpt lat="44.56599" lon="1.6071">
        <ele>274.9</ele>
        <time>2019-03-17T16:33:14Z</time>
      </trkpt>
      <trkpt lat="44.56603" lon="1.60705">
        <ele>274.8</ele>
        <time>2019-03-17T16:33:17Z</time>
      </trkpt>
      <trkpt lat="44.56606" lon="1.60698">
        <ele>275.4</ele>
        <time>2019-03-17T16:33:20Z</time>
      </trkpt>
      <trkpt lat="44.56608" lon="1.6069">
        <ele>276.6</ele>
        <time>2019-03-17T16:33:23Z</time>
      </trkpt>
      <trkpt lat="44.56608" lon="1.60683">
        <ele>278.3</ele>
        <time>2019-03-17T16:33:27Z</time>
      </trkpt>
    </trkseg>
  </trk>
</gpx>